Wetterdaten: Montag, 23.10.2017
Datum Zeit Temp. A. Pool Temp. Feuchte A. Luftdruck Regen Wind Richtung Richtung Sonnenschein ET UV Solar Taupunkt Windchill Windben Empfang
23.10.2017 00:00 8,2 C 11,1 C 83 % 1015,5 hPa 0,0 l/m 11,0 km/h (2 Bft) SW 214 0 min 0,000 mm 0,0 UV-I 0 W/m 5,5 C 5,0 C 17,7 km/h (3 Bft) 98,31 %
23.10.2017 00:02 8,1 C 11,1 C 83 % 1015,5 hPa 0,0 l/m 9,1 km/h (2 Bft) SW 224 0 min 0,000 mm 0,0 UV-I 0 W/m 5,4 C 6,1 C 12,9 km/h (3 Bft) 97,62 %
23.10.2017 00:04 8,1 C 11,1 C 83 % 1015,6 hPa 0,0 l/m 10,2 km/h (2 Bft) W-SW 252 0 min 0,000 mm 0,0 UV-I 0 W/m 5,4 C 5,4 C 16,1 km/h (3 Bft) 100,00 %
23.10.2017 00:06 8,1 C 11,1 C 83 % 1015,5 hPa 0,0 l/m 10,0 km/h (2 Bft) SW 236 0 min 0,000 mm 0,0 UV-I 0 W/m 5,4 C 5,5 C 16,1 km/h (3 Bft) 98,11 %
23.10.2017 00:08 8,1 C 11,1 C 84 % 1015,5 hPa 0,0 l/m 11,7 km/h (2 Bft) SW 227 0 min 0,000 mm 0,0 UV-I 0 W/m 5,6 C 4,5 C 19,3 km/h (3 Bft) 100,00 %
23.10.2017 00:10 8,1 C 11,1 C 84 % 1015,4 hPa 0,0 l/m 11,1 km/h (2 Bft) SW 236 0 min 0,000 mm 0,0 UV-I 0 W/m 5,6 C 4,8 C 14,5 km/h (3 Bft) 100,00 %
23.10.2017 00:12 8,1 C 11,1 C 84 % 1015,5 hPa 0,0 l/m 14,3 km/h (3 Bft) W 267 0 min 0,000 mm 0,0 UV-I 0 W/m 5,6 C 3,2 C 20,9 km/h (4 Bft) 100,00 %
23.10.2017 00:14 8,1 C 11,1 C 84 % 1015,5 hPa 0,0 l/m 14,5 km/h (3 Bft) W-SW 249 0 min 0,000 mm 0,0 UV-I 0 W/m 5,6 C 3,1 C 19,3 km/h (3 Bft) 100,00 %
23.10.2017 00:16 8,1 C 11,1 C 84 % 1015,4 hPa 0,0 l/m 15,9 km/h (3 Bft) SW 229 0 min 0,000 mm 0,0 UV-I 0 W/m 5,6 C 2,4 C 24,1 km/h (4 Bft) 98,08 %
23.10.2017 00:18 8,1 C 11,1 C 84 % 1015,4 hPa 0,0 l/m 15,0 km/h (3 Bft) SW 232 0 min 0,000 mm 0,0 UV-I 0 W/m 5,6 C 2,8 C 24,1 km/h (4 Bft) 100,00 %
23.10.2017 00:20 8,1 C 11,1 C 84 % 1015,4 hPa 0,0 l/m 15,2 km/h (3 Bft) W-SW 240 0 min 0,000 mm 0,0 UV-I 0 W/m 5,6 C 2,7 C 25,7 km/h (4 Bft) 97,73 %
23.10.2017 00:22 8,1 C 11,1 C 84 % 1015,4 hPa 0,0 l/m 16,8 km/h (3 Bft) SW 217 0 min 0,000 mm 0,0 UV-I 0 W/m 5,6 C 2,1 C 22,5 km/h (4 Bft) 100,00 %
23.10.2017 00:24 8,1 C 11,1 C 84 % 1015,3 hPa 0,0 l/m 10,7 km/h (2 Bft) W-SW 248 0 min 0,000 mm 0,0 UV-I 0 W/m 5,6 C 5,1 C 22,5 km/h (4 Bft) 97,37 %
23.10.2017 00:26 8,1 C 11,1 C 84 % 1015,3 hPa 0,0 l/m 13,2 km/h (3 Bft) W-SW 246 0 min 0,000 mm 0,0 UV-I 0 W/m 5,6 C 3,7 C 22,5 km/h (4 Bft) 100,00 %
23.10.2017 00:28 8,1 C 11,1 C 84 % 1015,3 hPa 0,0 l/m 14,5 km/h (3 Bft) W 265 0 min 0,000 mm 0,0 UV-I 0 W/m 5,6 C 3,1 C 22,5 km/h (4 Bft) 95,45 %
23.10.2017 00:30 8,1 C 11,1 C 84 % 1015,3 hPa 0,0 l/m 12,7 km/h (3 Bft) SW 232 0 min 0,000 mm 0,0 UV-I 0 W/m 5,6 C 4,0 C 22,5 km/h (4 Bft) 98,00 %
23.10.2017 00:32 8,0 C 11,1 C 85 % 1015,3 hPa 0,0 l/m 13,3 km/h (3 Bft) W-SW 245 0 min 0,000 mm 0,0 UV-I 0 W/m 5,6 C 3,5 C 22,5 km/h (4 Bft) 98,11 %
23.10.2017 00:34 8,0 C 11,1 C 85 % 1015,3 hPa 0,0 l/m 13,4 km/h (3 Bft) S-SW 193 0 min 0,000 mm 0,0 UV-I 0 W/m 5,6 C 3,5 C 19,3 km/h (3 Bft) 97,73 %
23.10.2017 00:36 8,0 C 11,1 C 85 % 1015,3 hPa 0,0 l/m 9,3 km/h (2 Bft) SW 235 0 min 0,000 mm 0,0 UV-I 0 W/m 5,6 C 5,8 C 14,5 km/h (3 Bft) 94,34 %
23.10.2017 00:38 8,0 C 11,1 C 85 % 1015,3 hPa 0,0 l/m 10,4 km/h (2 Bft) W-SW 253 0 min 0,000 mm 0,0 UV-I 0 W/m 5,6 C 5,1 C 16,1 km/h (3 Bft) 100,00 %
23.10.2017 00:40 8,0 C 11,1 C 85 % 1015,3 hPa 0,0 l/m 8,1 km/h (2 Bft) SW 227 0 min 0,000 mm 0,0 UV-I 0 W/m 5,6 C 6,7 C 14,5 km/h (3 Bft) 95,74 %
23.10.2017 00:42 8,0 C 11,1 C 85 % 1015,3 hPa 0,0 l/m 14,1 km/h (3 Bft) W-SW 254 0 min 0,000 mm 0,0 UV-I 0 W/m 5,6 C 3,1 C 19,3 km/h (3 Bft) 96,00 %
23.10.2017 00:44 8,0 C 11,1 C 85 % 1015,4 hPa 0,0 l/m 10,8 km/h (2 Bft) W-SW 253 0 min 0,000 mm 0,0 UV-I 0 W/m 5,6 C 4,9 C 16,1 km/h (3 Bft) 98,00 %
23.10.2017 00:46 7,9 C 11,1 C 85 % 1015,3 hPa 0,0 l/m 9,8 km/h (2 Bft) W-SW 246 0 min 0,000 mm 0,0 UV-I 0 W/m 5,5 C 5,4 C 17,7 km/h (3 Bft) 97,56 %
23.10.2017 00:48 8,0 C 11,1 C 85 % 1015,3 hPa 0,0 l/m 11,8 km/h (2 Bft) W-SW 258 0 min 0,000 mm 0,0 UV-I 0 W/m 5,6 C 4,3 C 19,3 km/h (3 Bft) 97,73 %
23.10.2017 00:50 7,9 C 11,1 C 85 % 1015,3 hPa 0,0 l/m 15,7 km/h (3 Bft) W-SW 250 0 min 0,000 mm 0,0 UV-I 0 W/m 5,5 C 2,3 C 20,9 km/h (4 Bft) 98,21 %
23.10.2017 00:52 7,9 C 11,1 C 85 % 1015,4 hPa 0,0 l/m 10,6 km/h (2 Bft) W-SW 253 0 min 0,000 mm 0,0 UV-I 0 W/m 5,5 C 4,9 C 16,1 km/h (3 Bft) 97,87 %
23.10.2017 00:54 7,9 C 11,1 C 85 % 1015,3 hPa 0,0 l/m 10,3 km/h (2 Bft) SW 215 0 min 0,000 mm 0,0 UV-I 0 W/m 5,5 C 5,1 C 16,1 km/h (3 Bft) 95,74 %
23.10.2017 00:56 7,9 C 11,1 C 85 % 1015,3 hPa 0,0 l/m 10,6 km/h (2 Bft) W-SW 254 0 min 0,000 mm 0,0 UV-I 0 W/m 5,5 C 4,9 C 19,3 km/h (3 Bft) 100,00 %
23.10.2017 00:58 7,9 C 11,1 C 85 % 1015,3 hPa 0,0 l/m 10,6 km/h (2 Bft) W-SW 252 0 min 0,000 mm 0,0 UV-I 0 W/m 5,5 C 4,9 C 14,5 km/h (3 Bft) 97,73 %
23.10.2017 01:00 7,9 C 11,1 C 85 % 1015,3 hPa 0,0 l/m 10,9 km/h (2 Bft) W-SW 252 0 min 0,025 mm 0,0 UV-I 0 W/m 5,5 C 4,7 C 16,1 km/h (3 Bft) 94,64 %
23.10.2017 01:01 7,9 C 11,1 C 85 % 1015,3 hPa 0,0 l/m 10,5 km/h (2 Bft) W 279 0 min 0,000 mm 0,0 UV-I 0 W/m 5,5 C 5,0 C 17,7 km/h (3 Bft) 94,74 %
23.10.2017 01:04 7,9 C 11,1 C 85 % 1015,3 hPa 0,0 l/m 10,4 km/h (2 Bft) W 265 0 min 0,000 mm 0,0 UV-I 0 W/m 5,5 C 5,0 C 14,5 km/h (3 Bft) 98,21 %
23.10.2017 01:06 7,9 C 11,1 C 85 % 1015,2 hPa 0,0 l/m 11,3 km/h (2 Bft) SW 233 0 min 0,000 mm 0,0 UV-I 0 W/m 5,5 C 4,5 C 16,1 km/h (3 Bft) 100,00 %
23.10.2017 01:08 7,9 C 11,1 C 85 % 1015,2 hPa 0,0 l/m 11,1 km/h (2 Bft) W-SW 250 0 min 0,000 mm 0,0 UV-I 0 W/m 5,5 C 4,6 C 19,3 km/h (3 Bft) 97,87 %
23.10.2017 01:10 7,9 C 11,1 C 86 % 1015,2 hPa 0,0 l/m 11,6 km/h (2 Bft) W-SW 248 0 min 0,000 mm 0,0 UV-I 0 W/m 5,7 C 4,3 C 19,3 km/h (3 Bft) 97,73 %
23.10.2017 01:12 7,9 C 11,1 C 85 % 1015,2 hPa 0,0 l/m 10,1 km/h (2 Bft) W 278 0 min 0,000 mm 0,0 UV-I 0 W/m 5,5 C 5,2 C 14,5 km/h (3 Bft) 100,00 %
23.10.2017 01:14 7,9 C 11,1 C 86 % 1015,2 hPa 0,0 l/m 10,1 km/h (2 Bft) W 261 0 min 0,000 mm 0,0 UV-I 0 W/m 5,7 C 5,2 C 14,5 km/h (3 Bft) 98,11 %
23.10.2017 01:16 8,0 C 11,1 C 86 % 1015,2 hPa 0,0 l/m 11,3 km/h (2 Bft) W-SW 250 0 min 0,000 mm 0,0 UV-I 0 W/m 5,8 C 4,6 C 20,9 km/h (4 Bft) 100,00 %
23.10.2017 01:18 7,9 C 11,1 C 86 % 1015,2 hPa 0,0 l/m 12,6 km/h (3 Bft) W-SW 238 0 min 0,000 mm 0,0 UV-I 0 W/m 5,7 C 3,8 C 20,9 km/h (4 Bft) 100,00 %
23.10.2017 01:20 7,9 C 11,1 C 85 % 1015,3 hPa 0,0 l/m 13,8 km/h (3 Bft) W 259 0 min 0,000 mm 0,0 UV-I 0 W/m 5,5 C 3,2 C 24,1 km/h (4 Bft) 100,00 %
23.10.2017 01:22 7,9 C 11,1 C 85 % 1015,3 hPa 0,0 l/m 17,8 km/h (3 Bft) W-SW 247 0 min 0,000 mm 0,0 UV-I 0 W/m 5,5 C 1,4 C 25,7 km/h (4 Bft) 100,00 %
23.10.2017 01:24 7,9 C 11,1 C 85 % 1015,2 hPa 0,0 l/m 13,4 km/h (3 Bft) W 265 0 min 0,000 mm 0,0 UV-I 0 W/m 5,5 C 3,4 C 20,9 km/h (4 Bft) 100,00 %
23.10.2017 01:26 7,9 C 11,1 C 85 % 1015,2 hPa 0,0 l/m 11,9 km/h (2 Bft) W-SW 239 0 min 0,000 mm 0,0 UV-I 0 W/m 5,5 C 4,2 C 20,9 km/h (4 Bft) 100,00 %
23.10.2017 01:28 7,9 C 11,1 C 85 % 1015,2 hPa 0,0 l/m 15,2 km/h (3 Bft) W-SW 242 0 min 0,000 mm 0,0 UV-I 0 W/m 5,5 C 2,5 C 24,1 km/h (4 Bft) 100,00 %
23.10.2017 01:30 8,0 C 11,1 C 85 % 1015,2 hPa 0,0 l/m 18,2 km/h (3 Bft) SW 234 0 min 0,000 mm 0,0 UV-I 0 W/m 5,6 C 1,4 C 30,6 km/h (5 Bft) 100,00 %
23.10.2017 01:32 8,0 C 11,1 C 84 % 1015,0 hPa 0,0 l/m 16,7 km/h (3 Bft) W 268 0 min 0,000 mm 0,0 UV-I 0 W/m 5,5 C 2,0 C 24,1 km/h (4 Bft) 100,00 %
23.10.2017 01:34 8,0 C 11,1 C 84 % 1015,1 hPa 0,0 l/m 14,8 km/h (3 Bft) W-SW 248 0 min 0,000 mm 0,0 UV-I 0 W/m 5,5 C 2,8 C 22,5 km/h (4 Bft) 100,00 %
23.10.2017 01:36 8,0 C 11,1 C 84 % 1015,1 hPa 0,0 l/m 12,0 km/h (2 Bft) W-SW 256 0 min 0,000 mm 0,0 UV-I 0 W/m 5,5 C 4,2 C 19,3 km/h (3 Bft) 98,00 %
23.10.2017 01:38 8,0 C 11,1 C 85 % 1015,1 hPa 0,0 l/m 13,8 km/h (3 Bft) W-NW 285 0 min 0,000 mm 0,0 UV-I 0 W/m 5,6 C 3,3 C 24,1 km/h (4 Bft) 97,73 %
23.10.2017 01:40 8,0 C 11,1 C 85 % 1015,2 hPa 0,0 l/m 13,4 km/h (3 Bft) W-SW 247 0 min 0,000 mm 0,0 UV-I 0 W/m 5,6 C 3,5 C 17,7 km/h (3 Bft) 100,00 %
23.10.2017 01:42 8,0 C 11,1 C 85 % 1015,1 hPa 0,0 l/m 13,9 km/h (3 Bft) W 265 0 min 0,000 mm 0,0 UV-I 0 W/m 5,6 C 3,2 C 24,1 km/h (4 Bft) 100,00 %
23.10.2017 01:44 8,0 C 11,1 C 85 % 1015,2 hPa 0,0 l/m 10,7 km/h (2 Bft) W-SW 253 0 min 0,000 mm 0,0 UV-I 0 W/m 5,6 C 5,0 C 19,3 km/h (3 Bft) 96,00 %
23.10.2017 01:46 8,0 C 11,1 C 85 % 1015,2 hPa 0,0 l/m 13,7 km/h (3 Bft) W 265 0 min 0,000 mm 0,0 UV-I 0 W/m 5,6 C 3,3 C 24,1 km/h (4 Bft) 100,00 %
23.10.2017 01:48 8,0 C 11,1 C 85 % 1015,3 hPa 0,0 l/m 15,4 km/h (3 Bft) W-NW 288 0 min 0,000 mm 0,0 UV-I 0 W/m 5,6 C 2,5 C 24,1 km/h (4 Bft) 98,04 %
23.10.2017 01:50 8,0 C 11,1 C 85 % 1015,3 hPa 0,0 l/m 12,6 km/h (3 Bft) W-SW 250 0 min 0,000 mm 0,0 UV-I 0 W/m 5,6 C 3,9 C 20,9 km/h (4 Bft) 100,00 %
23.10.2017 01:52 7,9 C 11,1 C 85 % 1015,3 hPa 0,0 l/m 17,9 km/h (3 Bft) W 265 0 min 0,000 mm 0,0 UV-I 0 W/m 5,5 C 1,4 C 27,4 km/h (4 Bft) 97,73 %
23.10.2017 01:54 8,0 C 11,1 C 85 % 1015,3 hPa 0,0 l/m 12,0 km/h (2 Bft) W 261 0 min 0,000 mm 0,0 UV-I 0 W/m 5,6 C 4,2 C 24,1 km/h (4 Bft) 98,11 %
23.10.2017 01:56 8,0 C 11,1 C 85 % 1015,3 hPa 0,0 l/m 12,4 km/h (3 Bft) W 271 0 min 0,000 mm 0,0 UV-I 0 W/m 5,6 C 4,0 C 17,7 km/h (3 Bft) 100,00 %
23.10.2017 01:58 8,0 C 11,1 C 85 % 1015,4 hPa 0,0 l/m 14,4 km/h (3 Bft) W-SW 254 0 min 0,000 mm 0,0 UV-I 0 W/m 5,6 C 3,0 C 24,1 km/h (4 Bft) 100,00 %
23.10.2017 02:00 8,0 C 11,1 C 85 % 1015,3 hPa 0,0 l/m 15,0 km/h (3 Bft) W 263 0 min 0,026 mm 0,0 UV-I 0 W/m 5,6 C 2,7 C 22,5 km/h (4 Bft) 100,00 %
23.10.2017 02:02 7,9 C 11,1 C 85 % 1015,3 hPa 0,0 l/m 12,9 km/h (3 Bft) W-SW 256 0 min 0,000 mm 0,0 UV-I 0 W/m 5,5 C 3,6 C 24,1 km/h (4 Bft) 98,31 %
23.10.2017 02:04 7,9 C 11,1 C 85 % 1015,3 hPa 0,0 l/m 15,2 km/h (3 Bft) W-NW 293 0 min 0,000 mm 0,0 UV-I 0 W/m 5,5 C 2,5 C 22,5 km/h (4 Bft) 97,87 %
23.10.2017 02:06 7,9 C 11,1 C 85 % 1015,3 hPa 0,0 l/m 16,9 km/h (3 Bft) W 275 0 min 0,000 mm 0,0 UV-I 0 W/m 5,5 C 1,8 C 29,0 km/h (5 Bft) 100,00 %
23.10.2017 02:08 7,9 C 11,1 C 85 % 1015,3 hPa 0,0 l/m 14,0 km/h (3 Bft) W 259 0 min 0,000 mm 0,0 UV-I 0 W/m 5,5 C 3,1 C 19,3 km/h (3 Bft) 100,00 %
23.10.2017 02:10 7,9 C 11,1 C 85 % 1015,2 hPa 0,0 l/m 15,0 km/h (3 Bft) W 265 0 min 0,000 mm 0,0 UV-I 0 W/m 5,5 C 2,6 C 27,4 km/h (4 Bft) 100,00 %
23.10.2017 02:12 7,9 C 11,1 C 85 % 1015,3 hPa 0,0 l/m 16,7 km/h (3 Bft) W-SW 243 0 min 0,000 mm 0,0 UV-I 0 W/m 5,5 C 1,8 C 24,1 km/h (4 Bft) 97,56 %
23.10.2017 02:14 7,9 C 11,1 C 85 % 1015,2 hPa 0,0 l/m 13,0 km/h (3 Bft) W-SW 250 0 min 0,000 mm 0,0 UV-I 0 W/m 5,5 C 3,6 C 17,7 km/h (3 Bft) 100,00 %
23.10.2017 02:16 7,9 C 11,1 C 86 % 1015,2 hPa 0,0 l/m 15,3 km/h (3 Bft) W 263 0 min 0,000 mm 0,0 UV-I 0 W/m 5,7 C 2,5 C 19,3 km/h (3 Bft) 96,23 %
23.10.2017 02:18 7,9 C 11,1 C 86 % 1015,2 hPa 0,0 l/m 14,7 km/h (3 Bft) W 275 0 min 0,000 mm 0,0 UV-I 0 W/m 5,7 C 2,7 C 20,9 km/h (4 Bft) 100,00 %
23.10.2017 02:20 7,9 C 11,1 C 87 % 1015,2 hPa 0,0 l/m 14,2 km/h (3 Bft) W 262 0 min 0,000 mm 0,0 UV-I 0 W/m 5,9 C 3,0 C 20,9 km/h (4 Bft) 100,00 %
23.10.2017 02:22 7,8 C 11,1 C 87 % 1015,1 hPa 0,0 l/m 13,4 km/h (3 Bft) W-SW 254 0 min 0,000 mm 0,0 UV-I 0 W/m 5,8 C 3,2 C 19,3 km/h (3 Bft) 100,00 %
23.10.2017 02:24 7,8 C 11,1 C 87 % 1015,0 hPa 0,0 l/m 13,1 km/h (3 Bft) W 265 0 min 0,000 mm 0,0 UV-I 0 W/m 5,8 C 3,4 C 17,7 km/h (3 Bft) 100,00 %
23.10.2017 02:26 7,8 C 11,1 C 88 % 1015,0 hPa 0,0 l/m 14,7 km/h (3 Bft) W-SW 244 0 min 0,000 mm 0,0 UV-I 0 W/m 5,9 C 2,6 C 25,7 km/h (4 Bft) 100,00 %
23.10.2017 02:28 7,7 C 11,1 C 88 % 1015,0 hPa 0,0 l/m 11,4 km/h (2 Bft) W-SW 255 0 min 0,000 mm 0,0 UV-I 0 W/m 5,8 C 4,2 C 16,1 km/h (3 Bft) 100,00 %
23.10.2017 02:30 7,7 C 11,1 C 88 % 1015,0 hPa 0,0 l/m 17,9 km/h (3 Bft) W-SW 244 0 min 0,000 mm 0,0 UV-I 0 W/m 5,8 C 1,1 C 25,7 km/h (4 Bft) 100,00 %
23.10.2017 02:32 7,7 C 11,1 C 88 % 1015,0 hPa 0,0 l/m 13,0 km/h (3 Bft) W-SW 258 0 min 0,000 mm 0,0 UV-I 0 W/m 5,8 C 3,3 C 20,9 km/h (4 Bft) 97,87 %
23.10.2017 02:34 7,7 C 11,1 C 88 % 1015,0 hPa 0,0 l/m 12,4 km/h (3 Bft) W-SW 247 0 min 0,000 mm 0,0 UV-I 0 W/m 5,8 C 3,6 C 19,3 km/h (3 Bft) 95,12 %
23.10.2017 02:36 7,6 C 11,1 C 89 % 1014,9 hPa 0,0 l/m 16,4 km/h (3 Bft) W-SW 241 0 min 0,000 mm 0,0 UV-I 0 W/m 5,9 C 1,6 C 24,1 km/h (4 Bft) 97,87 %
23.10.2017 02:38 7,6 C 11,1 C 89 % 1014,9 hPa 0,0 l/m 16,3 km/h (3 Bft) W-SW 256 0 min 0,000 mm 0,0 UV-I 0 W/m 5,9 C 1,6 C 25,7 km/h (4 Bft) 96,00 %
23.10.2017 02:40 7,6 C 11,1 C 89 % 1015,0 hPa 0,0 l/m 16,1 km/h (3 Bft) W-SW 256 0 min 0,000 mm 0,0 UV-I 0 W/m 5,9 C 1,7 C 22,5 km/h (4 Bft) 97,56 %
23.10.2017 02:42 7,6 C 11,1 C 89 % 1015,0 hPa 0,0 l/m 13,6 km/h (3 Bft) W-NW 286 0 min 0,000 mm 0,0 UV-I 0 W/m 5,9 C 2,9 C 19,3 km/h (3 Bft) 96,23 %
23.10.2017 02:44 7,6 C 11,1 C 89 % 1015,0 hPa 0,0 l/m 14,3 km/h (3 Bft) W-SW 252 0 min 0,000 mm 0,0 UV-I 0 W/m 5,9 C 2,6 C 22,5 km/h (4 Bft) 94,74 %
23.10.2017 02:46 7,6 C 11,1 C 89 % 1015,0 hPa 0,0 l/m 16,2 km/h (3 Bft) W-SW 241 0 min 0,000 mm 0,0 UV-I 0 W/m 5,9 C 1,7 C 22,5 km/h (4 Bft) 96,23 %
23.10.2017 02:48 7,6 C 11,1 C 89 % 1015,0 hPa 0,0 l/m 16,5 km/h (3 Bft) SW 234 0 min 0,000 mm 0,0 UV-I 0 W/m 5,9 C 1,6 C 29,0 km/h (5 Bft) 95,74 %
23.10.2017 02:50 7,6 C 11,1 C 89 % 1014,9 hPa 0,0 l/m 15,7 km/h (3 Bft) W 259 0 min 0,000 mm 0,0 UV-I 0 W/m 5,9 C 1,9 C 22,5 km/h (4 Bft) 95,74 %
23.10.2017 02:52 7,6 C 11,1 C 89 % 1014,9 hPa 0,0 l/m 14,1 km/h (3 Bft) W 261 0 min 0,000 mm 0,0 UV-I 0 W/m 5,9 C 2,7 C 20,9 km/h (4 Bft) 96,00 %
23.10.2017 02:54 7,6 C 11,1 C 89 % 1014,9 hPa 0,0 l/m 15,9 km/h (3 Bft) W-SW 255 0 min 0,000 mm 0,0 UV-I 0 W/m 5,9 C 1,8 C 20,9 km/h (4 Bft) 94,87 %
23.10.2017 02:56 7,6 C 11,1 C 89 % 1014,8 hPa 0,0 l/m 15,0 km/h (3 Bft) W-SW 246 0 min 0,000 mm 0,0 UV-I 0 W/m 5,9 C 2,2 C 19,3 km/h (3 Bft) 92,00 %
23.10.2017 02:58 7,6 C 11,1 C 89 % 1014,8 hPa 0,0 l/m 12,0 km/h (2 Bft) W-NW 298 0 min 0,000 mm 0,0 UV-I 0 W/m 5,9 C 3,8 C 17,7 km/h (3 Bft) 96,00 %
23.10.2017 03:00 7,6 C 11,1 C 89 % 1014,8 hPa 0,0 l/m 14,6 km/h (3 Bft) W-SW 238 0 min 0,025 mm 0,0 UV-I 0 W/m 5,9 C 2,4 C 22,5 km/h (4 Bft) 94,74 %
23.10.2017 03:02 7,6 C 11,1 C 90 % 1014,8 hPa 0,0 l/m 12,1 km/h (2 Bft) W-SW 238 0 min 0,000 mm 0,0 UV-I 0 W/m 6,1 C 3,7 C 16,1 km/h (3 Bft) 96,00 %
23.10.2017 03:04 7,6 C 11,1 C 90 % 1014,8 hPa 0,0 l/m 14,0 km/h (3 Bft) W-SW 246 0 min 0,000 mm 0,0 UV-I 0 W/m 6,1 C 2,7 C 19,3 km/h (3 Bft) 95,74 %
23.10.2017 03:06 7,6 C 11,1 C 90 % 1014,8 hPa 0,0 l/m 13,4 km/h (3 Bft) W-SW 250 0 min 0,000 mm 0,0 UV-I 0 W/m 6,1 C 3,0 C 20,9 km/h (4 Bft) 96,00 %
23.10.2017 03:08 7,6 C 11,1 C 90 % 1014,8 hPa 0,0 l/m 14,7 km/h (3 Bft) W 273 0 min 0,000 mm 0,0 UV-I 0 W/m 6,1 C 2,4 C 19,3 km/h (3 Bft) 96,15 %
23.10.2017 03:10 7,5 C 11,1 C 90 % 1014,8 hPa 0,0 l/m 14,8 km/h (3 Bft) W 265 0 min 0,000 mm 0,0 UV-I 0 W/m 6,0 C 2,2 C 20,9 km/h (4 Bft) 97,06 %
23.10.2017 03:12 7,5 C 11,1 C 90 % 1014,8 hPa 0,0 l/m 13,7 km/h (3 Bft) W 272 0 min 0,000 mm 0,0 UV-I 0 W/m 6,0 C 2,7 C 19,3 km/h (3 Bft) 97,73 %
23.10.2017 03:14 7,6 C 11,1 C 90 % 1014,8 hPa 0,0 l/m 12,6 km/h (3 Bft) W 259 0 min 0,000 mm 0,0 UV-I 0 W/m 6,1 C 3,4 C 17,7 km/h (3 Bft) 97,73 %
23.10.2017 03:16 7,6 C 11,1 C 90 % 1014,8 hPa 0,0 l/m 12,6 km/h (3 Bft) W 267 0 min 0,000 mm 0,0 UV-I 0 W/m 6,1 C 3,4 C 20,9 km/h (4 Bft) 98,00 %
23.10.2017 03:18 7,6 C 11,1 C 90 % 1014,8 hPa 0,0 l/m 14,4 km/h (3 Bft) W-SW 248 0 min 0,000 mm 0,0 UV-I 0 W/m 6,1 C 2,5 C 22,5 km/h (4 Bft) 94,00 %
23.10.2017 03:20 7,6 C 11,1 C 90 % 1014,8 hPa 0,0 l/m 11,4 km/h (2 Bft) SW 229 0 min 0,000 mm 0,0 UV-I 0 W/m 6,1 C 4,1 C 16,1 km/h (3 Bft) 98,00 %
23.10.2017 03:22 7,6 C 11,1 C 90 % 1014,9 hPa 0,0 l/m 14,7 km/h (3 Bft) SW 236 0 min 0,000 mm 0,0 UV-I 0 W/m 6,1 C 2,4 C 22,5 km/h (4 Bft) 97,56 %
23.10.2017 03:24 7,6 C 11,1 C 90 % 1014,9 hPa 0,0 l/m 11,6 km/h (2 Bft) W 276 0 min 0,000 mm 0,0 UV-I 0 W/m 6,1 C 4,0 C 16,1 km/h (3 Bft) 98,11 %
23.10.2017 03:26 7,6 C 11,1 C 90 % 1015,0 hPa 0,0 l/m 9,1 km/h (2 Bft) W-SW 257 0 min 0,000 mm 0,0 UV-I 0 W/m 6,1 C 5,5 C 16,1 km/h (3 Bft) 97,37 %
23.10.2017 03:28 7,6 C 11,1 C 90 % 1015,0 hPa 0,0 l/m 15,9 km/h (3 Bft) W 271 0 min 0,000 mm 0,0 UV-I 0 W/m 6,1 C 1,8 C 24,1 km/h (4 Bft) 96,23 %
23.10.2017 03:30 7,6 C 11,1 C 90 % 1015,1 hPa 0,0 l/m 14,6 km/h (3 Bft) W-SW 257 0 min 0,000 mm 0,0 UV-I 0 W/m 6,1 C 2,4 C 25,7 km/h (4 Bft) 97,73 %
23.10.2017 03:32 7,6 C 11,1 C 90 % 1015,1 hPa 0,0 l/m 14,7 km/h (3 Bft) W 275 0 min 0,000 mm 0,0 UV-I 0 W/m 6,1 C 2,4 C 20,9 km/h (4 Bft) 97,87 %
23.10.2017 03:34 7,6 C 11,1 C 90 % 1015,0 hPa 0,0 l/m 11,8 km/h (2 Bft) W-SW 242 0 min 0,000 mm 0,0 UV-I 0 W/m 6,1 C 3,9 C 17,7 km/h (3 Bft) 97,44 %
23.10.2017 03:36 7,6 C 11,1 C 89 % 1015,1 hPa 0,0 l/m 12,8 km/h (3 Bft) W 268 0 min 0,000 mm 0,0 UV-I 0 W/m 5,9 C 3,3 C 19,3 km/h (3 Bft) 98,21 %
23.10.2017 03:38 7,6 C 11,1 C 89 % 1015,1 hPa 0,0 l/m 13,5 km/h (3 Bft) W 263 0 min 0,000 mm 0,0 UV-I 0 W/m 5,9 C 3,0 C 20,9 km/h (4 Bft) 97,73 %
23.10.2017 03:40 7,6 C 11,1 C 89 % 1015,0 hPa 0,0 l/m 11,2 km/h (2 Bft) W-SW 238 0 min 0,000 mm 0,0 UV-I 0 W/m 5,9 C 4,2 C 16,1 km/h (3 Bft) 93,18 %
23.10.2017 03:42 7,7 C 11,1 C 89 % 1015,1 hPa 0,0 l/m 13,0 km/h (3 Bft) W 259 0 min 0,000 mm 0,0 UV-I 0 W/m 6,0 C 3,3 C 20,9 km/h (4 Bft) 96,23 %
23.10.2017 03:44 7,7 C 11,1 C 89 % 1015,1 hPa 0,0 l/m 13,0 km/h (3 Bft) W 259 0 min 0,000 mm 0,0 UV-I 0 W/m 6,0 C 3,3 C 20,9 km/h (4 Bft) 97,73 %
23.10.2017 03:46 7,7 C 11,1 C 89 % 1015,1 hPa 0,0 l/m 13,4 km/h (3 Bft) W 277 0 min 0,000 mm 0,0 UV-I 0 W/m 6,0 C 3,1 C 19,3 km/h (3 Bft) 100,00 %
23.10.2017 03:48 7,7 C 11,1 C 89 % 1015,1 hPa 0,0 l/m 12,7 km/h (3 Bft) W 265 0 min 0,000 mm 0,0 UV-I 0 W/m 6,0 C 3,5 C 25,7 km/h (4 Bft) 100,00 %
23.10.2017 03:50 7,7 C 11,1 C 89 % 1015,1 hPa 0,0 l/m 16,5 km/h (3 Bft) W-NW 302 0 min 0,000 mm 0,0 UV-I 0 W/m 6,0 C 1,7 C 24,1 km/h (4 Bft) 100,00 %
23.10.2017 03:52 7,7 C 11,1 C 89 % 1015,1 hPa 0,0 l/m 13,4 km/h (3 Bft) SW 232 0 min 0,000 mm 0,0 UV-I 0 W/m 6,0 C 3,1 C 22,5 km/h (4 Bft) 98,00 %
23.10.2017 03:54 7,7 C 11,1 C 89 % 1015,1 hPa 0,0 l/m 13,2 km/h (3 Bft) W 266 0 min 0,000 mm 0,0 UV-I 0 W/m 6,0 C 3,2 C 19,3 km/h (3 Bft) 100,00 %
23.10.2017 03:56 7,7 C 11,1 C 89 % 1015,1 hPa 0,0 l/m 15,9 km/h (3 Bft) SW 225 0 min 0,000 mm 0,0 UV-I 0 W/m 6,0 C 1,9 C 22,5 km/h (4 Bft) 100,00 %
23.10.2017 03:58 7,7 C 11,1 C 89 % 1015,1 hPa 0,0 l/m 13,3 km/h (3 Bft) W 262 0 min 0,000 mm 0,0 UV-I 0 W/m 6,0 C 3,2 C 19,3 km/h (3 Bft) 100,00 %
23.10.2017 04:00 7,7 C 11,1 C 89 % 1015,1 hPa 0,0 l/m 13,4 km/h (3 Bft) W-SW 254 0 min 0,026 mm 0,0 UV-I 0 W/m 6,0 C 3,1 C 17,7 km/h (3 Bft) 98,11 %
23.10.2017 04:02 7,7 C 11,1 C 89 % 1015,1 hPa 0,0 l/m 13,6 km/h (3 Bft) W 279 0 min 0,000 mm 0,0 UV-I 0 W/m 6,0 C 3,0 C 19,3 km/h (3 Bft) 93,55 %
23.10.2017 04:04 7,7 C 11,1 C 89 % 1015,1 hPa 0,0 l/m 16,0 km/h (3 Bft) W-SW 239 0 min 0,000 mm 0,0 UV-I 0 W/m 6,0 C 1,9 C 25,7 km/h (4 Bft) 100,00 %
23.10.2017 04:06 7,7 C 11,1 C 89 % 1015,1 hPa 0,0 l/m 16,8 km/h (3 Bft) W-SW 253 0 min 0,000 mm 0,0 UV-I 0 W/m 6,0 C 1,6 C 25,7 km/h (4 Bft) 96,23 %
23.10.2017 04:08 7,7 C 11,1 C 89 % 1015,0 hPa 0,0 l/m 14,4 km/h (3 Bft) W 276 0 min 0,000 mm 0,0 UV-I 0 W/m 6,0 C 2,6 C 19,3 km/h (3 Bft) 97,56 %
23.10.2017 04:10 7,7 C 11,1 C 89 % 1015,0 hPa 0,0 l/m 16,8 km/h (3 Bft) W-SW 251 0 min 0,000 mm 0,0 UV-I 0 W/m 6,0 C 1,6 C 22,5 km/h (4 Bft) 97,44 %
23.10.2017 04:12 7,7 C 11,1 C 89 % 1015,1 hPa 0,0 l/m 14,8 km/h (3 Bft) W-SW 238 0 min 0,000 mm 0,0 UV-I 0 W/m 6,0 C 2,4 C 19,3 km/h (3 Bft) 100,00 %
23.10.2017 04:14 7,7 C 11,1 C 89 % 1015,1 hPa 0,0 l/m 18,5 km/h (3 Bft) W 261 0 min 0,000 mm 0,0 UV-I 0 W/m 6,0 C 0,9 C 27,4 km/h (4 Bft) 97,73 %
23.10.2017 04:16 7,7 C 11,1 C 89 % 1015,0 hPa 0,0 l/m 13,9 km/h (3 Bft) W-SW 253 0 min 0,000 mm 0,0 UV-I 0 W/m 6,0 C 2,9 C 22,5 km/h (4 Bft) 100,00 %
23.10.2017 04:18 7,7 C 11,1 C 89 % 1015,0 hPa 0,0 l/m 14,9 km/h (3 Bft) W 266 0 min 0,000 mm 0,0 UV-I 0 W/m 6,0 C 2,4 C 19,3 km/h (3 Bft) 100,00 %
23.10.2017 04:20 7,7 C 11,1 C 89 % 1015,0 hPa 0,2 l/m 16,5 km/h (3 Bft) W-SW 248 0 min 0,000 mm 0,0 UV-I 0 W/m 6,0 C 1,7 C 25,7 km/h (4 Bft) 100,00 %
23.10.2017 04:22 7,7 C 11,1 C 89 % 1015,0 hPa 0,0 l/m 14,6 km/h (3 Bft) W-SW 250 0 min 0,000 mm 0,0 UV-I 0 W/m 6,0 C 2,5 C 20,9 km/h (4 Bft) 100,00 %
23.10.2017 04:24 7,6 C 11,1 C 90 % 1015,0 hPa 0,0 l/m 13,4 km/h (3 Bft) W 264 0 min 0,000 mm 0,0 UV-I 0 W/m 6,1 C 3,0 C 24,1 km/h (4 Bft) 100,00 %
23.10.2017 04:26 7,6 C 11,1 C 90 % 1015,0 hPa 0,0 l/m 14,5 km/h (3 Bft) W-SW 248 0 min 0,000 mm 0,0 UV-I 0 W/m 6,1 C 2,5 C 20,9 km/h (4 Bft) 100,00 %
23.10.2017 04:28 7,6 C 11,1 C 90 % 1015,0 hPa 0,0 l/m 13,2 km/h (3 Bft) W-SW 250 0 min 0,000 mm 0,0 UV-I 0 W/m 6,1 C 3,1 C 19,3 km/h (3 Bft) 97,37 %
23.10.2017 04:30 7,6 C 11,1 C 90 % 1015,0 hPa 0,0 l/m 13,8 km/h (3 Bft) W-SW 252 0 min 0,000 mm 0,0 UV-I 0 W/m 6,1 C 2,8 C 17,7 km/h (3 Bft) 100,00 %
23.10.2017 04:32 7,6 C 11,1 C 90 % 1015,0 hPa 0,0 l/m 14,6 km/h (3 Bft) W 271 0 min 0,000 mm 0,0 UV-I 0 W/m 6,1 C 2,4 C 19,3 km/h (3 Bft) 100,00 %
23.10.2017 04:34 7,6 C 11,1 C 90 % 1015,0 hPa 0,0 l/m 13,3 km/h (3 Bft) W-SW 244 0 min 0,000 mm 0,0 UV-I 0 W/m 6,1 C 3,1 C 20,9 km/h (4 Bft) 98,00 %
23.10.2017 04:36 7,6 C 11,1 C 90 % 1015,0 hPa 0,0 l/m 11,7 km/h (2 Bft) W-SW 253 0 min 0,000 mm 0,0 UV-I 0 W/m 6,1 C 3,9 C 16,1 km/h (3 Bft) 97,56 %
23.10.2017 04:38 7,6 C 11,1 C 90 % 1015,0 hPa 0,0 l/m 16,0 km/h (3 Bft) W-SW 239 0 min 0,000 mm 0,0 UV-I 0 W/m 6,1 C 1,8 C 25,7 km/h (4 Bft) 96,00 %
23.10.2017 04:40 7,6 C 11,1 C 90 % 1015,0 hPa 0,0 l/m 14,7 km/h (3 Bft) W 263 0 min 0,000 mm 0,0 UV-I 0 W/m 6,1 C 2,4 C 19,3 km/h (3 Bft) 97,73 %
23.10.2017 04:42 7,6 C 11,1 C 90 % 1015,1 hPa 0,0 l/m 12,8 km/h (3 Bft) W-SW 254 0 min 0,000 mm 0,0 UV-I 0 W/m 6,1 C 3,3 C 20,9 km/h (4 Bft) 93,18 %
23.10.2017 04:44 7,6 C 11,1 C 90 % 1015,1 hPa 0,0 l/m 15,1 km/h (3 Bft) W-SW 256 0 min 0,000 mm 0,0 UV-I 0 W/m 6,1 C 2,2 C 20,9 km/h (4 Bft) 96,00 %
23.10.2017 04:46 7,6 C 11,1 C 90 % 1015,1 hPa 0,0 l/m 14,8 km/h (3 Bft) W 262 0 min 0,000 mm 0,0 UV-I 0 W/m 6,1 C 2,3 C 22,5 km/h (4 Bft) 97,87 %
23.10.2017 04:48 7,6 C 11,1 C 90 % 1015,1 hPa 0,0 l/m 17,0 km/h (3 Bft) W-NW 298 0 min 0,000 mm 0,0 UV-I 0 W/m 6,1 C 1,3 C 24,1 km/h (4 Bft) 98,11 %
23.10.2017 04:50 7,6 C 11,1 C 90 % 1015,1 hPa 0,0 l/m 14,2 km/h (3 Bft) W-SW 254 0 min 0,000 mm 0,0 UV-I 0 W/m 6,1 C 2,6 C 20,9 km/h (4 Bft) 97,56 %
23.10.2017 04:52 7,6 C 11,1 C 90 % 1015,1 hPa 0,0 l/m 16,7 km/h (3 Bft) W 264 0 min 0,000 mm 0,0 UV-I 0 W/m 6,1 C 1,5 C 22,5 km/h (4 Bft) 95,24 %
23.10.2017 04:54 7,6 C 11,1 C 90 % 1015,1 hPa 0,0 l/m 14,3 km/h (3 Bft) W-SW 241 0 min 0,000 mm 0,0 UV-I 0 W/m 6,1 C 2,6 C 19,3 km/h (3 Bft) 98,00 %
23.10.2017 04:56 7,6 C 11,1 C 90 % 1015,1 hPa 0,0 l/m 11,5 km/h (2 Bft) W 262 0 min 0,000 mm 0,0 UV-I 0 W/m 6,1 C 4,0 C 17,7 km/h (3 Bft) 95,12 %
23.10.2017 04:58 7,6 C 11,1 C 90 % 1015,1 hPa 0,0 l/m 14,2 km/h (3 Bft) SW 232 0 min 0,000 mm 0,0 UV-I 0 W/m 6,1 C 2,6 C 22,5 km/h (4 Bft) 96,61 %
23.10.2017 05:00 7,6 C 11,1 C 90 % 1015,1 hPa 0,0 l/m 14,7 km/h (3 Bft) SW 231 0 min 0,025 mm 0,0 UV-I 0 W/m 6,1 C 2,4 C 22,5 km/h (4 Bft) 97,37 %
23.10.2017 05:02 7,6 C 11,1 C 90 % 1015,2 hPa 0,0 l/m 17,1 km/h (3 Bft) W-SW 242 0 min 0,000 mm 0,0 UV-I 0 W/m 6,1 C 1,3 C 25,7 km/h (4 Bft) 97,73 %
23.10.2017 05:04 7,6 C 11,1 C 90 % 1015,1 hPa 0,0 l/m 15,2 km/h (3 Bft) W-SW 249 0 min 0,000 mm 0,0 UV-I 0 W/m 6,1 C 2,1 C 24,1 km/h (4 Bft) 96,23 %
23.10.2017 05:06 7,6 C 11,1 C 90 % 1015,1 hPa 0,0 l/m 17,1 km/h (3 Bft) W 263 0 min 0,000 mm 0,0 UV-I 0 W/m 6,1 C 1,3 C 24,1 km/h (4 Bft) 96,00 %
23.10.2017 05:08 7,6 C 11,1 C 90 % 1015,1 hPa 0,0 l/m 17,5 km/h (3 Bft) W-SW 238 0 min 0,000 mm 0,0 UV-I 0 W/m 6,1 C 1,1 C 27,4 km/h (4 Bft) 97,73 %
23.10.2017 05:10 7,6 C 11,1 C 90 % 1015,1 hPa 0,0 l/m 16,5 km/h (3 Bft) S-SW 207 0 min 0,000 mm 0,0 UV-I 0 W/m 6,1 C 1,6 C 20,9 km/h (4 Bft) 98,11 %
23.10.2017 05:12 7,6 C 11,1 C 90 % 1015,1 hPa 0,0 l/m 15,4 km/h (3 Bft) SW 234 0 min 0,000 mm 0,0 UV-I 0 W/m 6,1 C 2,0 C 22,5 km/h (4 Bft) 100,00 %
23.10.2017 05:14 7,6 C 11,1 C 90 % 1015,2 hPa 0,0 l/m 17,1 km/h (3 Bft) W-SW 252 0 min 0,000 mm 0,0 UV-I 0 W/m 6,1 C 1,3 C 24,1 km/h (4 Bft) 97,87 %
23.10.2017 05:16 7,6 C 11,1 C 90 % 1015,2 hPa 0,0 l/m 15,1 km/h (3 Bft) SW 232 0 min 0,000 mm 0,0 UV-I 0 W/m 6,1 C 2,2 C 20,9 km/h (4 Bft) 94,34 %
23.10.2017 05:18 7,6 C 11,1 C 90 % 1015,2 hPa 0,0 l/m 15,4 km/h (3 Bft) W-SW 246 0 min 0,000 mm 0,0 UV-I 0 W/m 6,1 C 2,0 C 22,5 km/h (4 Bft) 97,56 %
23.10.2017 05:20 7,7 C 11,1 C 90 % 1015,2 hPa 0,0 l/m 13,1 km/h (3 Bft) W-SW 244 0 min 0,000 mm 0,0 UV-I 0 W/m 6,2 C 3,3 C 20,9 km/h (4 Bft) 100,00 %
23.10.2017 05:22 7,7 C 11,1 C 90 % 1015,2 hPa 0,0 l/m 12,4 km/h (3 Bft) W 259 0 min 0,000 mm 0,0 UV-I 0 W/m 6,2 C 3,6 C 16,1 km/h (3 Bft) 96,00 %
23.10.2017 05:24 7,7 C 11,1 C 89 % 1015,2 hPa 0,0 l/m 17,9 km/h (3 Bft) W 275 0 min 0,000 mm 0,0 UV-I 0 W/m 6,0 C 1,1 C 30,6 km/h (5 Bft) 100,00 %
23.10.2017 05:26 7,7 C 11,1 C 89 % 1015,2 hPa 0,0 l/m 12,5 km/h (3 Bft) W-SW 240 0 min 0,000 mm 0,0 UV-I 0 W/m 6,0 C 3,6 C 20,9 km/h (4 Bft) 97,56 %
23.10.2017 05:28 7,7 C 11,1 C 89 % 1015,3 hPa 0,0 l/m 15,4 km/h (3 Bft) W-SW 257 0 min 0,000 mm 0,0 UV-I 0 W/m 6,0 C 2,2 C 27,4 km/h (4 Bft) 100,00 %
23.10.2017 05:30 7,7 C 11,1 C 89 % 1015,3 hPa 0,0 l/m 15,0 km/h (3 Bft) W 275 0 min 0,000 mm 0,0 UV-I 0 W/m 6,0 C 2,3 C 24,1 km/h (4 Bft) 100,00 %
23.10.2017 05:32 7,7 C 11,1 C 89 % 1015,3 hPa 0,0 l/m 13,0 km/h (3 Bft) W 270 0 min 0,000 mm 0,0 UV-I 0 W/m 6,0 C 3,3 C 22,5 km/h (4 Bft) 100,00 %
23.10.2017 05:34 7,8 C 11,1 C 89 % 1015,3 hPa 0,0 l/m 14,2 km/h (3 Bft) W 269 0 min 0,000 mm 0,0 UV-I 0 W/m 6,1 C 2,8 C 22,5 km/h (4 Bft) 100,00 %
23.10.2017 05:36 7,8 C 11,1 C 89 % 1015,3 hPa 0,0 l/m 15,3 km/h (3 Bft) W 259 0 min 0,000 mm 0,0 UV-I 0 W/m 6,1 C 2,3 C 24,1 km/h (4 Bft) 98,21 %
23.10.2017 05:38 7,8 C 11,1 C 89 % 1015,4 hPa 0,0 l/m 16,9 km/h (3 Bft) W-SW 244 0 min 0,000 mm 0,0 UV-I 0 W/m 6,1 C 1,6 C 25,7 km/h (4 Bft) 95,12 %
23.10.2017 05:40 7,8 C 11,1 C 89 % 1015,4 hPa 0,0 l/m 13,8 km/h (3 Bft) W 262 0 min 0,000 mm 0,0 UV-I 0 W/m 6,1 C 3,0 C 20,9 km/h (4 Bft) 100,00 %
23.10.2017 05:42 7,8 C 11,1 C 88 % 1015,4 hPa 0,0 l/m 17,0 km/h (3 Bft) W 259 0 min 0,000 mm 0,0 UV-I 0 W/m 5,9 C 1,6 C 25,7 km/h (4 Bft) 100,00 %
23.10.2017 05:44 7,8 C 11,1 C 88 % 1015,4 hPa 0,0 l/m 18,1 km/h (3 Bft) W 260 0 min 0,000 mm 0,0 UV-I 0 W/m 5,9 C 1,2 C 24,1 km/h (4 Bft) 100,00 %
23.10.2017 05:46 7,8 C 11,1 C 88 % 1015,3 hPa 0,0 l/m 15,6 km/h (3 Bft) SW 232 0 min 0,000 mm 0,0 UV-I 0 W/m 5,9 C 2,2 C 22,5 km/h (4 Bft) 100,00 %
23.10.2017 05:48 7,8 C 11,1 C 88 % 1015,3 hPa 0,0 l/m 16,7 km/h (3 Bft) W 263 0 min 0,000 mm 0,0 UV-I 0 W/m 5,9 C 1,7 C 25,7 km/h (4 Bft) 100,00 %
23.10.2017 05:50 7,8 C 11,1 C 88 % 1015,4 hPa 0,0 l/m 14,2 km/h (3 Bft) SW 225 0 min 0,000 mm 0,0 UV-I 0 W/m 5,9 C 2,8 C 20,9 km/h (4 Bft) 100,00 %
23.10.2017 05:52 7,8 C 11,1 C 88 % 1015,4 hPa 0,0 l/m 17,1 km/h (3 Bft) W 259 0 min 0,000 mm 0,0 UV-I 0 W/m 5,9 C 1,6 C 20,9 km/h (4 Bft) 100,00 %
23.10.2017 05:54 7,8 C 11,1 C 88 % 1015,4 hPa 0,0 l/m 16,9 km/h (3 Bft) W-SW 258 0 min 0,000 mm 0,0 UV-I 0 W/m 5,9 C 1,6 C 24,1 km/h (4 Bft) 96,23 %
23.10.2017 05:56 7,8 C 11,1 C 88 % 1015,4 hPa 0,0 l/m 14,4 km/h (3 Bft) W-SW 248 0 min 0,000 mm 0,0 UV-I 0 W/m 5,9 C 2,7 C 24,1 km/h (4 Bft) 100,00 %
23.10.2017 05:58 7,8 C 11,1 C 88 % 1015,4 hPa 0,0 l/m 15,2 km/h (3 Bft) W-SW 247 0 min 0,000 mm 0,0 UV-I 0 W/m 5,9 C 2,4 C 25,7 km/h (4 Bft) 100,00 %
23.10.2017 06:00 7,8 C 11,1 C 88 % 1015,4 hPa 0,0 l/m 15,2 km/h (3 Bft) W-SW 244 0 min 0,025 mm 0,0 UV-I 0 W/m 5,9 C 2,4 C 20,9 km/h (4 Bft) 100,00 %
23.10.2017 06:02 7,8 C 11,1 C 88 % 1015,4 hPa 0,0 l/m 13,7 km/h (3 Bft) W-SW 241 0 min 0,000 mm 0,0 UV-I 0 W/m 5,9 C 3,1 C 20,9 km/h (4 Bft) 98,11 %
23.10.2017 06:04 7,8 C 11,1 C 88 % 1015,4 hPa 0,0 l/m 13,5 km/h (3 Bft) W-SW 257 0 min 0,000 mm 0,0 UV-I 0 W/m 5,9 C 3,2 C 19,3 km/h (3 Bft) 100,00 %
23.10.2017 06:06 7,8 C 11,1 C 88 % 1015,4 hPa 0,0 l/m 13,5 km/h (3 Bft) W 261 0 min 0,000 mm 0,0 UV-I 0 W/m 5,9 C 3,2 C 20,9 km/h (4 Bft) 100,00 %
23.10.2017 06:08 7,8 C 11,1 C 89 % 1015,4 hPa 0,0 l/m 12,9 km/h (3 Bft) W 273 0 min 0,000 mm 0,0 UV-I 0 W/m 6,1 C 3,5 C 22,5 km/h (4 Bft) 96,15 %
23.10.2017 06:10 7,8 C 11,1 C 89 % 1015,4 hPa 0,0 l/m 12,6 km/h (3 Bft) W 263 0 min 0,000 mm 0,0 UV-I 0 W/m 6,1 C 3,7 C 20,9 km/h (4 Bft) 100,00 %
23.10.2017 06:12 7,7 C 11,1 C 89 % 1015,4 hPa 0,0 l/m 14,0 km/h (3 Bft) SW 227 0 min 0,000 mm 0,0 UV-I 0 W/m 6,0 C 2,8 C 25,7 km/h (4 Bft) 100,00 %
23.10.2017 06:14 7,7 C 11,1 C 89 % 1015,4 hPa 0,0 l/m 14,0 km/h (3 Bft) W-SW 244 0 min 0,000 mm 0,0 UV-I 0 W/m 6,0 C 2,8 C 20,9 km/h (4 Bft) 100,00 %
23.10.2017 06:16 7,7 C 11,1 C 89 % 1015,4 hPa 0,0 l/m 13,9 km/h (3 Bft) W-SW 247 0 min 0,000 mm 0,0 UV-I 0 W/m 6,0 C 2,9 C 22,5 km/h (4 Bft) 100,00 %
23.10.2017 06:18 7,8 C 11,1 C 89 % 1015,4 hPa 0,0 l/m 15,9 km/h (3 Bft) W-SW 252 0 min 0,000 mm 0,0 UV-I 0 W/m 6,1 C 2,1 C 20,9 km/h (4 Bft) 100,00 %
23.10.2017 06:20 7,7 C 11,1 C 89 % 1015,4 hPa 0,0 l/m 17,8 km/h (3 Bft) W-SW 257 0 min 0,000 mm 0,0 UV-I 0 W/m 6,0 C 1,1 C 24,1 km/h (4 Bft) 100,00 %
23.10.2017 06:22 7,7 C 11,1 C 89 % 1015,4 hPa 0,0 l/m 13,8 km/h (3 Bft) W 259 0 min 0,000 mm 0,0 UV-I 0 W/m 6,0 C 2,9 C 19,3 km/h (3 Bft) 100,00 %
23.10.2017 06:24 7,7 C 11,1 C 89 % 1015,5 hPa 0,0 l/m 13,1 km/h (3 Bft) W-SW 255 0 min 0,000 mm 0,0 UV-I 0 W/m 6,0 C 3,3 C 20,9 km/h (4 Bft) 96,23 %
23.10.2017 06:26 7,7 C 11,1 C 89 % 1015,5 hPa 0,0 l/m 13,2 km/h (3 Bft) W 276 0 min 0,000 mm 0,0 UV-I 0 W/m 6,0 C 3,2 C 19,3 km/h (3 Bft) 100,00 %
23.10.2017 06:28 7,7 C 11,1 C 89 % 1015,5 hPa 0,0 l/m 14,1 km/h (3 Bft) W-NW 282 0 min 0,000 mm 0,0 UV-I 0 W/m 6,0 C 2,8 C 19,3 km/h (3 Bft) 98,11 %
23.10.2017 06:30 7,7 C 11,1 C 89 % 1015,5 hPa 0,0 l/m 13,4 km/h (3 Bft) W-SW 242 0 min 0,000 mm 0,0 UV-I 0 W/m 6,0 C 3,1 C 20,9 km/h (4 Bft) 96,00 %
23.10.2017 06:32 7,7 C 11,1 C 89 % 1015,5 hPa 0,0 l/m 19,0 km/h (3 Bft) W-SW 257 0 min 0,000 mm 0,0 UV-I 0 W/m 6,0 C 0,7 C 30,6 km/h (5 Bft) 97,56 %
23.10.2017 06:34 7,7 C 11,1 C 89 % 1015,5 hPa 0,0 l/m 17,3 km/h (3 Bft) W-NW 288 0 min 0,000 mm 0,0 UV-I 0 W/m 6,0 C 1,3 C 30,6 km/h (5 Bft) 95,45 %
23.10.2017 06:36 7,7 C 11,1 C 89 % 1015,6 hPa 0,0 l/m 15,5 km/h (3 Bft) W-SW 246 0 min 0,000 mm 0,0 UV-I 0 W/m 6,0 C 2,1 C 35,4 km/h (5 Bft) 96,43 %
23.10.2017 06:38 7,7 C 11,1 C 89 % 1015,6 hPa 0,0 l/m 14,2 km/h (3 Bft) W-SW 242 0 min 0,000 mm 0,0 UV-I 0 W/m 6,0 C 2,7 C 20,9 km/h (4 Bft) 92,11 %
23.10.2017 06:40 7,7 C 11,1 C 89 % 1015,6 hPa 0,0 l/m 17,0 km/h (3 Bft) W 264 0 min 0,000 mm 0,0 UV-I 0 W/m 6,0 C 1,5 C 29,0 km/h (5 Bft) 94,92 %
23.10.2017 06:42 7,7 C 11,1 C 89 % 1015,6 hPa 0,0 l/m 15,6 km/h (3 Bft) W-SW 244 0 min 0,000 mm 0,0 UV-I 0 W/m 6,0 C 2,1 C 24,1 km/h (4 Bft) 94,74 %
23.10.2017 06:44 7,7 C 11,1 C 89 % 1015,5 hPa 0,0 l/m 11,8 km/h (2 Bft) W 264 0 min 0,000 mm 0,0 UV-I 0 W/m 6,0 C 4,0 C 16,1 km/h (3 Bft) 94,00 %
23.10.2017 06:46 7,7 C 11,1 C 89 % 1015,6 hPa 0,0 l/m 11,6 km/h (2 Bft) W 275 0 min 0,000 mm 0,0 UV-I 0 W/m 6,0 C 4,1 C 20,9 km/h (4 Bft) 94,87 %
23.10.2017 06:48 7,7 C 11,1 C 89 % 1015,6 hPa 0,0 l/m 15,2 km/h (3 Bft) W 259 0 min 0,000 mm 0,0 UV-I 0 W/m 6,0 C 2,3 C 20,9 km/h (4 Bft) 96,36 %
23.10.2017 06:50 7,7 C 11,1 C 89 % 1015,5 hPa 0,0 l/m 11,4 km/h (2 Bft) W-NW 290 0 min 0,000 mm 0,0 UV-I 0 W/m 6,0 C 4,2 C 19,3 km/h (3 Bft) 94,00 %
23.10.2017 06:52 7,7 C 11,1 C 89 % 1015,7 hPa 0,0 l/m 16,5 km/h (3 Bft) SW 228 0 min 0,000 mm 0,0 UV-I 0 W/m 6,0 C 1,7 C 29,0 km/h (5 Bft) 92,86 %
23.10.2017 06:54 7,7 C 11,1 C 89 % 1015,6 hPa 0,0 l/m 18,1 km/h (3 Bft) W-NW 299 0 min 0,000 mm 0,0 UV-I 0 W/m 6,0 C 1,0 C 25,7 km/h (4 Bft) 96,23 %
23.10.2017 06:56 7,7 C 11,1 C 89 % 1015,6 hPa 0,0 l/m 13,5 km/h (3 Bft) W-SW 249 0 min 0,000 mm 0,0 UV-I 0 W/m 6,0 C 3,1 C 20,9 km/h (4 Bft) 94,29 %
23.10.2017 06:58 7,7 C 11,1 C 89 % 1015,5 hPa 0,0 l/m 16,8 km/h (3 Bft) W 273 0 min 0,000 mm 0,0 UV-I 0 W/m 6,0 C 1,6 C 22,5 km/h (4 Bft) 92,86 %
23.10.2017 07:00 7,7 C 11,1 C 89 % 1015,6 hPa 0,0 l/m 12,5 km/h (3 Bft) W 271 0 min 0,000 mm 0,0 UV-I 0 W/m 6,0 C 3,6 C 19,3 km/h (3 Bft) 92,68 %
23.10.2017 07:02 7,7 C 11,1 C 89 % 1015,6 hPa 0,0 l/m 14,1 km/h (3 Bft) W 274 0 min 0,026 mm 0,0 UV-I 0 W/m 6,0 C 2,8 C 25,7 km/h (4 Bft) 96,00 %
23.10.2017 07:04 7,7 C 11,1 C 89 % 1015,6 hPa 0,0 l/m 12,2 km/h (2 Bft) W 267 0 min 0,000 mm 0,0 UV-I 0 W/m 6,0 C 3,8 C 17,7 km/h (3 Bft) 95,12 %
23.10.2017 07:06 7,7 C 11,1 C 89 % 1015,6 hPa 0,0 l/m 15,1 km/h (3 Bft) SW 232 0 min 0,000 mm 0,0 UV-I 0 W/m 6,0 C 2,3 C 22,5 km/h (4 Bft) 96,43 %
23.10.2017 07:08 7,7 C 11,1 C 89 % 1015,6 hPa 0,0 l/m 12,6 km/h (3 Bft) W-NW 287 0 min 0,000 mm 0,0 UV-I 0 W/m 6,0 C 3,5 C 17,7 km/h (3 Bft) 94,74 %
23.10.2017 07:10 7,7 C 11,1 C 89 % 1015,6 hPa 0,0 l/m 15,4 km/h (3 Bft) W 260 0 min 0,000 mm 0,0 UV-I 0 W/m 6,0 C 2,2 C 24,1 km/h (4 Bft) 98,11 %
23.10.2017 07:12 7,7 C 11,1 C 90 % 1015,6 hPa 0,0 l/m 11,1 km/h (2 Bft) W-NW 284 0 min 0,000 mm 0,0 UV-I 0 W/m 6,2 C 4,4 C 16,1 km/h (3 Bft) 95,74 %
23.10.2017 07:14 7,7 C 11,1 C 90 % 1015,6 hPa 0,0 l/m 15,6 km/h (3 Bft) SW 234 0 min 0,000 mm 0,0 UV-I 0 W/m 6,2 C 2,1 C 29,0 km/h (5 Bft) 95,74 %
23.10.2017 07:16 7,7 C 10,6 C 90 % 1015,6 hPa 0,0 l/m 12,5 km/h (3 Bft) W 266 0 min 0,000 mm 0,0 UV-I 0 W/m 6,2 C 3,6 C 17,7 km/h (3 Bft) 97,87 %
23.10.2017 07:18 7,7 C 10,6 C 90 % 1015,6 hPa 0,0 l/m 14,6 km/h (3 Bft) W-SW 250 0 min 0,000 mm 0,0 UV-I 0 W/m 6,2 C 2,5 C 22,5 km/h (4 Bft) 98,00 %
23.10.2017 07:20 7,7 C 10,6 C 90 % 1015,7 hPa 0,0 l/m 14,1 km/h (3 Bft) W-SW 256 0 min 0,000 mm 0,0 UV-I 0 W/m 6,2 C 2,8 C 20,9 km/h (4 Bft) 95,12 %
23.10.2017 07:23 7,6 C 10,6 C 90 % 1015,7 hPa 0,0 l/m 14,5 km/h (3 Bft) W 269 0 min 0,000 mm 0,0 UV-I 0 W/m 6,1 C 2,5 C 22,5 km/h (4 Bft) 98,59 %
23.10.2017 07:24 7,6 C 10,6 C 90 % 1015,7 hPa 0,0 l/m 9,8 km/h (2 Bft) W 280 0 min 0,000 mm 0,0 UV-I 0 W/m 6,1 C 5,1 C 14,5 km/h (3 Bft) 96,15 %
23.10.2017 07:26 7,7 C 10,6 C 90 % 1015,7 hPa 0,0 l/m 14,4 km/h (3 Bft) W-SW 255 0 min 0,000 mm 0,0 UV-I 0 W/m 6,2 C 2,6 C 24,1 km/h (4 Bft) 97,44 %
23.10.2017 07:28 7,6 C 10,6 C 90 % 1015,8 hPa 0,0 l/m 11,7 km/h (2 Bft) W 261 0 min 0,000 mm 0,0 UV-I 0 W/m 6,1 C 3,9 C 16,1 km/h (3 Bft) 96,00 %
23.10.2017 07:30 7,7 C 10,6 C 90 % 1015,7 hPa 0,0 l/m 15,1 km/h (3 Bft) W-SW 257 0 min 0,000 mm 0,0 UV-I 0 W/m 6,2 C 2,3 C 22,5 km/h (4 Bft) 98,00 %
23.10.2017 07:32 7,7 C 10,6 C 90 % 1015,7 hPa 0,0 l/m 10,9 km/h (2 Bft) W-SW 244 0 min 0,000 mm 0,0 UV-I 0 W/m 6,2 C 4,5 C 19,3 km/h (3 Bft) 98,08 %
23.10.2017 07:34 7,6 C 10,6 C 90 % 1015,7 hPa 0,0 l/m 13,3 km/h (3 Bft) W-NW 283 0 min 0,000 mm 0,0 UV-I 0 W/m 6,1 C 3,1 C 20,9 km/h (4 Bft) 97,78 %
23.10.2017 07:36 7,7 C 11,1 C 90 % 1015,8 hPa 0,0 l/m 11,5 km/h (2 Bft) W-SW 248 0 min 0,000 mm 0,0 UV-I 0 W/m 6,2 C 4,1 C 19,3 km/h (3 Bft) 100,00 %
23.10.2017 07:38 7,7 C 10,6 C 90 % 1015,8 hPa 0,0 l/m 12,7 km/h (3 Bft) W-SW 255 0 min 0,000 mm 0,0 UV-I 0 W/m 6,2 C 3,5 C 20,9 km/h (4 Bft) 100,00 %
23.10.2017 07:40 7,7 C 10,6 C 90 % 1015,8 hPa 0,0 l/m 15,3 km/h (3 Bft) W-NW 298 0 min 0,000 mm 0,0 UV-I 0 W/m 6,2 C 2,2 C 20,9 km/h (4 Bft) 100,00 %
23.10.2017 07:42 7,7 C 10,6 C 90 % 1015,8 hPa 0,0 l/m 15,6 km/h (3 Bft) W-SW 249 0 min 0,000 mm 0,0 UV-I 4 W/m 6,2 C 2,1 C 22,5 km/h (4 Bft) 100,00 %
23.10.2017 07:44 7,7 C 10,6 C 90 % 1015,8 hPa 0,0 l/m 16,2 km/h (3 Bft) W 265 0 min 0,000 mm 0,0 UV-I 1 W/m 6,2 C 1,8 C 27,4 km/h (4 Bft) 100,00 %
23.10.2017 07:46 7,7 C 10,6 C 90 % 1015,8 hPa 0,0 l/m 11,2 km/h (2 Bft) W 271 0 min 0,000 mm 0,0 UV-I 5 W/m 6,2 C 4,3 C 16,1 km/h (3 Bft) 100,00 %
23.10.2017 07:48 7,7 C 10,6 C 90 % 1015,8 hPa 0,0 l/m 13,2 km/h (3 Bft) W-SW 244 0 min 0,000 mm 0,0 UV-I 5 W/m 6,2 C 3,2 C 17,7 km/h (3 Bft) 100,00 %
23.10.2017 07:50 7,7 C 10,6 C 90 % 1015,9 hPa 0,0 l/m 11,8 km/h (2 Bft) W 267 0 min 0,000 mm 0,0 UV-I 5 W/m 6,2 C 4,0 C 24,1 km/h (4 Bft) 100,00 %
23.10.2017 07:52 7,7 C 10,6 C 90 % 1015,9 hPa 0,0 l/m 18,2 km/h (3 Bft) W-SW 254 0 min 0,000 mm 0,0 UV-I 5 W/m 6,2 C 1,0 C 30,6 km/h (5 Bft) 100,00 %
23.10.2017 07:54 7,7 C 10,6 C 89 % 1015,9 hPa 0,0 l/m 15,0 km/h (3 Bft) W 265 0 min 0,000 mm 0,0 UV-I 6 W/m 6,0 C 2,3 C 19,3 km/h (3 Bft) 100,00 %
23.10.2017 07:56 7,7 C 10,6 C 89 % 1015,9 hPa 0,0 l/m 13,5 km/h (3 Bft) W 278 0 min 0,000 mm 0,0 UV-I 7 W/m 6,0 C 3,1 C 20,9 km/h (4 Bft) 100,00 %
23.10.2017 07:58 7,7 C 10,6 C 89 % 1015,9 hPa 0,0 l/m 14,1 km/h (3 Bft) W 265 0 min 0,000 mm 0,0 UV-I 7 W/m 6,0 C 2,8 C 25,7 km/h (4 Bft) 98,00 %
23.10.2017 08:00 7,7 C 10,6 C 89 % 1015,9 hPa 0,0 l/m 16,0 km/h (3 Bft) W 260 0 min 0,000 mm 0,0 UV-I 7 W/m 6,0 C 1,9 C 25,7 km/h (4 Bft) 100,00 %
23.10.2017 08:02 7,7 C 10,6 C 89 % 1015,9 hPa 0,0 l/m 12,8 km/h (3 Bft) W-SW 258 0 min 0,025 mm 0,0 UV-I 7 W/m 6,0 C 3,4 C 20,9 km/h (4 Bft) 98,11 %
23.10.2017 08:04 7,7 C 10,6 C 89 % 1015,9 hPa 0,0 l/m 14,9 km/h (3 Bft) W 277 0 min 0,000 mm 0,0 UV-I 7 W/m 6,0 C 2,4 C 25,7 km/h (4 Bft) 97,73 %
23.10.2017 08:06 7,7 C 10,6 C 89 % 1015,9 hPa 0,0 l/m 16,5 km/h (3 Bft) W-SW 255 0 min 0,000 mm 0,0 UV-I 7 W/m 6,0 C 1,7 C 24,1 km/h (4 Bft) 100,00 %
23.10.2017 08:08 7,7 C 10,6 C 89 % 1015,9 hPa 0,0 l/m 20,2 km/h (4 Bft) W-SW 257 0 min 0,000 mm 0,0 UV-I 7 W/m 6,0 C 0,2 C 27,4 km/h (4 Bft) 96,36 %
23.10.2017 08:10 7,7 C 10,6 C 89 % 1016,0 hPa 0,0 l/m 15,7 km/h (3 Bft) W-SW 251 0 min 0,000 mm 0,0 UV-I 9 W/m 6,0 C 2,0 C 19,3 km/h (3 Bft) 100,00 %
23.10.2017 08:12 7,7 C 10,6 C 89 % 1016,1 hPa 0,0 l/m 13,1 km/h (3 Bft) W 272 0 min 0,000 mm 0,0 UV-I 8 W/m 6,0 C 3,3 C 19,3 km/h (3 Bft) 97,14 %
23.10.2017 08:14 7,7 C 10,6 C 89 % 1016,1 hPa 0,0 l/m 15,6 km/h (3 Bft) SW 235 0 min 0,000 mm 0,0 UV-I 9 W/m 6,0 C 2,1 C 24,1 km/h (4 Bft) 100,00 %
23.10.2017 08:16 7,7 C 10,6 C 88 % 1016,1 hPa 0,0 l/m 15,6 km/h (3 Bft) W-SW 250 0 min 0,000 mm 0,0 UV-I 11 W/m 5,8 C 2,1 C 22,5 km/h (4 Bft) 100,00 %
23.10.2017 08:18 7,7 C 10,6 C 88 % 1016,2 hPa 0,0 l/m 16,1 km/h (3 Bft) SW 220 0 min 0,000 mm 0,0 UV-I 10 W/m 5,8 C 1,9 C 27,4 km/h (4 Bft) 100,00 %
23.10.2017 08:20 7,7 C 10,6 C 88 % 1016,3 hPa 0,0 l/m 16,8 km/h (3 Bft) W 262 0 min 0,000 mm 0,0 UV-I 11 W/m 5,8 C 1,6 C 24,1 km/h (4 Bft) 100,00 %
23.10.2017 08:22 7,7 C 10,6 C 88 % 1016,3 hPa 0,0 l/m 16,4 km/h (3 Bft) W-SW 257 0 min 0,000 mm 0,0 UV-I 13 W/m 5,8 C 1,7 C 24,1 km/h (4 Bft) 98,04 %
23.10.2017 08:24 7,7 C 10,6 C 88 % 1016,2 hPa 0,0 l/m 14,5 km/h (3 Bft) W 259 0 min 0,000 mm 0,0 UV-I 15 W/m 5,8 C 2,6 C 22,5 km/h (4 Bft) 98,00 %
23.10.2017 08:26 7,7 C 10,6 C 88 % 1016,3 hPa 0,0 l/m 16,8 km/h (3 Bft) W 269 0 min 0,000 mm 0,0 UV-I 18 W/m 5,8 C 1,6 C 25,7 km/h (4 Bft) 100,00 %
23.10.2017 08:28 7,7 C 10,6 C 88 % 1016,3 hPa 0,0 l/m 18,6 km/h (3 Bft) W-SW 257 0 min 0,000 mm 0,0 UV-I 20 W/m 5,8 C 0,8 C 25,7 km/h (4 Bft) 100,00 %
23.10.2017 08:30 7,7 C 10,6 C 88 % 1016,2 hPa 0,0 l/m 16,4 km/h (3 Bft) SW 222 0 min 0,000 mm 0,0 UV-I 24 W/m 5,8 C 1,7 C 24,1 km/h (4 Bft) 97,56 %
23.10.2017 08:32 7,7 C 10,6 C 88 % 1016,3 hPa 0,0 l/m 17,2 km/h (3 Bft) W-SW 241 0 min 0,000 mm 0,0 UV-I 24 W/m 5,8 C 1,4 C 30,6 km/h (5 Bft) 98,00 %
23.10.2017 08:34 7,7 C 10,6 C 88 % 1016,4 hPa 0,0 l/m 17,4 km/h (3 Bft) W 263 0 min 0,000 mm 0,0 UV-I 27 W/m 5,8 C 1,3 C 22,5 km/h (4 Bft) 97,14 %
23.10.2017 08:36 7,8 C 10,6 C 88 % 1016,4 hPa 0,0 l/m 18,2 km/h (3 Bft) W 277 0 min 0,000 mm 0,0 UV-I 28 W/m 5,9 C 1,1 C 25,7 km/h (4 Bft) 100,00 %
23.10.2017 08:38 7,8 C 10,6 C 88 % 1016,3 hPa 0,0 l/m 18,5 km/h (3 Bft) W 261 0 min 0,000 mm 0,0 UV-I 25 W/m 5,9 C 1,0 C 27,4 km/h (4 Bft) 97,73 %
23.10.2017 08:40 7,8 C 10,6 C 88 % 1016,3 hPa 0,0 l/m 16,4 km/h (3 Bft) W-SW 238 0 min 0,000 mm 0,0 UV-I 23 W/m 5,9 C 1,8 C 20,9 km/h (4 Bft) 98,21 %
23.10.2017 08:42 7,8 C 10,6 C 87 % 1016,3 hPa 0,0 l/m 16,6 km/h (3 Bft) W-SW 249 0 min 0,000 mm 0,0 UV-I 19 W/m 5,8 C 1,8 C 27,4 km/h (4 Bft) 97,73 %
23.10.2017 08:44 7,8 C 10,6 C 87 % 1016,3 hPa 0,0 l/m 13,2 km/h (3 Bft) W-SW 246 0 min 0,000 mm 0,0 UV-I 15 W/m 5,8 C 3,3 C 19,3 km/h (3 Bft) 96,00 %
23.10.2017 08:46 7,8 C 10,6 C 87 % 1016,3 hPa 0,0 l/m 13,6 km/h (3 Bft) W 278 0 min 0,000 mm 0,0 UV-I 16 W/m 5,8 C 3,1 C 19,3 km/h (3 Bft) 97,62 %
23.10.2017 08:48 7,8 C 10,6 C 87 % 1016,5 hPa 0,0 l/m 15,7 km/h (3 Bft) SW 227 0 min 0,000 mm 0,0 UV-I 17 W/m 5,8 C 2,2 C 24,1 km/h (4 Bft) 98,08 %
23.10.2017 08:50 7,8 C 10,6 C 87 % 1016,4 hPa 0,0 l/m 17,5 km/h (3 Bft) W-SW 251 0 min 0,000 mm 0,0 UV-I 20 W/m 5,8 C 1,4 C 27,4 km/h (4 Bft) 95,24 %
23.10.2017 08:52 7,8 C 10,6 C 87 % 1016,4 hPa 0,0 l/m 17,9 km/h (3 Bft) W-NW 290 0 min 0,000 mm 0,0 UV-I 30 W/m 5,8 C 1,2 C 27,4 km/h (4 Bft) 98,00 %
23.10.2017 08:54 7,8 C 10,6 C 87 % 1016,4 hPa 0,0 l/m 18,2 km/h (3 Bft) W-SW 256 0 min 0,000 mm 0,0 UV-I 39 W/m 5,8 C 1,1 C 32,2 km/h (5 Bft) 97,56 %
23.10.2017 08:56 7,8 C 10,6 C 87 % 1016,4 hPa 0,0 l/m 15,1 km/h (3 Bft) SW 234 0 min 0,000 mm 0,0 UV-I 40 W/m 5,8 C 2,4 C 24,1 km/h (4 Bft) 97,87 %
23.10.2017 08:58 7,8 C 10,6 C 87 % 1016,4 hPa 0,0 l/m 17,3 km/h (3 Bft) W-SW 253 0 min 0,000 mm 0,0 UV-I 35 W/m 5,8 C 1,5 C 29,0 km/h (5 Bft) 95,74 %
23.10.2017 09:00 7,8 C 10,6 C 87 % 1016,4 hPa 0,0 l/m 17,8 km/h (3 Bft) W-SW 247 0 min 0,000 mm 0,0 UV-I 37 W/m 5,8 C 1,3 C 25,7 km/h (4 Bft) 96,00 %
23.10.2017 09:02 7,8 C 10,6 C 87 % 1016,4 hPa 0,0 l/m 21,3 km/h (4 Bft) W-SW 257 0 min 0,026 mm 0,0 UV-I 34 W/m 5,8 C -0,0 C 32,2 km/h (5 Bft) 94,00 %
23.10.2017 09:04 7,8 C 10,6 C 87 % 1016,4 hPa 0,0 l/m 14,9 km/h (3 Bft) W 260 0 min 0,000 mm 0,0 UV-I 37 W/m 5,8 C 2,5 C 22,5 km/h (4 Bft) 97,37 %
23.10.2017 09:06 7,8 C 10,6 C 87 % 1016,4 hPa 0,0 l/m 19,1 km/h (3 Bft) W-NW 296 0 min 0,000 mm 0,0 UV-I 35 W/m 5,8 C 0,8 C 29,0 km/h (5 Bft) 98,11 %
23.10.2017 09:08 7,8 C 10,6 C 87 % 1016,4 hPa 0,0 l/m 14,5 km/h (3 Bft) W-SW 251 0 min 0,000 mm 0,0 UV-I 40 W/m 5,8 C 2,7 C 27,4 km/h (4 Bft) 98,00 %
23.10.2017 09:10 7,8 C 10,6 C 87 % 1016,5 hPa 0,0 l/m 14,7 km/h (3 Bft) W-SW 245 0 min 0,000 mm 0,0 UV-I 48 W/m 5,8 C 2,6 C 22,5 km/h (4 Bft) 97,87 %
23.10.2017 09:12 7,9 C 10,6 C 87 % 1016,5 hPa 0,0 l/m 18,4 km/h (3 Bft) W 277 0 min 0,000 mm 0,0 UV-I 48 W/m 5,9 C 1,2 C 24,1 km/h (4 Bft) 100,00 %
23.10.2017 09:14 7,9 C 10,6 C 87 % 1016,5 hPa 0,0 l/m 17,8 km/h (3 Bft) W 260 0 min 0,000 mm 0,0 UV-I 56 W/m 5,9 C 1,4 C 25,7 km/h (4 Bft) 100,00 %
23.10.2017 09:16 7,9 C 10,6 C 87 % 1016,5 hPa 0,0 l/m 14,9 km/h (3 Bft) W 266 0 min 0,000 mm 0,0 UV-I 59 W/m 5,9 C 2,6 C 22,5 km/h (4 Bft) 100,00 %
23.10.2017 09:18 7,9 C 10,6 C 87 % 1016,5 hPa 0,0 l/m 20,7 km/h (4 Bft) SW 234 0 min 0,000 mm 0,0 UV-I 60 W/m 5,9 C 0,3 C 29,0 km/h (5 Bft) 98,11 %
23.10.2017 09:20 7,9 C 10,6 C 86 % 1016,5 hPa 0,0 l/m 12,4 km/h (3 Bft) W 277 0 min 0,000 mm 0,0 UV-I 55 W/m 5,7 C 3,9 C 22,5 km/h (4 Bft) 100,00 %
23.10.2017 09:22 7,9 C 10,6 C 86 % 1016,6 hPa 0,0 l/m 14,2 km/h (3 Bft) W-SW 257 0 min 0,000 mm 0,0 UV-I 57 W/m 5,7 C 3,0 C 20,9 km/h (4 Bft) 100,00 %
23.10.2017 09:24 7,9 C 10,6 C 87 % 1016,5 hPa 0,0 l/m 16,4 km/h (3 Bft) W 259 0 min 0,000 mm 0,0 UV-I 71 W/m 5,9 C 2,0 C 22,5 km/h (4 Bft) 100,00 %
23.10.2017 09:26 7,9 C 10,6 C 86 % 1016,5 hPa 0,0 l/m 16,7 km/h (3 Bft) W-SW 247 0 min 0,000 mm 0,0 UV-I 77 W/m 5,7 C 1,8 C 27,4 km/h (4 Bft) 100,00 %
23.10.2017 09:28 7,9 C 10,6 C 86 % 1016,5 hPa 0,0 l/m 20,0 km/h (4 Bft) W-SW 254 0 min 0,000 mm 0,0 UV-I 94 W/m 5,7 C 0,6 C 32,2 km/h (5 Bft) 100,00 %
23.10.2017 09:30 8,0 C 10,6 C 86 % 1016,5 hPa 0,0 l/m 14,0 km/h (3 Bft) W 280 0 min 0,000 mm 0,0 UV-I 90 W/m 5,8 C 3,2 C 20,9 km/h (4 Bft) 100,00 %
23.10.2017 09:32 8,1 C 10,6 C 86 % 1016,7 hPa 0,0 l/m 18,3 km/h (3 Bft) W 269 0 min 0,000 mm 0,0 UV-I 86 W/m 5,9 C 1,5 C 32,2 km/h (5 Bft) 100,00 %
23.10.2017 09:34 8,1 C 10,6 C 86 % 1016,6 hPa 0,0 l/m 13,8 km/h (3 Bft) W 259 0 min 0,000 mm 0,0 UV-I 86 W/m 5,9 C 3,4 C 25,7 km/h (4 Bft) 100,00 %
23.10.2017 09:36 8,1 C 10,6 C 86 % 1016,6 hPa 0,0 l/m 15,5 km/h (3 Bft) W-SW 256 0 min 0,000 mm 0,0 UV-I 80 W/m 5,9 C 2,6 C 25,7 km/h (4 Bft) 100,00 %
23.10.2017 09:38 8,1 C 10,6 C 86 % 1016,7 hPa 0,0 l/m 15,0 km/h (3 Bft) W-SW 243 0 min 0,000 mm 0,0 UV-I 67 W/m 5,9 C 2,8 C 24,1 km/h (4 Bft) 100,00 %
23.10.2017 09:40 8,1 C 10,6 C 86 % 1016,7 hPa 0,0 l/m 16,4 km/h (3 Bft) W-SW 253 0 min 0,000 mm 0,0 UV-I 62 W/m 5,9 C 2,2 C 27,4 km/h (4 Bft) 100,00 %
23.10.2017 09:42 8,1 C 10,6 C 86 % 1016,7 hPa 0,0 l/m 18,3 km/h (3 Bft) W 264 0 min 0,000 mm 0,0 UV-I 72 W/m 5,9 C 1,5 C 29,0 km/h (5 Bft) 100,00 %
23.10.2017 09:44 8,1 C 10,6 C 86 % 1016,7 hPa 0,0 l/m 15,3 km/h (3 Bft) W-SW 242 0 min 0,000 mm 0,0 UV-I 68 W/m 5,9 C 2,7 C 20,9 km/h (4 Bft) 100,00 %
23.10.2017 09:46 8,1 C 10,6 C 86 % 1016,7 hPa 0,0 l/m 13,6 km/h (3 Bft) W 261 0 min 0,000 mm 0,0 UV-I 79 W/m 5,9 C 3,5 C 27,4 km/h (4 Bft) 100,00 %
23.10.2017 09:48 8,1 C 10,6 C 86 % 1016,7 hPa 0,0 l/m 15,7 km/h (3 Bft) W-SW 244 0 min 0,000 mm 0,0 UV-I 87 W/m 5,9 C 2,5 C 25,7 km/h (4 Bft) 97,73 %
23.10.2017 09:50 8,1 C 10,6 C 86 % 1016,7 hPa 0,0 l/m 15,2 km/h (3 Bft) W 280 0 min 0,000 mm 0,0 UV-I 78 W/m 5,9 C 2,7 C 24,1 km/h (4 Bft) 100,00 %
23.10.2017 09:52 8,1 C 10,6 C 86 % 1016,7 hPa 0,0 l/m 16,1 km/h (3 Bft) W 260 0 min 0,000 mm 0,0 UV-I 75 W/m 5,9 C 2,3 C 22,5 km/h (4 Bft) 100,00 %
23.10.2017 09:54 8,1 C 10,6 C 85 % 1016,7 hPa 0,0 l/m 14,4 km/h (3 Bft) W 263 0 min 0,000 mm 0,0 UV-I 82 W/m 5,7 C 3,1 C 20,9 km/h (4 Bft) 100,00 %
23.10.2017 09:56 8,1 C 10,6 C 86 % 1016,8 hPa 0,0 l/m 17,0 km/h (3 Bft) NW 304 0 min 0,000 mm 0,0 UV-I 87 W/m 5,9 C 2,0 C 24,1 km/h (4 Bft) 100,00 %
23.10.2017 09:58 8,1 C 10,6 C 86 % 1016,7 hPa 0,0 l/m 11,1 km/h (2 Bft) W-SW 258 0 min 0,000 mm 0,0 UV-I 94 W/m 5,9 C 4,8 C 17,7 km/h (3 Bft) 100,00 %
23.10.2017 10:00 8,2 C 10,6 C 86 % 1016,8 hPa 0,0 l/m 15,2 km/h (3 Bft) W 281 0 min 0,050 mm 0,0 UV-I 89 W/m 6,0 C 2,9 C 22,5 km/h (4 Bft) 100,00 %
23.10.2017 10:02 8,2 C 10,6 C 86 % 1016,8 hPa 0,0 l/m 13,8 km/h (3 Bft) SW 215 0 min 0,000 mm 0,0 UV-I 107 W/m 6,0 C 3,5 C 22,5 km/h (4 Bft) 100,00 %
23.10.2017 10:04 8,2 C 10,6 C 85 % 1016,8 hPa 0,0 l/m 16,8 km/h (3 Bft) W-NW 286 0 min 0,000 mm 0,0 UV-I 118 W/m 5,8 C 2,2 C 24,1 km/h (4 Bft) 100,00 %
23.10.2017 10:06 8,2 C 10,6 C 85 % 1016,7 hPa 0,0 l/m 15,0 km/h (3 Bft) W-SW 244 0 min 0,000 mm 0,0 UV-I 103 W/m 5,8 C 3,0 C 24,1 km/h (4 Bft) 100,00 %
23.10.2017 10:08 8,2 C 10,6 C 85 % 1016,8 hPa 0,0 l/m 17,3 km/h (3 Bft) W 268 0 min 0,000 mm 0,0 UV-I 83 W/m 5,8 C 2,0 C 24,1 km/h (4 Bft) 100,00 %
23.10.2017 10:10 8,2 C 10,6 C 85 % 1016,8 hPa 0,0 l/m 15,7 km/h (3 Bft) W-NW 292 0 min 0,000 mm 0,0 UV-I 98 W/m 5,8 C 2,6 C 32,2 km/h (5 Bft) 100,00 %
23.10.2017 10:12 8,2 C 10,6 C 85 % 1016,8 hPa 0,0 l/m 15,6 km/h (3 Bft) W-SW 258 0 min 0,000 mm 0,0 UV-I 87 W/m 5,8 C 2,7 C 20,9 km/h (4 Bft) 98,21 %
23.10.2017 10:14 8,3 C 10,6 C 85 % 1016,9 hPa 0,0 l/m 10,7 km/h (2 Bft) W 274 0 min 0,000 mm 0,0 UV-I 97 W/m 5,9 C 5,3 C 16,1 km/h (3 Bft) 100,00 %
23.10.2017 10:16 8,3 C 10,6 C 85 % 1016,9 hPa 0,0 l/m 18,7 km/h (3 Bft) W 260 0 min 0,000 mm 0,0 UV-I 93 W/m 5,9 C 1,6 C 25,7 km/h (4 Bft) 100,00 %
23.10.2017 10:18 8,3 C 10,6 C 85 % 1016,9 hPa 0,0 l/m 11,9 km/h (2 Bft) W-NW 294 0 min 0,000 mm 0,0 UV-I 75 W/m 5,9 C 4,6 C 17,7 km/h (3 Bft) 100,00 %
23.10.2017 10:20 8,3 C 10,6 C 85 % 1016,9 hPa 0,0 l/m 14,4 km/h (3 Bft) W 277 0 min 0,000 mm 0,0 UV-I 66 W/m 5,9 C 3,4 C 22,5 km/h (4 Bft) 98,46 %
23.10.2017 10:22 8,3 C 10,6 C 85 % 1017,0 hPa 0,0 l/m 9,6 km/h (2 Bft) SW 233 0 min 0,000 mm 0,0 UV-I 54 W/m 5,9 C 6,0 C 16,1 km/h (3 Bft) 94,00 %
23.10.2017 10:24 8,3 C 10,6 C 85 % 1016,9 hPa 0,0 l/m 16,5 km/h (3 Bft) W-NW 289 0 min 0,000 mm 0,0 UV-I 64 W/m 5,9 C 2,4 C 29,0 km/h (5 Bft) 97,73 %
23.10.2017 10:26 8,3 C 10,6 C 85 % 1016,9 hPa 0,0 l/m 18,3 km/h (3 Bft) W-SW 254 0 min 0,000 mm 0,0 UV-I 61 W/m 5,9 C 1,7 C 29,0 km/h (5 Bft) 95,45 %
23.10.2017 10:28 8,3 C 10,6 C 84 % 1016,9 hPa 0,0 l/m 17,0 km/h (3 Bft) W 267 0 min 0,000 mm 0,0 UV-I 64 W/m 5,8 C 2,2 C 25,7 km/h (4 Bft) 97,73 %
23.10.2017 10:30 8,3 C 10,6 C 84 % 1016,9 hPa 0,0 l/m 12,9 km/h (3 Bft) W-SW 254 0 min 0,000 mm 0,0 UV-I 68 W/m 5,8 C 4,1 C 20,9 km/h (4 Bft) 96,23 %
23.10.2017 10:32 8,3 C 10,6 C 84 % 1016,9 hPa 0,0 l/m 13,2 km/h (3 Bft) W-SW 243 0 min 0,000 mm 0,0 UV-I 100 W/m 5,8 C 3,9 C 19,3 km/h (3 Bft) 100,00 %
23.10.2017 10:34 8,3 C 10,6 C 84 % 1016,9 hPa 0,0 l/m 16,7 km/h (3 Bft) W-SW 254 0 min 0,000 mm 0,0 UV-I 115 W/m 5,8 C 2,3 C 27,4 km/h (4 Bft) 97,37 %
23.10.2017 10:36 8,3 C 10,6 C 84 % 1017,0 hPa 0,0 l/m 13,8 km/h (3 Bft) W 271 0 min 0,000 mm 0,0 UV-I 100 W/m 5,8 C 3,6 C 19,3 km/h (3 Bft) 98,00 %
23.10.2017 10:38 8,3 C 10,6 C 84 % 1016,9 hPa 0,0 l/m 14,3 km/h (3 Bft) W-SW 246 0 min 0,000 mm 0,0 UV-I 92 W/m 5,8 C 3,4 C 19,3 km/h (3 Bft) 95,74 %
23.10.2017 10:40 8,3 C 10,6 C 84 % 1017,0 hPa 0,0 l/m 13,3 km/h (3 Bft) W-SW 244 0 min 0,000 mm 0,0 UV-I 98 W/m 5,8 C 3,9 C 22,5 km/h (4 Bft) 92,00 %
23.10.2017 10:42 8,4 C 10,6 C 84 % 1017,0 hPa 0,0 l/m 14,6 km/h (3 Bft) W-SW 246 0 min 0,000 mm 0,0 UV-I 99 W/m 5,9 C 3,4 C 19,3 km/h (3 Bft) 94,00 %
23.10.2017 10:44 8,4 C 10,6 C 84 % 1017,0 hPa 0,0 l/m 13,4 km/h (3 Bft) W-SW 241 0 min 0,000 mm 0,0 UV-I 116 W/m 5,9 C 3,9 C 19,3 km/h (3 Bft) 95,12 %
23.10.2017 10:46 8,4 C 10,6 C 84 % 1017,0 hPa 0,0 l/m 14,5 km/h (3 Bft) SW 223 0 min 0,000 mm 0,0 UV-I 103 W/m 5,9 C 3,4 C 22,5 km/h (4 Bft) 97,44 %
23.10.2017 10:48 8,4 C 10,6 C 84 % 1017,1 hPa 0,0 l/m 16,5 km/h (3 Bft) W-SW 250 0 min 0,000 mm 0,0 UV-I 87 W/m 5,9 C 2,5 C 22,5 km/h (4 Bft) 93,10 %
23.10.2017 10:50 8,4 C 10,6 C 84 % 1017,0 hPa 0,0 l/m 19,3 km/h (3 Bft) W-SW 257 0 min 0,000 mm 0,0 UV-I 106 W/m 5,9 C 1,5 C 29,0 km/h (5 Bft) 95,83 %
23.10.2017 10:52 8,4 C 10,6 C 84 % 1017,0 hPa 0,0 l/m 17,1 km/h (3 Bft) W-SW 247 0 min 0,000 mm 0,0 UV-I 103 W/m 5,9 C 2,3 C 22,5 km/h (4 Bft) 95,74 %
23.10.2017 10:54 8,4 C 10,6 C 84 % 1017,1 hPa 0,0 l/m 13,8 km/h (3 Bft) W-SW 256 0 min 0,000 mm 0,0 UV-I 88 W/m 5,9 C 3,8 C 27,4 km/h (4 Bft) 94,74 %
23.10.2017 10:56 8,4 C 10,6 C 84 % 1017,0 hPa 0,0 l/m 16,1 km/h (3 Bft) W 259 0 min 0,000 mm 0,2 UV-I 109 W/m 5,9 C 2,7 C 27,4 km/h (4 Bft) 96,23 %
23.10.2017 10:58 8,4 C 10,6 C 84 % 1017,0 hPa 0,0 l/m 16,8 km/h (3 Bft) W-SW 257 0 min 0,000 mm 0,5 UV-I 132 W/m 5,9 C 2,4 C 25,7 km/h (4 Bft) 95,12 %
23.10.2017 11:00 8,4 C 10,6 C 84 % 1017,1 hPa 0,0 l/m 14,0 km/h (3 Bft) W 265 0 min 0,077 mm 0,6 UV-I 146 W/m 5,9 C 3,7 C 20,9 km/h (4 Bft) 94,64 %
23.10.2017 11:02 8,5 C 10,6 C 84 % 1017,1 hPa 0,0 l/m 13,2 km/h (3 Bft) W-SW 253 0 min 0,000 mm 0,5 UV-I 135 W/m 6,0 C 4,2 C 20,9 km/h (4 Bft) 92,68 %
23.10.2017 11:04 8,5 C 10,6 C 84 % 1017,0 hPa 0,0 l/m 13,7 km/h (3 Bft) W-SW 250 0 min 0,000 mm 0,2 UV-I 116 W/m 6,0 C 3,9 C 20,9 km/h (4 Bft) 96,23 %
23.10.2017 11:06 8,6 C 10,6 C 84 % 1017,0 hPa 0,0 l/m 16,0 km/h (3 Bft) W 276 0 min 0,000 mm 0,0 UV-I 86 W/m 6,1 C 3,0 C 32,2 km/h (5 Bft) 94,29 %
23.10.2017 11:08 8,5 C 10,6 C 83 % 1017,1 hPa 0,0 l/m 12,4 km/h (3 Bft) W 260 0 min 0,000 mm 0,0 UV-I 66 W/m 5,8 C 4,6 C 17,7 km/h (3 Bft) 96,00 %
23.10.2017 11:10 8,5 C 10,6 C 84 % 1017,1 hPa 0,0 l/m 15,2 km/h (3 Bft) W-SW 244 0 min 0,000 mm 0,0 UV-I 76 W/m 6,0 C 3,2 C 22,5 km/h (4 Bft) 96,00 %
23.10.2017 11:12 8,5 C 10,6 C 84 % 1017,1 hPa 0,0 l/m 13,8 km/h (3 Bft) W-SW 254 0 min 0,000 mm 0,0 UV-I 104 W/m 6,0 C 3,9 C 19,3 km/h (3 Bft) 96,23 %
23.10.2017 11:14 8,5 C 10,6 C 84 % 1017,1 hPa 0,0 l/m 16,7 km/h (3 Bft) W 265 0 min 0,000 mm 0,0 UV-I 99 W/m 6,0 C 2,6 C 22,5 km/h (4 Bft) 94,29 %
23.10.2017 11:16 8,5 C 10,6 C 84 % 1017,1 hPa 0,0 l/m 18,8 km/h (3 Bft) SW 215 0 min 0,000 mm 0,0 UV-I 86 W/m 6,0 C 1,8 C 25,7 km/h (4 Bft) 98,21 %
23.10.2017 11:18 8,4 C 10,6 C 84 % 1017,2 hPa 0,0 l/m 19,2 km/h (3 Bft) W 259 0 min 0,000 mm 0,0 UV-I 76 W/m 5,9 C 1,5 C 32,2 km/h (5 Bft) 97,73 %
23.10.2017 11:20 8,4 C 10,6 C 84 % 1017,2 hPa 0,0 l/m 20,8 km/h (4 Bft) W 266 0 min 0,000 mm 0,0 UV-I 81 W/m 5,9 C 0,9 C 32,2 km/h (5 Bft) 97,87 %
23.10.2017 11:22 8,4 C 10,6 C 84 % 1017,1 hPa 0,0 l/m 16,8 km/h (3 Bft) W 261 0 min 0,000 mm 0,0 UV-I 86 W/m 5,9 C 2,4 C 22,5 km/h (4 Bft) 98,00 %
23.10.2017 11:24 8,4 C 10,6 C 84 % 1017,2 hPa 0,0 l/m 19,7 km/h (3 Bft) W 271 0 min 0,000 mm 0,0 UV-I 78 W/m 5,9 C 1,3 C 32,2 km/h (5 Bft) 97,62 %
23.10.2017 11:26 8,4 C 10,6 C 84 % 1017,1 hPa 0,0 l/m 14,7 km/h (3 Bft) W-SW 252 0 min 0,000 mm 0,0 UV-I 83 W/m 5,9 C 3,3 C 24,1 km/h (4 Bft) 96,15 %
23.10.2017 11:28 8,4 C 10,6 C 84 % 1017,1 hPa 0,0 l/m 15,7 km/h (3 Bft) W-SW 238 0 min 0,000 mm 0,2 UV-I 100 W/m 5,9 C 2,9 C 27,4 km/h (4 Bft) 100,00 %
23.10.2017 11:30 8,4 C 10,6 C 84 % 1017,1 hPa 0,0 l/m 19,2 km/h (3 Bft) W-SW 250 0 min 0,000 mm 0,0 UV-I 94 W/m 5,9 C 1,5 C 35,4 km/h (5 Bft) 97,73 %
23.10.2017 11:32 8,4 C 10,6 C 84 % 1017,2 hPa 0,0 l/m 16,2 km/h (3 Bft) W-SW 252 0 min 0,000 mm 0,0 UV-I 60 W/m 5,9 C 2,7 C 25,7 km/h (4 Bft) 100,00 %
23.10.2017 11:34 8,3 C 10,6 C 84 % 1017,2 hPa 0,0 l/m 14,8 km/h (3 Bft) W-NW 294 0 min 0,000 mm 0,0 UV-I 40 W/m 5,8 C 3,2 C 27,4 km/h (4 Bft) 100,00 %
23.10.2017 11:36 8,3 C 10,6 C 85 % 1017,2 hPa 0,0 l/m 14,1 km/h (3 Bft) W 271 0 min 0,000 mm 0,0 UV-I 40 W/m 5,9 C 3,5 C 20,9 km/h (4 Bft) 100,00 %
23.10.2017 11:38 8,3 C 10,6 C 85 % 1017,2 hPa 0,0 l/m 12,8 km/h (3 Bft) W-SW 246 0 min 0,000 mm 0,0 UV-I 39 W/m 5,9 C 4,1 C 24,1 km/h (4 Bft) 100,00 %
23.10.2017 11:40 8,3 C 10,6 C 85 % 1017,2 hPa 0,0 l/m 15,0 km/h (3 Bft) W 276 0 min 0,000 mm 0,0 UV-I 41 W/m 5,9 C 3,1 C 25,7 km/h (4 Bft) 100,00 %
23.10.2017 11:42 8,2 C 10,6 C 85 % 1017,3 hPa 0,0 l/m 14,1 km/h (3 Bft) SW 229 0 min 0,000 mm 0,0 UV-I 40 W/m 5,8 C 3,4 C 20,9 km/h (4 Bft) 100,00 %
23.10.2017 11:44 8,2 C 10,6 C 85 % 1017,2 hPa 0,0 l/m 17,2 km/h (3 Bft) W 263 0 min 0,000 mm 0,0 UV-I 36 W/m 5,8 C 2,0 C 27,4 km/h (4 Bft) 100,00 %
23.10.2017 11:46 8,2 C 10,6 C 85 % 1017,2 hPa 0,0 l/m 15,3 km/h (3 Bft) W 271 0 min 0,000 mm 0,0 UV-I 43 W/m 5,8 C 2,8 C 24,1 km/h (4 Bft) 100,00 %
23.10.2017 11:48 8,2 C 10,6 C 86 % 1017,3 hPa 0,0 l/m 16,6 km/h (3 Bft) W-SW 252 0 min 0,000 mm 0,0 UV-I 52 W/m 6,0 C 2,3 C 22,5 km/h (4 Bft) 98,21 %
23.10.2017 11:50 8,1 C 10,6 C 85 % 1017,2 hPa 0,0 l/m 16,8 km/h (3 Bft) W-SW 254 0 min 0,000 mm 0,0 UV-I 50 W/m 5,7 C 2,1 C 25,7 km/h (4 Bft) 97,37 %
23.10.2017 11:52 8,1 C 10,6 C 86 % 1017,3 hPa 0,0 l/m 15,8 km/h (3 Bft) W 279 0 min 0,000 mm 0,0 UV-I 40 W/m 5,9 C 2,5 C 27,4 km/h (4 Bft) 100,00 %
23.10.2017 11:54 8,1 C 10,6 C 85 % 1017,3 hPa 0,0 l/m 15,6 km/h (3 Bft) W 262 0 min 0,000 mm 0,0 UV-I 44 W/m 5,7 C 2,6 C 24,1 km/h (4 Bft) 100,00 %
23.10.2017 11:56 8,1 C 10,6 C 85 % 1017,3 hPa 0,0 l/m 12,9 km/h (3 Bft) S-SW 199 0 min 0,000 mm 0,0 UV-I 64 W/m 5,7 C 3,8 C 19,3 km/h (3 Bft) 98,00 %
23.10.2017 11:58 8,1 C 10,6 C 85 % 1017,2 hPa 0,0 l/m 12,8 km/h (3 Bft) W-SW 250 0 min 0,000 mm 0,0 UV-I 82 W/m 5,7 C 3,9 C 20,9 km/h (4 Bft) 100,00 %
23.10.2017 12:00 8,2 C 10,6 C 85 % 1017,2 hPa 0,0 l/m 10,5 km/h (2 Bft) W-SW 246 0 min 0,050 mm 0,6 UV-I 128 W/m 5,8 C 5,3 C 16,1 km/h (3 Bft) 100,00 %
23.10.2017 12:02 8,2 C 10,6 C 85 % 1017,2 hPa 0,0 l/m 13,5 km/h (3 Bft) W-SW 257 0 min 0,000 mm 0,9 UV-I 162 W/m 5,8 C 3,7 C 19,3 km/h (3 Bft) 100,00 %
23.10.2017 12:04 8,3 C 10,6 C 85 % 1017,1 hPa 0,0 l/m 17,0 km/h (3 Bft) W 269 0 min 0,000 mm 1,0 UV-I 179 W/m 5,9 C 2,2 C 20,9 km/h (4 Bft) 100,00 %
23.10.2017 12:06 8,4 C 10,6 C 84 % 1017,0 hPa 0,0 l/m 21,6 km/h (4 Bft) W-SW 252 0 min 0,000 mm 1,0 UV-I 172 W/m 5,9 C 0,7 C 35,4 km/h (5 Bft) 98,21 %
23.10.2017 12:08 8,4 C 10,6 C 84 % 1017,0 hPa 0,0 l/m 14,7 km/h (3 Bft) W-SW 245 0 min 0,000 mm 1,2 UV-I 194 W/m 5,9 C 3,3 C 22,5 km/h (4 Bft) 100,00 %
23.10.2017 12:10 8,6 C 10,6 C 84 % 1017,0 hPa 0,0 l/m 14,8 km/h (3 Bft) W-NW 296 0 min 0,000 mm 1,4 UV-I 223 W/m 6,1 C 3,5 C 22,5 km/h (4 Bft) 97,87 %
23.10.2017 12:12 8,8 C 10,6 C 84 % 1017,0 hPa 0,0 l/m 14,9 km/h (3 Bft) W-SW 253 2 min 0,000 mm 1,5 UV-I 497 W/m 6,2 C 3,7 C 19,3 km/h (3 Bft) 100,00 %
23.10.2017 12:14 9,1 C 10,6 C 83 % 1017,0 hPa 0,0 l/m 16,9 km/h (3 Bft) W-SW 245 2 min 0,000 mm 1,5 UV-I 471 W/m 6,4 C 3,3 C 24,1 km/h (4 Bft) 100,00 %
23.10.2017 12:16 9,2 C 10,6 C 83 % 1016,9 hPa 0,0 l/m 21,2 km/h (4 Bft) W 268 2 min 0,000 mm 1,6 UV-I 444 W/m 6,5 C 1,9 C 30,6 km/h (5 Bft) 100,00 %
23.10.2017 12:18 9,3 C 10,6 C 81 % 1016,9 hPa 0,0 l/m 19,7 km/h (3 Bft) W-SW 246 2 min 0,000 mm 1,6 UV-I 515 W/m 6,2 C 2,5 C 27,4 km/h (4 Bft) 100,00 %
23.10.2017 12:20 9,4 C 10,6 C 81 % 1016,9 hPa 0,0 l/m 16,9 km/h (3 Bft) W-SW 250 2 min 0,000 mm 1,5 UV-I 523 W/m 6,3 C 3,6 C 29,0 km/h (5 Bft) 100,00 %
23.10.2017 12:22 9,6 C 10,6 C 81 % 1017,0 hPa 0,0 l/m 19,5 km/h (3 Bft) W 271 2 min 0,000 mm 1,6 UV-I 555 W/m 6,5 C 2,9 C 33,8 km/h (5 Bft) 98,00 %
23.10.2017 12:24 9,7 C 10,6 C 80 % 1017,0 hPa 0,0 l/m 19,5 km/h (3 Bft) O-SO 105 2 min 0,000 mm 1,6 UV-I 437 W/m 6,4 C 3,1 C 27,4 km/h (4 Bft) 100,00 %
23.10.2017 12:26 9,8 C 10,6 C 80 % 1017,0 hPa 0,0 l/m 15,1 km/h (3 Bft) W-SW 249 2 min 0,000 mm 1,4 UV-I 306 W/m 6,5 C 4,8 C 22,5 km/h (4 Bft) 100,00 %
23.10.2017 12:28 9,8 C 10,6 C 80 % 1017,0 hPa 0,0 l/m 20,7 km/h (4 Bft) W-SW 247 0 min 0,000 mm 1,1 UV-I 273 W/m 6,5 C 2,8 C 30,6 km/h (5 Bft) 100,00 %
23.10.2017 12:30 9,7 C 10,6 C 79 % 1016,9 hPa 0,0 l/m 21,8 km/h (4 Bft) SW 231 0 min 0,000 mm 0,9 UV-I 243 W/m 6,2 C 2,3 C 29,0 km/h (5 Bft) 100,00 %
23.10.2017 12:32 9,6 C 10,6 C 79 % 1017,0 hPa 0,0 l/m 20,6 km/h (4 Bft) W-SW 256 0 min 0,000 mm 0,6 UV-I 185 W/m 6,1 C 2,6 C 33,8 km/h (5 Bft) 96,00 %
23.10.2017 12:34 9,4 C 10,6 C 79 % 1017,0 hPa 0,0 l/m 19,3 km/h (3 Bft) W-SW 240 0 min 0,000 mm 0,4 UV-I 121 W/m 5,9 C 2,7 C 41,8 km/h (6 Bft) 97,56 %
23.10.2017 12:36 9,2 C 10,6 C 79 % 1017,0 hPa 0,0 l/m 21,0 km/h (4 Bft) W 259 0 min 0,000 mm 0,0 UV-I 71 W/m 5,8 C 1,9 C 29,0 km/h (5 Bft) 97,87 %
23.10.2017 12:38 9,1 C 10,6 C 81 % 1017,1 hPa 0,0 l/m 19,7 km/h (3 Bft) W 271 0 min 0,000 mm 0,4 UV-I 108 W/m 6,0 C 2,2 C 33,8 km/h (5 Bft) 96,23 %
23.10.2017 12:40 8,9 C 10,6 C 82 % 1017,2 hPa 0,0 l/m 15,7 km/h (3 Bft) N-NW 336 0 min 0,000 mm 0,6 UV-I 106 W/m 6,0 C 3,5 C 29,0 km/h (5 Bft) 97,56 %
23.10.2017 12:42 8,8 C 10,6 C 82 % 1017,2 hPa 0,0 l/m 14,4 km/h (3 Bft) W-SW 257 0 min 0,000 mm 0,2 UV-I 102 W/m 5,9 C 4,0 C 24,1 km/h (4 Bft) 97,62 %
23.10.2017 12:44 8,7 C 10,6 C 83 % 1017,2 hPa 0,0 l/m 12,1 km/h (2 Bft) W-SW 248 0 min 0,000 mm 0,0 UV-I 59 W/m 6,0 C 5,0 C 22,5 km/h (4 Bft) 96,23 %
23.10.2017 12:46 8,7 C 10,6 C 83 % 1017,2 hPa 0,0 l/m 10,6 km/h (2 Bft) W 263 0 min 0,000 mm 0,0 UV-I 43 W/m 6,0 C 5,8 C 14,5 km/h (3 Bft) 94,23 %
23.10.2017 12:48 8,6 C 10,6 C 84 % 1017,2 hPa 0,0 l/m 14,4 km/h (3 Bft) W 264 0 min 0,000 mm 0,0 UV-I 67 W/m 6,1 C 3,7 C 22,5 km/h (4 Bft) 97,92 %
23.10.2017 12:50 8,6 C 10,6 C 84 % 1017,3 hPa 0,0 l/m 11,3 km/h (2 Bft) NW 323 0 min 0,000 mm 0,1 UV-I 91 W/m 6,1 C 5,3 C 19,3 km/h (3 Bft) 97,14 %
23.10.2017 12:52 8,5 C 10,6 C 84 % 1017,3 hPa 0,0 l/m 9,8 km/h (2 Bft) W 274 0 min 0,000 mm 0,6 UV-I 141 W/m 6,0 C 6,1 C 17,7 km/h (3 Bft) 98,31 %
23.10.2017 12:54 8,6 C 10,6 C 84 % 1017,6 hPa 0,0 l/m 13,1 km/h (3 Bft) W 261 0 min 0,000 mm 0,9 UV-I 197 W/m 6,1 C 4,3 C 25,7 km/h (4 Bft) 97,56 %
23.10.2017 12:56 8,7 C 10,6 C 83 % 1017,3 hPa 0,0 l/m 12,7 km/h (3 Bft) W 266 0 min 0,000 mm 1,0 UV-I 238 W/m 6,0 C 4,7 C 25,7 km/h (4 Bft) 95,65 %
23.10.2017 12:58 8,8 C 10,6 C 83 % 1017,3 hPa 0,0 l/m 14,2 km/h (3 Bft) W-SW 242 0 min 0,000 mm 1,0 UV-I 258 W/m 6,1 C 4,0 C 24,1 km/h (4 Bft) 97,30 %
23.10.2017 13:00 8,9 C 10,6 C 83 % 1017,4 hPa 0,0 l/m 12,9 km/h (3 Bft) SW 229 0 min 0,000 mm 1,0 UV-I 241 W/m 6,2 C 4,8 C 22,5 km/h (4 Bft) 97,87 %
23.10.2017 13:02 8,9 C 10,6 C 82 % 1017,5 hPa 0,0 l/m 13,7 km/h (3 Bft) W 267 0 min 0,153 mm 0,8 UV-I 180 W/m 6,0 C 4,4 C 24,1 km/h (4 Bft) 97,73 %
23.10.2017 13:04 8,9 C 10,6 C 81 % 1017,3 hPa 0,0 l/m 17,1 km/h (3 Bft) W 262 0 min 0,000 mm 0,8 UV-I 179 W/m 5,8 C 2,9 C 25,7 km/h (4 Bft) 97,56 %
23.10.2017 13:06 8,9 C 10,6 C 82 % 1017,3 hPa 0,0 l/m 11,5 km/h (2 Bft) W 273 0 min 0,000 mm 0,8 UV-I 185 W/m 6,0 C 5,5 C 20,9 km/h (4 Bft) 100,00 %
23.10.2017 13:08 8,9 C 10,6 C 82 % 1017,3 hPa 0,0 l/m 9,2 km/h (2 Bft) W-SW 248 0 min 0,000 mm 0,9 UV-I 190 W/m 6,0 C 6,9 C 19,3 km/h (3 Bft) 100,00 %
23.10.2017 13:10 9,1 C 10,6 C 82 % 1017,3 hPa 0,0 l/m 9,6 km/h (2 Bft) W 270 0 min 0,000 mm 0,9 UV-I 177 W/m 6,2 C 6,8 C 16,1 km/h (3 Bft) 100,00 %
23.10.2017 13:12 9,1 C 10,6 C 82 % 1017,3 hPa 0,0 l/m 12,8 km/h (3 Bft) S-SW 203 0 min 0,000 mm 0,7 UV-I 166 W/m 6,2 C 5,1 C 20,9 km/h (4 Bft) 100,00 %
23.10.2017 13:14 9,2 C 10,6 C 82 % 1017,3 hPa 0,0 l/m 9,1 km/h (2 Bft) W 280 0 min 0,000 mm 0,9 UV-I 216 W/m 6,3 C 7,3 C 16,1 km/h (3 Bft) 100,00 %
23.10.2017 13:16 9,2 C 10,6 C 82 % 1017,2 hPa 0,0 l/m 8,2 km/h (2 Bft) W 275 0 min 0,000 mm 0,9 UV-I 212 W/m 6,3 C 7,9 C 16,1 km/h (3 Bft) 97,14 %
23.10.2017 13:18 9,3 C 10,6 C 82 % 1017,2 hPa 0,0 l/m 11,0 km/h (2 Bft) W-NW 287 0 min 0,000 mm 0,8 UV-I 175 W/m 6,4 C 6,2 C 20,9 km/h (4 Bft) 100,00 %
23.10.2017 13:20 9,3 C 10,6 C 81 % 1017,2 hPa 0,0 l/m 8,4 km/h (2 Bft) W 259 0 min 0,000 mm 0,7 UV-I 138 W/m 6,2 C 7,8 C 16,1 km/h (3 Bft) 100,00 %
23.10.2017 13:22 9,3 C 10,6 C 81 % 1017,3 hPa 0,0 l/m 7,2 km/h (2 Bft) W-NW 285 0 min 0,000 mm 0,6 UV-I 109 W/m 6,2 C 8,7 C 14,5 km/h (3 Bft) 97,14 %
23.10.2017 13:24 9,2 C 10,6 C 81 % 1017,3 hPa 0,0 l/m 8,5 km/h (2 Bft) W 279 0 min 0,000 mm 0,0 UV-I 69 W/m 6,1 C 7,7 C 17,7 km/h (3 Bft) 98,51 %
23.10.2017 13:26 9,2 C 10,6 C 82 % 1017,3 hPa 0,0 l/m 11,5 km/h (2 Bft) NW 325 0 min 0,000 mm 0,0 UV-I 73 W/m 6,3 C 5,9 C 17,7 km/h (3 Bft) 100,00 %
23.10.2017 13:28 9,2 C 10,6 C 82 % 1017,4 hPa 0,0 l/m 6,8 km/h (2 Bft) W 277 0 min 0,000 mm 0,0 UV-I 61 W/m 6,3 C 8,9 C 24,1 km/h (4 Bft) 98,00 %
23.10.2017 13:30 9,1 C 10,6 C 82 % 1017,4 hPa 0,0 l/m 13,5 km/h (3 Bft) W-SW 257 0 min 0,000 mm 0,0 UV-I 52 W/m 6,2 C 4,7 C 20,9 km/h (4 Bft) 100,00 %
23.10.2017 13:32 9,1 C 10,6 C 83 % 1017,5 hPa 0,0 l/m 11,1 km/h (2 Bft) NW 314 0 min 0,000 mm 0,0 UV-I 46 W/m 6,4 C 6,0 C 22,5 km/h (4 Bft) 100,00 %
23.10.2017 13:34 8,9 C 10,6 C 83 % 1017,5 hPa 0,0 l/m 16,9 km/h (3 Bft) W-SW 248 0 min 0,000 mm 0,0 UV-I 67 W/m 6,2 C 3,0 C 29,0 km/h (5 Bft) 100,00 %
23.10.2017 13:36 8,8 C 10,6 C 84 % 1017,5 hPa 0,0 l/m 12,5 km/h (3 Bft) NW 309 0 min 0,000 mm 0,6 UV-I 121 W/m 6,2 C 4,9 C 19,3 km/h (3 Bft) 100,00 %
23.10.2017 13:38 8,7 C 10,6 C 85 % 1017,6 hPa 0,0 l/m 7,6 km/h (2 Bft) W-NW 295 0 min 0,000 mm 0,8 UV-I 178 W/m 6,3 C 7,8 C 22,5 km/h (4 Bft) 100,00 %
23.10.2017 13:40 8,7 C 10,6 C 85 % 1017,5 hPa 0,0 l/m 14,2 km/h (3 Bft) W-SW 245 0 min 0,000 mm 0,9 UV-I 222 W/m 6,3 C 3,9 C 20,9 km/h (4 Bft) 97,56 %
23.10.2017 13:42 8,7 C 10,6 C 85 % 1017,5 hPa 0,0 l/m 11,9 km/h (2 Bft) W-SW 254 0 min 0,000 mm 0,9 UV-I 210 W/m 6,3 C 5,1 C 24,1 km/h (4 Bft) 100,00 %
23.10.2017 13:44 8,7 C 10,6 C 86 % 1017,6 hPa 0,0 l/m 12,0 km/h (2 Bft) SW 221 0 min 0,000 mm 0,8 UV-I 191 W/m 6,5 C 5,0 C 17,7 km/h (3 Bft) 100,00 %
23.10.2017 13:46 8,8 C 10,6 C 86 % 1017,5 hPa 0,0 l/m 13,0 km/h (3 Bft) W-SW 252 0 min 0,000 mm 0,7 UV-I 175 W/m 6,6 C 4,6 C 20,9 km/h (4 Bft) 98,11 %
23.10.2017 13:48 8,8 C 10,6 C 85 % 1017,5 hPa 0,0 l/m 11,4 km/h (2 Bft) W 261 0 min 0,000 mm 0,7 UV-I 160 W/m 6,4 C 5,5 C 24,1 km/h (4 Bft) 100,00 %
23.10.2017 13:50 8,8 C 10,6 C 86 % 1017,5 hPa 0,0 l/m 12,2 km/h (2 Bft) W 281 0 min 0,000 mm 0,6 UV-I 146 W/m 6,6 C 5,0 C 17,7 km/h (3 Bft) 100,00 %
23.10.2017 13:52 8,8 C 10,6 C 85 % 1017,5 hPa 0,0 l/m 12,1 km/h (2 Bft) W 269 0 min 0,000 mm 0,5 UV-I 128 W/m 6,4 C 5,1 C 19,3 km/h (3 Bft) 100,00 %
23.10.2017 13:54 8,8 C 10,6 C 85 % 1017,5 hPa 0,0 l/m 15,0 km/h (3 Bft) W-SW 248 0 min 0,000 mm 0,6 UV-I 131 W/m 6,4 C 3,7 C 25,7 km/h (4 Bft) 96,00 %
23.10.2017 13:56 8,8 C 10,6 C 85 % 1017,5 hPa 0,0 l/m 17,6 km/h (3 Bft) SW 229 0 min 0,000 mm 0,5 UV-I 126 W/m 6,4 C 2,6 C 30,6 km/h (5 Bft) 100,00 %
23.10.2017 13:58 8,8 C 10,6 C 84 % 1017,6 hPa 0,0 l/m 17,8 km/h (3 Bft) W 275 0 min 0,000 mm 0,3 UV-I 105 W/m 6,2 C 2,5 C 29,0 km/h (5 Bft) 100,00 %
23.10.2017 14:00 8,8 C 10,6 C 84 % 1017,5 hPa 0,0 l/m 14,7 km/h (3 Bft) W-SW 252 0 min 0,076 mm 0,0 UV-I 82 W/m 6,2 C 3,8 C 25,7 km/h (4 Bft) 100,00 %
23.10.2017 14:02 8,8 C 10,6 C 83 % 1017,5 hPa 0,0 l/m 15,6 km/h (3 Bft) W 259 0 min 0,000 mm 0,0 UV-I 75 W/m 6,1 C 3,4 C 25,7 km/h (4 Bft) 100,00 %
23.10.2017 14:04 8,8 C 10,6 C 83 % 1017,5 hPa 0,0 l/m 13,4 km/h (3 Bft) W-SW 255 0 min 0,000 mm 0,3 UV-I 106 W/m 6,1 C 4,4 C 20,9 km/h (4 Bft) 100,00 %
23.10.2017 14:06 8,8 C 10,6 C 83 % 1017,5 hPa 0,0 l/m 15,8 km/h (3 Bft) NW 317 0 min 0,000 mm 0,7 UV-I 156 W/m 6,1 C 3,3 C 40,2 km/h (6 Bft) 100,00 %
23.10.2017 14:08 8,8 C 10,6 C 83 % 1017,4 hPa 0,0 l/m 14,2 km/h (3 Bft) W 267 0 min 0,000 mm 0,9 UV-I 217 W/m 6,1 C 4,0 C 22,5 km/h (4 Bft) 98,11 %
23.10.2017 14:10 8,9 C 10,6 C 83 % 1017,5 hPa 0,0 l/m 15,4 km/h (3 Bft) W-SW 257 0 min 0,000 mm 0,9 UV-I 234 W/m 6,2 C 3,6 C 27,4 km/h (4 Bft) 100,00 %
23.10.2017 14:12 9,1 C 10,6 C 83 % 1017,5 hPa 0,0 l/m 14,6 km/h (3 Bft) W 261 0 min 0,000 mm 0,8 UV-I 211 W/m 6,4 C 4,2 C 25,7 km/h (4 Bft) 100,00 %
23.10.2017 14:14 9,1 C 10,6 C 83 % 1017,5 hPa 0,0 l/m 16,9 km/h (3 Bft) W 273 0 min 0,000 mm 0,8 UV-I 208 W/m 6,4 C 3,3 C 27,4 km/h (4 Bft) 100,00 %
23.10.2017 14:16 9,2 C 10,6 C 82 % 1017,5 hPa 0,0 l/m 16,3 km/h (3 Bft) W-SW 252 0 min 0,000 mm 0,8 UV-I 209 W/m 6,3 C 3,6 C 24,1 km/h (4 Bft) 100,00 %
23.10.2017 14:18 9,2 C 10,6 C 82 % 1017,5 hPa 0,0 l/m 17,9 km/h (3 Bft) W 276 0 min 0,000 mm 0,7 UV-I 202 W/m 6,3 C 3,0 C 33,8 km/h (5 Bft) 100,00 %
23.10.2017 14:20 9,2 C 10,6 C 82 % 1017,5 hPa 0,0 l/m 19,5 km/h (3 Bft) W-SW 255 0 min 0,000 mm 0,5 UV-I 138 W/m 6,3 C 2,4 C 32,2 km/h (5 Bft) 100,00 %
23.10.2017 14:22 9,2 C 10,6 C 81 % 1017,5 hPa 0,0 l/m 22,9 km/h (4 Bft) W 274 0 min 0,000 mm 0,0 UV-I 103 W/m 6,1 C 1,3 C 32,2 km/h (5 Bft) 100,00 %
23.10.2017 14:24 9,2 C 10,6 C 81 % 1017,6 hPa 0,0 l/m 17,2 km/h (3 Bft) W 273 0 min 0,000 mm 0,0 UV-I 77 W/m 6,1 C 3,3 C 29,0 km/h (5 Bft) 96,43 %
23.10.2017 14:26 9,1 C 10,6 C 81 % 1017,6 hPa 0,0 l/m 14,6 km/h (3 Bft) W 259 0 min 0,000 mm 0,0 UV-I 61 W/m 6,0 C 4,2 C 25,7 km/h (4 Bft) 94,74 %
23.10.2017 14:28 9,1 C 10,6 C 82 % 1017,6 hPa 0,0 l/m 16,3 km/h (3 Bft) W 269 0 min 0,000 mm 0,0 UV-I 62 W/m 6,2 C 3,5 C 24,1 km/h (4 Bft) 95,74 %
23.10.2017 14:30 9,1 C 10,6 C 82 % 1017,6 hPa 0,0 l/m 17,2 km/h (3 Bft) W 275 0 min 0,000 mm 0,0 UV-I 64 W/m 6,2 C 3,1 C 24,1 km/h (4 Bft) 95,12 %
23.10.2017 14:32 8,9 C 10,6 C 82 % 1017,5 hPa 0,0 l/m 17,0 km/h (3 Bft) W 269 0 min 0,000 mm 0,0 UV-I 83 W/m 6,0 C 3,0 C 24,1 km/h (4 Bft) 94,44 %
23.10.2017 14:34 8,9 C 10,6 C 82 % 1017,5 hPa 0,0 l/m 12,5 km/h (3 Bft) W-SW 248 0 min 0,000 mm 0,5 UV-I 106 W/m 6,0 C 5,0 C 24,1 km/h (4 Bft) 95,12 %
23.10.2017 14:36 8,9 C 10,6 C 82 % 1017,6 hPa 0,0 l/m 9,9 km/h (2 Bft) W 272 0 min 0,000 mm 0,6 UV-I 133 W/m 6,0 C 6,4 C 14,5 km/h (3 Bft) 96,43 %
23.10.2017 14:38 8,9 C 10,6 C 82 % 1017,6 hPa 0,0 l/m 15,1 km/h (3 Bft) W-SW 253 0 min 0,000 mm 0,6 UV-I 142 W/m 6,0 C 3,8 C 27,4 km/h (4 Bft) 95,45 %
23.10.2017 14:40 8,9 C 10,6 C 82 % 1017,5 hPa 0,0 l/m 20,0 km/h (4 Bft) W 262 0 min 0,000 mm 0,6 UV-I 155 W/m 6,0 C 1,9 C 33,8 km/h (5 Bft) 95,24 %
23.10.2017 14:42 8,9 C 10,6 C 82 % 1017,6 hPa 0,0 l/m 15,5 km/h (3 Bft) SW 227 0 min 0,000 mm 0,4 UV-I 146 W/m 6,0 C 3,6 C 24,1 km/h (4 Bft) 96,00 %
23.10.2017 14:44 9,0 C 10,6 C 83 % 1017,5 hPa 0,0 l/m 12,3 km/h (3 Bft) SW 236 0 min 0,000 mm 0,0 UV-I 84 W/m 6,3 C 5,2 C 20,9 km/h (4 Bft) 95,74 %
23.10.2017 14:46 9,0 C 10,6 C 82 % 1017,5 hPa 0,0 l/m 14,8 km/h (3 Bft) W-SW 243 0 min 0,000 mm 0,0 UV-I 84 W/m 6,1 C 4,0 C 24,1 km/h (4 Bft) 94,00 %
23.10.2017 14:48 9,0 C 10,6 C 83 % 1017,5 hPa 0,0 l/m 12,8 km/h (3 Bft) W 269 0 min 0,000 mm 0,0 UV-I 76 W/m 6,3 C 5,0 C 19,3 km/h (3 Bft) 90,91 %
23.10.2017 14:50 9,0 C 10,6 C 83 % 1017,4 hPa 0,0 l/m 13,7 km/h (3 Bft) SW 230 0 min 0,000 mm 0,0 UV-I 88 W/m 6,3 C 4,5 C 20,9 km/h (4 Bft) 95,45 %
23.10.2017 14:52 9,0 C 10,6 C 83 % 1017,5 hPa 0,0 l/m 12,7 km/h (3 Bft) W 272 0 min 0,000 mm 0,0 UV-I 75 W/m 6,3 C 5,0 C 17,7 km/h (3 Bft) 96,43 %
23.10.2017 14:54 9,0 C 10,6 C 83 % 1017,5 hPa 0,0 l/m 12,7 km/h (3 Bft) W-SW 243 0 min 0,000 mm 0,0 UV-I 60 W/m 6,3 C 5,0 C 20,9 km/h (4 Bft) 94,74 %
23.10.2017 14:56 9,0 C 10,6 C 83 % 1017,5 hPa 0,0 l/m 12,0 km/h (2 Bft) W-NW 288 0 min 0,000 mm 0,0 UV-I 53 W/m 6,3 C 5,4 C 20,9 km/h (4 Bft) 94,00 %
23.10.2017 14:58 9,0 C 10,6 C 83 % 1017,5 hPa 0,0 l/m 15,1 km/h (3 Bft) W-SW 253 0 min 0,000 mm 0,0 UV-I 47 W/m 6,3 C 3,9 C 27,4 km/h (4 Bft) 96,00 %
23.10.2017 15:00 9,0 C 10,6 C 83 % 1017,5 hPa 0,0 l/m 15,0 km/h (3 Bft) W-SW 257 0 min 0,000 mm 0,0 UV-I 42 W/m 6,3 C 3,9 C 27,4 km/h (4 Bft) 96,15 %
23.10.2017 15:02 9,1 C 10,6 C 83 % 1017,5 hPa 0,0 l/m 13,3 km/h (3 Bft) W 269 0 min 0,076 mm 0,0 UV-I 34 W/m 6,4 C 4,8 C 20,9 km/h (4 Bft) 96,92 %
23.10.2017 15:04 9,1 C 10,6 C 83 % 1017,6 hPa 0,0 l/m 11,2 km/h (2 Bft) W-SW 247 0 min 0,000 mm 0,0 UV-I 27 W/m 6,4 C 5,9 C 20,9 km/h (4 Bft) 96,23 %
23.10.2017 15:06 9,1 C 10,6 C 83 % 1017,5 hPa 0,0 l/m 11,0 km/h (2 Bft) W 262 0 min 0,000 mm 0,0 UV-I 28 W/m 6,4 C 6,0 C 22,5 km/h (4 Bft) 100,00 %
23.10.2017 15:08 9,1 C 10,6 C 82 % 1017,6 hPa 0,0 l/m 13,0 km/h (3 Bft) W-SW 240 0 min 0,000 mm 0,0 UV-I 26 W/m 6,2 C 5,0 C 24,1 km/h (4 Bft) 96,23 %
23.10.2017 15:10 9,1 C 10,6 C 82 % 1017,6 hPa 0,0 l/m 16,9 km/h (3 Bft) W-SW 243 0 min 0,000 mm 0,0 UV-I 26 W/m 6,2 C 3,3 C 30,6 km/h (5 Bft) 97,37 %
23.10.2017 15:12 9,1 C 10,6 C 82 % 1017,6 hPa 0,0 l/m 14,8 km/h (3 Bft) W 259 0 min 0,000 mm 0,0 UV-I 26 W/m 6,2 C 4,1 C 24,1 km/h (4 Bft) 98,11 %
23.10.2017 15:14 9,2 C 10,6 C 82 % 1017,6 hPa 0,0 l/m 10,0 km/h (2 Bft) W-SW 247 0 min 0,000 mm 0,0 UV-I 26 W/m 6,3 C 6,7 C 19,3 km/h (3 Bft) 98,00 %
23.10.2017 15:16 9,2 C 10,6 C 82 % 1017,7 hPa 0,0 l/m 13,4 km/h (3 Bft) W-SW 244 0 min 0,000 mm 0,0 UV-I 25 W/m 6,3 C 4,9 C 25,7 km/h (4 Bft) 97,37 %
23.10.2017 15:18 9,1 C 10,6 C 83 % 1017,6 hPa 0,0 l/m 15,0 km/h (3 Bft) W-NW 290 0 min 0,000 mm 0,0 UV-I 22 W/m 6,4 C 4,0 C 20,9 km/h (4 Bft) 98,00 %
23.10.2017 15:20 9,1 C 10,6 C 83 % 1017,8 hPa 0,0 l/m 19,3 km/h (3 Bft) W 274 0 min 0,000 mm 0,0 UV-I 21 W/m 6,4 C 2,4 C 30,6 km/h (5 Bft) 97,62 %
23.10.2017 15:22 9,1 C 10,6 C 83 % 1017,8 hPa 0,0 l/m 12,7 km/h (3 Bft) W-SW 246 0 min 0,000 mm 0,0 UV-I 24 W/m 6,4 C 5,1 C 20,9 km/h (4 Bft) 98,00 %
23.10.2017 15:24 9,0 C 10,6 C 83 % 1017,8 hPa 0,0 l/m 14,4 km/h (3 Bft) W 269 0 min 0,000 mm 0,0 UV-I 28 W/m 6,3 C 4,2 C 37,0 km/h (5 Bft) 98,11 %
23.10.2017 15:26 8,9 C 10,6 C 83 % 1017,8 hPa 0,0 l/m 8,2 km/h (2 Bft) SW 228 0 min 0,000 mm 0,0 UV-I 29 W/m 6,2 C 7,6 C 19,3 km/h (3 Bft) 97,87 %
23.10.2017 15:28 8,9 C 10,6 C 83 % 1017,9 hPa 0,0 l/m 12,2 km/h (2 Bft) W-SW 250 0 min 0,000 mm 0,0 UV-I 40 W/m 6,2 C 5,1 C 19,3 km/h (3 Bft) 97,37 %
23.10.2017 15:30 8,9 C 10,6 C 83 % 1017,9 hPa 0,0 l/m 13,7 km/h (3 Bft) W-SW 238 0 min 0,000 mm 0,0 UV-I 46 W/m 6,2 C 4,4 C 27,4 km/h (4 Bft) 93,62 %
23.10.2017 15:32 8,9 C 10,6 C 83 % 1017,9 hPa 0,0 l/m 16,9 km/h (3 Bft) W 271 0 min 0,000 mm 0,0 UV-I 40 W/m 6,2 C 3,0 C 24,1 km/h (4 Bft) 100,00 %
23.10.2017 15:34 8,9 C 10,6 C 83 % 1017,9 hPa 0,0 l/m 17,3 km/h (3 Bft) W 268 0 min 0,000 mm 0,0 UV-I 36 W/m 6,2 C 2,8 C 27,4 km/h (4 Bft) 98,00 %
23.10.2017 15:36 8,9 C 10,6 C 83 % 1018,0 hPa 0,0 l/m 13,3 km/h (3 Bft) W-SW 243 0 min 0,000 mm 0,0 UV-I 43 W/m 6,2 C 4,6 C 25,7 km/h (4 Bft) 97,56 %
23.10.2017 15:38 8,8 C 10,6 C 84 % 1018,0 hPa 0,0 l/m 11,6 km/h (2 Bft) W 281 0 min 0,000 mm 0,0 UV-I 49 W/m 6,2 C 5,3 C 24,1 km/h (4 Bft) 100,00 %
23.10.2017 15:40 8,8 C 10,6 C 84 % 1018,0 hPa 0,0 l/m 13,8 km/h (3 Bft) W-SW 257 0 min 0,000 mm 0,0 UV-I 59 W/m 6,2 C 4,2 C 24,1 km/h (4 Bft) 100,00 %
23.10.2017 15:42 8,8 C 10,6 C 84 % 1018,0 hPa 0,0 l/m 17,4 km/h (3 Bft) W 267 0 min 0,000 mm 0,0 UV-I 81 W/m 6,2 C 2,7 C 22,5 km/h (4 Bft) 100,00 %
23.10.2017 15:44 8,8 C 10,6 C 84 % 1018,0 hPa 0,0 l/m 12,5 km/h (3 Bft) W-SW 256 0 min 0,000 mm 0,0 UV-I 85 W/m 6,2 C 4,9 C 22,5 km/h (4 Bft) 100,00 %
23.10.2017 15:46 8,7 C 10,6 C 84 % 1018,2 hPa 0,0 l/m 11,6 km/h (2 Bft) W 261 0 min 0,000 mm 0,0 UV-I 70 W/m 6,2 C 5,2 C 22,5 km/h (4 Bft) 100,00 %
23.10.2017 15:48 8,7 C 10,6 C 84 % 1018,1 hPa 0,0 l/m 12,3 km/h (3 Bft) SW 236 0 min 0,000 mm 0,0 UV-I 97 W/m 6,2 C 4,9 C 22,5 km/h (4 Bft) 100,00 %
23.10.2017 15:50 8,7 C 10,6 C 85 % 1018,0 hPa 0,0 l/m 14,2 km/h (3 Bft) W-SW 254 0 min 0,000 mm 0,0 UV-I 129 W/m 6,3 C 3,9 C 25,7 km/h (4 Bft) 97,56 %
23.10.2017 15:52 8,8 C 10,6 C 85 % 1018,1 hPa 0,0 l/m 9,3 km/h (2 Bft) W 260 0 min 0,000 mm 0,0 UV-I 117 W/m 6,4 C 6,7 C 14,5 km/h (3 Bft) 100,00 %
23.10.2017 15:54 8,8 C 10,6 C 86 % 1018,1 hPa 0,0 l/m 6,7 km/h (2 Bft) W-SW 237 0 min 0,000 mm 0,0 UV-I 82 W/m 6,6 C 8,6 C 11,3 km/h (2 Bft) 98,28 %
23.10.2017 15:56 8,8 C 10,6 C 86 % 1018,0 hPa 0,0 l/m 9,4 km/h (2 Bft) W-NW 290 0 min 0,000 mm 0,0 UV-I 65 W/m 6,6 C 6,6 C 17,7 km/h (3 Bft) 100,00 %
23.10.2017 15:58 8,8 C 10,6 C 85 % 1018,0 hPa 0,0 l/m 16,1 km/h (3 Bft) W 270 0 min 0,000 mm 0,0 UV-I 60 W/m 6,4 C 3,2 C 27,4 km/h (4 Bft) 100,00 %
23.10.2017 16:00 8,8 C 10,6 C 85 % 1018,1 hPa 0,0 l/m 11,8 km/h (2 Bft) W 263 0 min 0,000 mm 0,0 UV-I 64 W/m 6,4 C 5,2 C 22,5 km/h (4 Bft) 98,28 %
23.10.2017 16:02 8,8 C 10,6 C 85 % 1018,2 hPa 0,0 l/m 9,1 km/h (2 Bft) W 269 0 min 0,051 mm 0,0 UV-I 62 W/m 6,4 C 6,8 C 14,5 km/h (3 Bft) 100,00 %
23.10.2017 16:04 8,8 C 10,6 C 85 % 1018,1 hPa 0,0 l/m 14,4 km/h (3 Bft) W 279 0 min 0,000 mm 0,0 UV-I 60 W/m 6,4 C 4,0 C 22,5 km/h (4 Bft) 100,00 %
23.10.2017 16:06 8,8 C 10,6 C 85 % 1018,1 hPa 0,0 l/m 10,2 km/h (2 Bft) W 273 0 min 0,000 mm 0,0 UV-I 53 W/m 6,4 C 6,1 C 17,7 km/h (3 Bft) 100,00 %
23.10.2017 16:08 8,8 C 10,6 C 85 % 1018,1 hPa 0,0 l/m 10,9 km/h (2 Bft) SW 221 0 min 0,000 mm 0,0 UV-I 45 W/m 6,4 C 5,7 C 16,1 km/h (3 Bft) 100,00 %
23.10.2017 16:10 8,8 C 10,6 C 85 % 1018,1 hPa 0,0 l/m 10,9 km/h (2 Bft) W-SW 249 0 min 0,000 mm 0,0 UV-I 50 W/m 6,4 C 5,7 C 17,7 km/h (3 Bft) 97,87 %
23.10.2017 16:12 8,8 C 10,6 C 86 % 1018,2 hPa 0,0 l/m 10,4 km/h (2 Bft) W 262 0 min 0,000 mm 0,0 UV-I 41 W/m 6,6 C 6,0 C 16,1 km/h (3 Bft) 100,00 %
23.10.2017 16:14 8,8 C 10,6 C 86 % 1018,1 hPa 0,0 l/m 10,5 km/h (2 Bft) W 263 0 min 0,000 mm 0,0 UV-I 44 W/m 6,6 C 6,0 C 17,7 km/h (3 Bft) 100,00 %
23.10.2017 16:16 8,8 C 10,6 C 86 % 1018,2 hPa 0,0 l/m 7,7 km/h (2 Bft) W-SW 250 0 min 0,000 mm 0,0 UV-I 40 W/m 6,6 C 7,8 C 12,9 km/h (3 Bft) 97,37 %
23.10.2017 16:18 8,8 C 10,6 C 86 % 1018,2 hPa 0,0 l/m 11,3 km/h (2 Bft) W 275 0 min 0,000 mm 0,0 UV-I 43 W/m 6,6 C 5,5 C 19,3 km/h (3 Bft) 100,00 %
23.10.2017 16:20 8,8 C 10,6 C 86 % 1018,2 hPa 0,0 l/m 9,4 km/h (2 Bft) W-SW 254 0 min 0,000 mm 0,0 UV-I 47 W/m 6,6 C 6,6 C 16,1 km/h (3 Bft) 95,45 %
23.10.2017 16:22 8,8 C 10,6 C 86 % 1018,2 hPa 0,0 l/m 10,4 km/h (2 Bft) W 280 0 min 0,000 mm 0,0 UV-I 34 W/m 6,6 C 6,0 C 14,5 km/h (3 Bft) 98,11 %
23.10.2017 16:24 8,8 C 10,6 C 86 % 1018,2 hPa 0,0 l/m 9,5 km/h (2 Bft) W 261 0 min 0,000 mm 0,0 UV-I 24 W/m 6,6 C 6,6 C 16,1 km/h (3 Bft) 100,00 %
23.10.2017 16:26 8,9 C 10,6 C 86 % 1018,3 hPa 0,0 l/m 10,7 km/h (2 Bft) W 272 0 min 0,000 mm 0,0 UV-I 21 W/m 6,7 C 6,0 C 19,3 km/h (3 Bft) 97,56 %
23.10.2017 16:28 8,8 C 10,6 C 86 % 1018,3 hPa 0,0 l/m 9,8 km/h (2 Bft) W-SW 245 0 min 0,000 mm 0,0 UV-I 20 W/m 6,6 C 6,4 C 17,7 km/h (3 Bft) 98,31 %
23.10.2017 16:30 8,9 C 10,6 C 86 % 1018,3 hPa 0,0 l/m 13,9 km/h (3 Bft) W 259 0 min 0,000 mm 0,0 UV-I 15 W/m 6,7 C 4,3 C 25,7 km/h (4 Bft) 97,56 %
23.10.2017 16:32 8,9 C 10,6 C 85 % 1018,3 hPa 0,0 l/m 11,9 km/h (2 Bft) W 268 0 min 0,000 mm 0,0 UV-I 15 W/m 6,5 C 5,3 C 22,5 km/h (4 Bft) 96,00 %
23.10.2017 16:34 8,9 C 10,6 C 85 % 1018,3 hPa 0,0 l/m 13,0 km/h (3 Bft) W 264 0 min 0,000 mm 0,0 UV-I 20 W/m 6,5 C 4,7 C 25,7 km/h (4 Bft) 95,12 %
23.10.2017 16:36 8,9 C 10,6 C 85 % 1018,4 hPa 0,0 l/m 11,9 km/h (2 Bft) W 264 0 min 0,000 mm 0,0 UV-I 26 W/m 6,5 C 5,3 C 19,3 km/h (3 Bft) 98,21 %
23.10.2017 16:38 8,9 C 10,6 C 85 % 1018,4 hPa 0,0 l/m 10,4 km/h (2 Bft) W 272 0 min 0,000 mm 0,0 UV-I 24 W/m 6,5 C 6,1 C 17,7 km/h (3 Bft) 95,74 %
23.10.2017 16:40 9,0 C 10,6 C 85 % 1018,4 hPa 0,0 l/m 12,4 km/h (3 Bft) W-SW 253 0 min 0,000 mm 0,0 UV-I 24 W/m 6,6 C 5,2 C 22,5 km/h (4 Bft) 97,44 %
23.10.2017 16:42 9,0 C 10,6 C 84 % 1018,4 hPa 0,0 l/m 11,2 km/h (2 Bft) W-SW 258 0 min 0,000 mm 0,0 UV-I 19 W/m 6,4 C 5,8 C 17,7 km/h (3 Bft) 96,00 %
23.10.2017 16:44 9,0 C 10,6 C 84 % 1018,4 hPa 0,0 l/m 11,7 km/h (2 Bft) W-NW 291 0 min 0,000 mm 0,0 UV-I 18 W/m 6,4 C 5,5 C 20,9 km/h (4 Bft) 98,00 %
23.10.2017 16:46 9,0 C 10,6 C 84 % 1018,4 hPa 0,0 l/m 13,7 km/h (3 Bft) W 270 0 min 0,000 mm 0,0 UV-I 20 W/m 6,4 C 4,5 C 20,9 km/h (4 Bft) 97,37 %
23.10.2017 16:48 9,0 C 10,6 C 84 % 1018,4 hPa 0,0 l/m 18,4 km/h (3 Bft) W-NW 292 0 min 0,000 mm 0,0 UV-I 16 W/m 6,4 C 2,6 C 27,4 km/h (4 Bft) 97,56 %
23.10.2017 16:50 9,0 C 10,6 C 84 % 1018,5 hPa 0,0 l/m 14,1 km/h (3 Bft) W 275 0 min 0,000 mm 0,0 UV-I 15 W/m 6,4 C 4,3 C 22,5 km/h (4 Bft) 96,49 %
23.10.2017 16:52 9,0 C 10,6 C 83 % 1018,4 hPa 0,0 l/m 18,0 km/h (3 Bft) W 260 0 min 0,000 mm 0,0 UV-I 14 W/m 6,3 C 2,7 C 25,7 km/h (4 Bft) 98,11 %
23.10.2017 16:54 9,0 C 10,6 C 83 % 1018,5 hPa 0,0 l/m 16,0 km/h (3 Bft) W-SW 252 0 min 0,000 mm 0,0 UV-I 16 W/m 6,3 C 3,5 C 24,1 km/h (4 Bft) 94,74 %
23.10.2017 16:56 8,9 C 10,6 C 83 % 1018,5 hPa 0,0 l/m 19,2 km/h (3 Bft) W 263 0 min 0,000 mm 0,0 UV-I 19 W/m 6,2 C 2,1 C 27,4 km/h (4 Bft) 97,87 %
23.10.2017 16:58 8,9 C 10,6 C 83 % 1018,5 hPa 0,0 l/m 16,2 km/h (3 Bft) W 273 0 min 0,000 mm 0,0 UV-I 25 W/m 6,2 C 3,3 C 22,5 km/h (4 Bft) 100,00 %
23.10.2017 17:00 8,9 C 10,6 C 84 % 1018,5 hPa 0,0 l/m 18,6 km/h (3 Bft) W 261 0 min 0,025 mm 0,0 UV-I 24 W/m 6,3 C 2,4 C 27,4 km/h (4 Bft) 100,00 %
23.10.2017 17:02 8,9 C 10,6 C 83 % 1018,5 hPa 0,0 l/m 15,3 km/h (3 Bft) SW 236 0 min 0,000 mm 0,0 UV-I 21 W/m 6,2 C 3,7 C 27,4 km/h (4 Bft) 98,11 %
23.10.2017 17:04 8,9 C 10,6 C 84 % 1018,6 hPa 0,0 l/m 14,7 km/h (3 Bft) W-SW 255 0 min 0,000 mm 0,0 UV-I 17 W/m 6,3 C 3,9 C 20,9 km/h (4 Bft) 97,73 %
23.10.2017 17:06 8,9 C 10,6 C 84 % 1018,6 hPa 0,0 l/m 12,1 km/h (2 Bft) W-SW 254 0 min 0,000 mm 0,0 UV-I 16 W/m 6,3 C 5,2 C 20,9 km/h (4 Bft) 97,56 %
23.10.2017 17:08 8,9 C 10,6 C 84 % 1018,6 hPa 0,0 l/m 14,6 km/h (3 Bft) W 263 0 min 0,000 mm 0,0 UV-I 12 W/m 6,3 C 4,0 C 24,1 km/h (4 Bft) 100,00 %
23.10.2017 17:10 8,9 C 10,6 C 84 % 1018,6 hPa 0,0 l/m 12,4 km/h (3 Bft) W 274 0 min 0,000 mm 0,0 UV-I 12 W/m 6,3 C 5,0 C 25,7 km/h (4 Bft) 100,00 %
23.10.2017 17:12 8,8 C 10,6 C 84 % 1018,7 hPa 0,0 l/m 16,5 km/h (3 Bft) W 260 0 min 0,000 mm 0,0 UV-I 12 W/m 6,2 C 3,0 C 22,5 km/h (4 Bft) 100,00 %
23.10.2017 17:14 8,8 C 10,6 C 84 % 1018,7 hPa 0,0 l/m 15,4 km/h (3 Bft) W-NW 293 0 min 0,000 mm 0,0 UV-I 14 W/m 6,2 C 3,5 C 22,5 km/h (4 Bft) 100,00 %
23.10.2017 17:16 8,8 C 10,6 C 85 % 1018,7 hPa 0,0 l/m 15,4 km/h (3 Bft) N-NW 342 0 min 0,000 mm 0,0 UV-I 13 W/m 6,4 C 3,5 C 29,0 km/h (5 Bft) 100,00 %
23.10.2017 17:18 8,8 C 10,6 C 85 % 1018,7 hPa 0,0 l/m 11,4 km/h (2 Bft) W-SW 248 0 min 0,000 mm 0,0 UV-I 15 W/m 6,4 C 5,5 C 16,1 km/h (3 Bft) 100,00 %
23.10.2017 17:20 8,8 C 10,6 C 85 % 1018,7 hPa 0,0 l/m 15,2 km/h (3 Bft) W-SW 238 0 min 0,000 mm 0,0 UV-I 17 W/m 6,4 C 3,6 C 20,9 km/h (4 Bft) 96,23 %
23.10.2017 17:22 8,8 C 10,6 C 85 % 1018,7 hPa 0,0 l/m 15,3 km/h (3 Bft) W 269 0 min 0,000 mm 0,0 UV-I 18 W/m 6,4 C 3,5 C 20,9 km/h (4 Bft) 100,00 %
23.10.2017 17:24 8,8 C 10,6 C 86 % 1018,7 hPa 0,0 l/m 16,9 km/h (3 Bft) W 261 0 min 0,000 mm 0,0 UV-I 18 W/m 6,6 C 2,9 C 27,4 km/h (4 Bft) 100,00 %
23.10.2017 17:26 8,7 C 10,6 C 86 % 1018,7 hPa 0,0 l/m 17,1 km/h (3 Bft) SW 229 0 min 0,000 mm 0,0 UV-I 17 W/m 6,5 C 2,7 C 27,4 km/h (4 Bft) 100,00 %
23.10.2017 17:28 8,7 C 10,6 C 86 % 1018,8 hPa 0,0 l/m 16,8 km/h (3 Bft) W 259 0 min 0,000 mm 0,0 UV-I 15 W/m 6,5 C 2,8 C 30,6 km/h (5 Bft) 97,73 %
23.10.2017 17:30 8,7 C 10,6 C 86 % 1018,7 hPa 0,0 l/m 17,9 km/h (3 Bft) W-SW 250 0 min 0,000 mm 0,0 UV-I 14 W/m 6,5 C 2,4 C 25,7 km/h (4 Bft) 100,00 %
23.10.2017 17:32 8,7 C 10,6 C 86 % 1018,7 hPa 0,0 l/m 14,7 km/h (3 Bft) W-SW 242 0 min 0,000 mm 0,0 UV-I 14 W/m 6,5 C 3,7 C 24,1 km/h (4 Bft) 97,73 %
23.10.2017 17:34 8,7 C 10,6 C 86 % 1018,8 hPa 0,0 l/m 16,6 km/h (3 Bft) W 262 0 min 0,000 mm 0,0 UV-I 13 W/m 6,5 C 2,9 C 22,5 km/h (4 Bft) 95,74 %
23.10.2017 17:36 8,7 C 10,6 C 86 % 1018,8 hPa 0,0 l/m 16,4 km/h (3 Bft) W-SW 238 0 min 0,000 mm 0,0 UV-I 10 W/m 6,5 C 3,0 C 24,1 km/h (4 Bft) 100,00 %
23.10.2017 17:38 8,6 C 10,6 C 86 % 1018,7 hPa 0,0 l/m 14,7 km/h (3 Bft) SW 219 0 min 0,000 mm 0,0 UV-I 7 W/m 6,4 C 3,6 C 22,5 km/h (4 Bft) 100,00 %
23.10.2017 17:40 8,6 C 10,6 C 86 % 1018,7 hPa 0,0 l/m 21,1 km/h (4 Bft) W 261 0 min 0,000 mm 0,0 UV-I 9 W/m 6,4 C 1,1 C 30,6 km/h (5 Bft) 100,00 %
23.10.2017 17:42 8,6 C 10,6 C 86 % 1018,8 hPa 0,0 l/m 14,4 km/h (3 Bft) W-SW 242 0 min 0,000 mm 0,0 UV-I 8 W/m 6,4 C 3,7 C 24,1 km/h (4 Bft) 98,11 %
23.10.2017 17:44 8,6 C 10,6 C 86 % 1018,8 hPa 0,0 l/m 15,6 km/h (3 Bft) W 265 0 min 0,000 mm 0,0 UV-I 7 W/m 6,4 C 3,2 C 24,1 km/h (4 Bft) 100,00 %
23.10.2017 17:46 8,6 C 10,6 C 86 % 1018,8 hPa 0,0 l/m 17,9 km/h (3 Bft) W 270 0 min 0,000 mm 0,0 UV-I 7 W/m 6,4 C 2,2 C 27,4 km/h (4 Bft) 96,88 %
23.10.2017 17:48 8,6 C 10,6 C 86 % 1018,8 hPa 0,0 l/m 12,3 km/h (3 Bft) W-NW 287 0 min 0,000 mm 0,0 UV-I 7 W/m 6,4 C 4,7 C 22,5 km/h (4 Bft) 97,37 %
23.10.2017 17:50 8,6 C 10,6 C 87 % 1018,9 hPa 0,0 l/m 12,6 km/h (3 Bft) SW 224 0 min 0,000 mm 0,0 UV-I 6 W/m 6,6 C 4,6 C 22,5 km/h (4 Bft) 100,00 %
23.10.2017 17:52 8,6 C 10,6 C 86 % 1018,9 hPa 0,0 l/m 15,6 km/h (3 Bft) W-SW 253 0 min 0,000 mm 0,0 UV-I 7 W/m 6,4 C 3,2 C 20,9 km/h (4 Bft) 100,00 %
23.10.2017 17:54 8,6 C 10,6 C 86 % 1018,9 hPa 0,0 l/m 13,4 km/h (3 Bft) W 263 0 min 0,000 mm 0,0 UV-I 7 W/m 6,4 C 4,2 C 19,3 km/h (3 Bft) 95,45 %
23.10.2017 17:56 8,6 C 10,6 C 86 % 1018,9 hPa 0,0 l/m 13,2 km/h (3 Bft) W-SW 243 0 min 0,000 mm 0,0 UV-I 7 W/m 6,4 C 4,3 C 17,7 km/h (3 Bft) 100,00 %
23.10.2017 17:58 8,6 C 10,6 C 87 % 1018,9 hPa 0,0 l/m 17,4 km/h (3 Bft) W 267 0 min 0,000 mm 0,0 UV-I 7 W/m 6,6 C 2,4 C 29,0 km/h (5 Bft) 100,00 %
23.10.2017 18:00 8,6 C 10,6 C 86 % 1018,9 hPa 0,0 l/m 16,3 km/h (3 Bft) W 263 0 min 0,000 mm 0,0 UV-I 7 W/m 6,4 C 2,9 C 27,4 km/h (4 Bft) 100,00 %
23.10.2017 18:02 8,6 C 10,6 C 86 % 1019,0 hPa 0,0 l/m 16,9 km/h (3 Bft) W 273 0 min 0,026 mm 0,0 UV-I 7 W/m 6,4 C 2,6 C 24,1 km/h (4 Bft) 100,00 %
23.10.2017 18:04 8,6 C 10,6 C 86 % 1019,0 hPa 0,0 l/m 19,3 km/h (3 Bft) W-SW 257 0 min 0,000 mm 0,0 UV-I 6 W/m 6,4 C 1,7 C 30,6 km/h (5 Bft) 97,37 %
23.10.2017 18:06 8,6 C 10,6 C 86 % 1019,0 hPa 0,0 l/m 17,7 km/h (3 Bft) W-SW 254 0 min 0,000 mm 0,0 UV-I 5 W/m 6,4 C 2,3 C 27,4 km/h (4 Bft) 96,23 %
23.10.2017 18:08 8,5 C 10,6 C 86 % 1019,0 hPa 0,0 l/m 15,5 km/h (3 Bft) W-SW 247 0 min 0,000 mm 0,0 UV-I 5 W/m 6,3 C 3,1 C 27,4 km/h (4 Bft) 98,11 %
23.10.2017 18:10 8,5 C 10,6 C 86 % 1019,0 hPa 0,0 l/m 16,7 km/h (3 Bft) SW 228 0 min 0,000 mm 0,0 UV-I 5 W/m 6,3 C 2,6 C 25,7 km/h (4 Bft) 97,56 %
23.10.2017 18:12 8,5 C 10,6 C 86 % 1019,0 hPa 0,0 l/m 17,7 km/h (3 Bft) SW 220 0 min 0,000 mm 0,0 UV-I 3 W/m 6,3 C 2,2 C 27,4 km/h (4 Bft) 96,23 %
23.10.2017 18:14 8,5 C 10,6 C 86 % 1019,1 hPa 0,0 l/m 19,4 km/h (3 Bft) SW 234 0 min 0,000 mm 0,0 UV-I 0 W/m 6,3 C 1,6 C 25,7 km/h (4 Bft) 97,73 %
23.10.2017 18:16 8,5 C 10,6 C 87 % 1019,1 hPa 0,0 l/m 14,5 km/h (3 Bft) W 264 0 min 0,000 mm 0,0 UV-I 0 W/m 6,5 C 3,5 C 22,5 km/h (4 Bft) 97,56 %
23.10.2017 18:18 8,5 C 10,6 C 87 % 1019,1 hPa 0,0 l/m 17,0 km/h (3 Bft) W 259 0 min 0,000 mm 0,0 UV-I 0 W/m 6,5 C 2,5 C 25,7 km/h (4 Bft) 92,00 %
23.10.2017 18:20 8,5 C 10,6 C 87 % 1019,2 hPa 0,0 l/m 16,0 km/h (3 Bft) W-NW 283 0 min 0,000 mm 0,0 UV-I 0 W/m 6,5 C 2,9 C 24,1 km/h (4 Bft) 97,87 %
23.10.2017 18:22 8,4 C 10,6 C 87 % 1019,2 hPa 0,0 l/m 14,6 km/h (3 Bft) W 264 0 min 0,000 mm 0,0 UV-I 0 W/m 6,4 C 3,4 C 22,5 km/h (4 Bft) 97,87 %
23.10.2017 18:24 8,4 C 10,6 C 87 % 1019,2 hPa 0,0 l/m 17,7 km/h (3 Bft) W 264 0 min 0,000 mm 0,0 UV-I 0 W/m 6,4 C 2,1 C 25,7 km/h (4 Bft) 96,00 %
23.10.2017 18:26 8,4 C 10,6 C 87 % 1019,3 hPa 0,0 l/m 16,9 km/h (3 Bft) W-SW 254 0 min 0,000 mm 0,0 UV-I 0 W/m 6,4 C 2,4 C 24,1 km/h (4 Bft) 92,11 %
23.10.2017 18:28 8,4 C 10,6 C 87 % 1019,3 hPa 0,0 l/m 14,1 km/h (3 Bft) W-SW 251 0 min 0,000 mm 0,0 UV-I 0 W/m 6,4 C 3,6 C 19,3 km/h (3 Bft) 95,45 %
23.10.2017 18:30 8,4 C 10,6 C 88 % 1019,3 hPa 0,0 l/m 17,7 km/h (3 Bft) W-SW 249 0 min 0,000 mm 0,0 UV-I 0 W/m 6,5 C 2,1 C 27,4 km/h (4 Bft) 94,92 %
23.10.2017 18:32 8,4 C 10,6 C 88 % 1019,3 hPa 0,0 l/m 11,8 km/h (2 Bft) W-SW 244 0 min 0,000 mm 0,0 UV-I 0 W/m 6,5 C 4,8 C 19,3 km/h (3 Bft) 97,56 %
23.10.2017 18:34 8,3 C 10,6 C 88 % 1019,3 hPa 0,0 l/m 14,0 km/h (3 Bft) W-SW 249 0 min 0,000 mm 0,0 UV-I 0 W/m 6,4 C 3,5 C 24,1 km/h (4 Bft) 94,00 %
23.10.2017 18:36 8,3 C 10,6 C 88 % 1019,4 hPa 0,0 l/m 12,0 km/h (2 Bft) W 262 0 min 0,000 mm 0,0 UV-I 0 W/m 6,4 C 4,6 C 19,3 km/h (3 Bft) 94,44 %
23.10.2017 18:38 8,3 C 10,6 C 88 % 1019,4 hPa 0,0 l/m 15,3 km/h (3 Bft) W 269 0 min 0,000 mm 0,0 UV-I 0 W/m 6,4 C 2,9 C 25,7 km/h (4 Bft) 96,23 %
23.10.2017 18:40 8,3 C 10,6 C 89 % 1019,4 hPa 0,0 l/m 12,8 km/h (3 Bft) W-SW 242 0 min 0,000 mm 0,0 UV-I 0 W/m 6,6 C 4,1 C 22,5 km/h (4 Bft) 94,64 %
23.10.2017 18:42 8,3 C 10,6 C 89 % 1019,4 hPa 0,0 l/m 13,2 km/h (3 Bft) W-SW 244 0 min 0,000 mm 0,0 UV-I 0 W/m 6,6 C 3,9 C 19,3 km/h (3 Bft) 92,68 %
23.10.2017 18:44 8,3 C 10,6 C 89 % 1019,4 hPa 0,0 l/m 13,3 km/h (3 Bft) W-SW 246 0 min 0,000 mm 0,0 UV-I 0 W/m 6,6 C 3,9 C 20,9 km/h (4 Bft) 95,45 %
23.10.2017 18:46 8,3 C 10,6 C 89 % 1019,4 hPa 0,0 l/m 11,6 km/h (2 Bft) W 261 0 min 0,000 mm 0,0 UV-I 0 W/m 6,6 C 4,8 C 17,7 km/h (3 Bft) 96,00 %
23.10.2017 18:48 8,3 C 10,6 C 89 % 1019,4 hPa 0,0 l/m 13,4 km/h (3 Bft) W-SW 250 0 min 0,000 mm 0,0 UV-I 0 W/m 6,6 C 3,8 C 17,7 km/h (3 Bft) 95,12 %
23.10.2017 18:50 8,3 C 10,6 C 89 % 1019,4 hPa 0,0 l/m 13,4 km/h (3 Bft) W-SW 249 0 min 0,000 mm 0,0 UV-I 0 W/m 6,6 C 3,8 C 24,1 km/h (4 Bft) 95,74 %
23.10.2017 18:52 8,3 C 10,6 C 89 % 1019,5 hPa 0,0 l/m 13,9 km/h (3 Bft) W-SW 253 0 min 0,000 mm 0,0 UV-I 0 W/m 6,6 C 3,6 C 19,3 km/h (3 Bft) 94,00 %
23.10.2017 18:54 8,3 C 10,6 C 89 % 1019,4 hPa 0,0 l/m 13,0 km/h (3 Bft) S-SW 210 0 min 0,000 mm 0,0 UV-I 0 W/m 6,6 C 4,0 C 22,5 km/h (4 Bft) 96,00 %
23.10.2017 18:56 8,3 C 10,6 C 89 % 1019,5 hPa 0,0 l/m 18,2 km/h (3 Bft) W 267 0 min 0,000 mm 0,0 UV-I 0 W/m 6,6 C 1,7 C 24,1 km/h (4 Bft) 95,12 %
23.10.2017 18:58 8,3 C 10,6 C 89 % 1019,5 hPa 0,0 l/m 16,1 km/h (3 Bft) W-SW 243 0 min 0,000 mm 0,0 UV-I 0 W/m 6,6 C 2,6 C 27,4 km/h (4 Bft) 98,21 %
23.10.2017 19:00 8,3 C 10,6 C 88 % 1019,6 hPa 0,0 l/m 13,2 km/h (3 Bft) W-SW 256 0 min 0,025 mm 0,0 UV-I 0 W/m 6,4 C 3,9 C 27,4 km/h (4 Bft) 97,37 %
23.10.2017 19:02 8,3 C 10,6 C 89 % 1019,7 hPa 0,0 l/m 9,1 km/h (2 Bft) SW 232 0 min 0,000 mm 0,0 UV-I 0 W/m 6,6 C 6,3 C 16,1 km/h (3 Bft) 98,00 %
23.10.2017 19:04 8,3 C 10,6 C 88 % 1019,7 hPa 0,0 l/m 12,6 km/h (3 Bft) W 273 0 min 0,000 mm 0,0 UV-I 0 W/m 6,4 C 4,2 C 20,9 km/h (4 Bft) 96,00 %
23.10.2017 19:06 8,3 C 10,6 C 88 % 1019,7 hPa 0,0 l/m 14,5 km/h (3 Bft) W 273 0 min 0,000 mm 0,0 UV-I 0 W/m 6,4 C 3,3 C 24,1 km/h (4 Bft) 97,37 %
23.10.2017 19:08 8,3 C 10,6 C 88 % 1019,7 hPa 0,0 l/m 9,0 km/h (2 Bft) W 277 0 min 0,000 mm 0,0 UV-I 0 W/m 6,4 C 6,4 C 14,5 km/h (3 Bft) 96,23 %
23.10.2017 19:10 8,3 C 10,6 C 88 % 1019,7 hPa 0,0 l/m 9,7 km/h (2 Bft) W-SW 252 0 min 0,000 mm 0,0 UV-I 0 W/m 6,4 C 5,9 C 16,1 km/h (3 Bft) 96,00 %
23.10.2017 19:12 8,3 C 10,6 C 88 % 1019,7 hPa 0,0 l/m 16,0 km/h (3 Bft) W 275 0 min 0,000 mm 0,0 UV-I 0 W/m 6,4 C 2,6 C 22,5 km/h (4 Bft) 100,00 %
23.10.2017 19:14 8,4 C 10,6 C 88 % 1019,7 hPa 0,0 l/m 12,4 km/h (3 Bft) W-NW 289 0 min 0,000 mm 0,0 UV-I 0 W/m 6,5 C 4,5 C 19,3 km/h (3 Bft) 100,00 %
23.10.2017 19:16 8,4 C 10,6 C 88 % 1019,7 hPa 0,0 l/m 12,5 km/h (3 Bft) W 270 0 min 0,000 mm 0,0 UV-I 0 W/m 6,5 C 4,4 C 22,5 km/h (4 Bft) 97,73 %
23.10.2017 19:18 8,4 C 10,6 C 88 % 1019,8 hPa 0,0 l/m 10,1 km/h (2 Bft) W-SW 240 0 min 0,000 mm 0,0 UV-I 0 W/m 6,5 C 5,8 C 17,7 km/h (3 Bft) 100,00 %
23.10.2017 19:20 8,4 C 10,6 C 88 % 1019,8 hPa 0,0 l/m 10,9 km/h (2 Bft) W 269 0 min 0,000 mm 0,0 UV-I 0 W/m 6,5 C 5,3 C 19,3 km/h (3 Bft) 100,00 %
23.10.2017 19:22 8,4 C 10,6 C 88 % 1019,8 hPa 0,0 l/m 9,3 km/h (2 Bft) W-SW 252 0 min 0,000 mm 0,0 UV-I 0 W/m 6,5 C 6,3 C 16,1 km/h (3 Bft) 98,00 %
23.10.2017 19:24 8,4 C 10,6 C 88 % 1019,8 hPa 0,0 l/m 11,2 km/h (2 Bft) W-SW 257 0 min 0,000 mm 0,0 UV-I 0 W/m 6,5 C 5,1 C 17,7 km/h (3 Bft) 100,00 %
23.10.2017 19:26 8,4 C 10,6 C 88 % 1019,9 hPa 0,0 l/m 8,7 km/h (2 Bft) W 259 0 min 0,000 mm 0,0 UV-I 0 W/m 6,5 C 6,7 C 19,3 km/h (3 Bft) 100,00 %
23.10.2017 19:28 8,4 C 10,6 C 87 % 1019,9 hPa 0,0 l/m 12,3 km/h (3 Bft) W-SW 250 0 min 0,000 mm 0,0 UV-I 0 W/m 6,4 C 4,5 C 19,3 km/h (3 Bft) 97,56 %
23.10.2017 19:30 8,4 C 10,6 C 87 % 1019,9 hPa 0,0 l/m 8,6 km/h (2 Bft) W 259 0 min 0,000 mm 0,0 UV-I 0 W/m 6,4 C 6,7 C 12,9 km/h (3 Bft) 97,56 %
23.10.2017 19:32 8,4 C 10,6 C 87 % 1019,9 hPa 0,0 l/m 9,9 km/h (2 Bft) W 259 0 min 0,000 mm 0,0 UV-I 0 W/m 6,4 C 5,9 C 14,5 km/h (3 Bft) 98,00 %
23.10.2017 19:34 8,4 C 10,6 C 87 % 1019,9 hPa 0,0 l/m 12,4 km/h (3 Bft) W 266 0 min 0,000 mm 0,0 UV-I 0 W/m 6,4 C 4,5 C 19,3 km/h (3 Bft) 100,00 %
23.10.2017 19:36 8,4 C 10,6 C 87 % 1020,0 hPa 0,0 l/m 10,9 km/h (2 Bft) W-SW 241 0 min 0,000 mm 0,0 UV-I 0 W/m 6,4 C 5,3 C 20,9 km/h (4 Bft) 100,00 %
23.10.2017 19:38 8,4 C 10,6 C 87 % 1020,0 hPa 0,0 l/m 13,4 km/h (3 Bft) W-SW 242 0 min 0,000 mm 0,0 UV-I 0 W/m 6,4 C 3,9 C 17,7 km/h (3 Bft) 100,00 %
23.10.2017 19:40 8,5 C 10,6 C 87 % 1020,1 hPa 0,0 l/m 13,0 km/h (3 Bft) W 266 0 min 0,000 mm 0,0 UV-I 0 W/m 6,5 C 4,3 C 19,3 km/h (3 Bft) 97,73 %
23.10.2017 19:43 8,5 C 10,6 C 87 % 1020,1 hPa 0,0 l/m 15,0 km/h (3 Bft) W 273 0 min 0,000 mm 0,0 UV-I 0 W/m 6,5 C 3,3 C 22,5 km/h (4 Bft) 100,00 %
23.10.2017 19:44 8,5 C 10,6 C 87 % 1020,1 hPa 0,0 l/m 13,3 km/h (3 Bft) W 281 0 min 0,000 mm 0,0 UV-I 0 W/m 6,5 C 4,1 C 17,7 km/h (3 Bft) 100,00 %
23.10.2017 19:46 8,5 C 10,6 C 87 % 1020,1 hPa 0,0 l/m 12,8 km/h (3 Bft) W 261 0 min 0,000 mm 0,0 UV-I 0 W/m 6,5 C 4,4 C 20,9 km/h (4 Bft) 100,00 %
23.10.2017 19:48 8,5 C 10,6 C 87 % 1020,1 hPa 0,0 l/m 10,9 km/h (2 Bft) W 267 0 min 0,000 mm 0,0 UV-I 0 W/m 6,5 C 5,4 C 17,7 km/h (3 Bft) 100,00 %
23.10.2017 19:50 8,6 C 10,6 C 86 % 1020,1 hPa 0,0 l/m 11,3 km/h (2 Bft) W 259 0 min 0,000 mm 0,0 UV-I 0 W/m 6,4 C 5,3 C 17,7 km/h (3 Bft) 100,00 %
23.10.2017 19:52 8,6 C 10,6 C 86 % 1020,1 hPa 0,0 l/m 12,4 km/h (3 Bft) W-NW 292 0 min 0,000 mm 0,0 UV-I 0 W/m 6,4 C 4,7 C 22,5 km/h (4 Bft) 100,00 %
23.10.2017 19:54 8,6 C 10,6 C 86 % 1020,2 hPa 0,0 l/m 11,5 km/h (2 Bft) W-SW 250 0 min 0,000 mm 0,0 UV-I 0 W/m 6,4 C 5,2 C 20,9 km/h (4 Bft) 98,00 %
23.10.2017 19:56 8,6 C 10,6 C 86 % 1020,1 hPa 0,0 l/m 9,7 km/h (2 Bft) W-SW 255 0 min 0,000 mm 0,0 UV-I 0 W/m 6,4 C 6,2 C 19,3 km/h (3 Bft) 100,00 %
23.10.2017 19:58 8,6 C 10,6 C 86 % 1020,2 hPa 0,0 l/m 13,6 km/h (3 Bft) W 274 0 min 0,000 mm 0,0 UV-I 0 W/m 6,4 C 4,1 C 20,9 km/h (4 Bft) 100,00 %
23.10.2017 20:00 8,6 C 10,6 C 86 % 1020,3 hPa 0,0 l/m 9,5 km/h (2 Bft) W 270 0 min 0,000 mm 0,0 UV-I 0 W/m 6,4 C 6,4 C 24,1 km/h (4 Bft) 100,00 %
23.10.2017 20:02 8,6 C 10,6 C 86 % 1020,2 hPa 0,0 l/m 10,6 km/h (2 Bft) W 263 0 min 0,026 mm 0,0 UV-I 0 W/m 6,4 C 5,7 C 16,1 km/h (3 Bft) 100,00 %
23.10.2017 20:04 8,6 C 10,6 C 86 % 1020,3 hPa 0,0 l/m 12,2 km/h (2 Bft) W-SW 256 0 min 0,000 mm 0,0 UV-I 0 W/m 6,4 C 4,8 C 17,7 km/h (3 Bft) 97,87 %
23.10.2017 20:06 8,6 C 10,6 C 85 % 1020,4 hPa 0,0 l/m 10,2 km/h (2 Bft) W-SW 253 0 min 0,000 mm 0,0 UV-I 0 W/m 6,2 C 5,9 C 17,7 km/h (3 Bft) 98,00 %
23.10.2017 20:08 8,7 C 10,6 C 85 % 1020,4 hPa 0,0 l/m 14,6 km/h (3 Bft) W 259 0 min 0,000 mm 0,0 UV-I 0 W/m 6,3 C 3,7 C 24,1 km/h (4 Bft) 100,00 %
23.10.2017 20:10 8,7 C 10,6 C 85 % 1020,4 hPa 0,0 l/m 13,2 km/h (3 Bft) W-SW 250 0 min 0,000 mm 0,0 UV-I 0 W/m 6,3 C 4,4 C 22,5 km/h (4 Bft) 100,00 %
23.10.2017 20:12 8,7 C 10,6 C 85 % 1020,4 hPa 0,0 l/m 15,0 km/h (3 Bft) W-SW 258 0 min 0,000 mm 0,0 UV-I 0 W/m 6,3 C 3,6 C 22,5 km/h (4 Bft) 96,23 %
23.10.2017 20:14 8,7 C 10,6 C 85 % 1020,4 hPa 0,0 l/m 10,6 km/h (2 Bft) W 267 0 min 0,000 mm 0,0 UV-I 0 W/m 6,3 C 5,8 C 20,9 km/h (4 Bft) 100,00 %
23.10.2017 20:16 8,7 C 10,6 C 85 % 1020,4 hPa 0,0 l/m 8,8 km/h (2 Bft) W-SW 257 0 min 0,000 mm 0,0 UV-I 0 W/m 6,3 C 6,9 C 14,5 km/h (3 Bft) 100,00 %
23.10.2017 20:18 8,7 C 10,6 C 85 % 1020,5 hPa 0,0 l/m 10,6 km/h (2 Bft) W 265 0 min 0,000 mm 0,0 UV-I 0 W/m 6,3 C 5,8 C 17,7 km/h (3 Bft) 100,00 %
23.10.2017 20:20 8,7 C 10,6 C 85 % 1020,5 hPa 0,0 l/m 12,9 km/h (3 Bft) W 268 0 min 0,000 mm 0,0 UV-I 0 W/m 6,3 C 4,6 C 22,5 km/h (4 Bft) 100,00 %
23.10.2017 20:22 8,7 C 10,6 C 85 % 1020,5 hPa 0,0 l/m 8,9 km/h (2 Bft) W 263 0 min 0,000 mm 0,0 UV-I 0 W/m 6,3 C 6,9 C 20,9 km/h (4 Bft) 97,87 %
23.10.2017 20:24 8,7 C 10,6 C 85 % 1020,5 hPa 0,0 l/m 11,4 km/h (2 Bft) W-SW 251 0 min 0,000 mm 0,0 UV-I 0 W/m 6,3 C 5,3 C 19,3 km/h (3 Bft) 100,00 %
23.10.2017 20:26 8,7 C 10,6 C 85 % 1020,6 hPa 0,0 l/m 11,9 km/h (2 Bft) W-SW 253 0 min 0,000 mm 0,0 UV-I 0 W/m 6,3 C 5,1 C 17,7 km/h (3 Bft) 94,34 %
23.10.2017 20:28 8,7 C 10,6 C 85 % 1020,5 hPa 0,0 l/m 11,2 km/h (2 Bft) W-SW 245 0 min 0,000 mm 0,0 UV-I 0 W/m 6,3 C 5,5 C 22,5 km/h (4 Bft) 97,73 %
23.10.2017 20:30 8,7 C 10,6 C 85 % 1020,5 hPa 0,0 l/m 13,9 km/h (3 Bft) W-SW 248 0 min 0,000 mm 0,0 UV-I 0 W/m 6,3 C 4,1 C 24,1 km/h (4 Bft) 98,11 %
23.10.2017 20:32 8,7 C 10,6 C 85 % 1020,5 hPa 0,0 l/m 10,2 km/h (2 Bft) W-SW 257 0 min 0,000 mm 0,0 UV-I 0 W/m 6,3 C 6,0 C 14,5 km/h (3 Bft) 95,83 %
23.10.2017 20:34 8,7 C 10,6 C 85 % 1020,6 hPa 0,0 l/m 9,7 km/h (2 Bft) W-SW 240 0 min 0,000 mm 0,0 UV-I 0 W/m 6,3 C 6,3 C 22,5 km/h (4 Bft) 96,88 %
23.10.2017 20:36 8,7 C 10,6 C 85 % 1020,6 hPa 0,0 l/m 14,7 km/h (3 Bft) SW 231 0 min 0,000 mm 0,0 UV-I 0 W/m 6,3 C 3,7 C 19,3 km/h (3 Bft) 100,00 %
23.10.2017 20:38 8,7 C 10,6 C 85 % 1020,6 hPa 0,0 l/m 11,0 km/h (2 Bft) SW 232 0 min 0,000 mm 0,0 UV-I 0 W/m 6,3 C 5,6 C 16,1 km/h (3 Bft) 94,64 %
23.10.2017 20:40 8,7 C 10,6 C 85 % 1020,6 hPa 0,0 l/m 13,1 km/h (3 Bft) W 266 0 min 0,000 mm 0,0 UV-I 0 W/m 6,3 C 4,5 C 19,3 km/h (3 Bft) 94,74 %
23.10.2017 20:42 8,7 C 10,6 C 85 % 1020,7 hPa 0,0 l/m 14,4 km/h (3 Bft) W 273 0 min 0,000 mm 0,0 UV-I 0 W/m 6,3 C 3,8 C 17,7 km/h (3 Bft) 98,31 %
23.10.2017 20:44 8,7 C 10,6 C 85 % 1020,7 hPa 0,0 l/m 11,2 km/h (2 Bft) W 269 0 min 0,000 mm 0,0 UV-I 0 W/m 6,3 C 5,5 C 17,7 km/h (3 Bft) 97,73 %
23.10.2017 20:46 8,7 C 10,6 C 85 % 1020,7 hPa 0,0 l/m 11,9 km/h (2 Bft) W-NW 290 0 min 0,000 mm 0,0 UV-I 0 W/m 6,3 C 5,1 C 20,9 km/h (4 Bft) 97,73 %
23.10.2017 20:48 8,7 C 10,6 C 85 % 1020,7 hPa 0,0 l/m 9,9 km/h (2 Bft) SW 215 0 min 0,000 mm 0,0 UV-I 0 W/m 6,3 C 6,2 C 16,1 km/h (3 Bft) 98,00 %
23.10.2017 20:50 8,7 C 10,6 C 85 % 1020,7 hPa 0,0 l/m 10,1 km/h (2 Bft) W 261 0 min 0,000 mm 0,0 UV-I 0 W/m 6,3 C 6,1 C 17,7 km/h (3 Bft) 97,73 %
23.10.2017 20:52 8,7 C 10,6 C 85 % 1020,7 hPa 0,0 l/m 11,9 km/h (2 Bft) W-SW 258 0 min 0,000 mm 0,0 UV-I 0 W/m 6,3 C 5,1 C 14,5 km/h (3 Bft) 96,00 %
23.10.2017 20:54 8,7 C 10,6 C 85 % 1020,8 hPa 0,0 l/m 10,6 km/h (2 Bft) W 277 0 min 0,000 mm 0,0 UV-I 0 W/m 6,3 C 5,8 C 20,9 km/h (4 Bft) 97,56 %
23.10.2017 20:56 8,7 C 10,6 C 85 % 1020,8 hPa 0,0 l/m 14,7 km/h (3 Bft) W-SW 248 0 min 0,000 mm 0,0 UV-I 0 W/m 6,3 C 3,7 C 25,7 km/h (4 Bft) 97,73 %
23.10.2017 20:58 8,7 C 10,6 C 85 % 1020,8 hPa 0,0 l/m 12,3 km/h (3 Bft) W-NW 300 0 min 0,000 mm 0,0 UV-I 0 W/m 6,3 C 4,9 C 17,7 km/h (3 Bft) 95,12 %
23.10.2017 21:00 8,7 C 10,6 C 85 % 1020,8 hPa 0,0 l/m 13,9 km/h (3 Bft) SW 236 0 min 0,000 mm 0,0 UV-I 0 W/m 6,3 C 4,1 C 25,7 km/h (4 Bft) 100,00 %
23.10.2017 21:02 8,7 C 10,6 C 85 % 1020,8 hPa 0,0 l/m 15,1 km/h (3 Bft) W 269 0 min 0,025 mm 0,0 UV-I 0 W/m 6,3 C 3,5 C 25,7 km/h (4 Bft) 100,00 %
23.10.2017 21:04 8,7 C 10,6 C 85 % 1020,9 hPa 0,0 l/m 12,7 km/h (3 Bft) W-SW 240 0 min 0,000 mm 0,0 UV-I 0 W/m 6,3 C 4,7 C 17,7 km/h (3 Bft) 100,00 %
23.10.2017 21:06 8,7 C 10,6 C 85 % 1021,0 hPa 0,0 l/m 13,0 km/h (3 Bft) W-SW 245 0 min 0,000 mm 0,0 UV-I 0 W/m 6,3 C 4,5 C 19,3 km/h (3 Bft) 100,00 %
23.10.2017 21:08 8,8 C 10,6 C 87 % 1021,0 hPa 0,0 l/m 13,6 km/h (3 Bft) W 261 0 min 0,000 mm 0,0 UV-I 0 W/m 6,8 C 4,3 C 17,7 km/h (3 Bft) 100,00 %
23.10.2017 21:10 8,9 C 10,6 C 87 % 1021,0 hPa 0,0 l/m 12,0 km/h (2 Bft) W-SW 250 0 min 0,000 mm 0,0 UV-I 0 W/m 6,9 C 5,2 C 17,7 km/h (3 Bft) 100,00 %
23.10.2017 21:12 8,8 C 10,6 C 86 % 1021,0 hPa 0,0 l/m 12,7 km/h (3 Bft) W 262 0 min 0,000 mm 0,0 UV-I 0 W/m 6,6 C 4,8 C 19,3 km/h (3 Bft) 98,11 %
23.10.2017 21:14 8,8 C 10,6 C 85 % 1021,1 hPa 0,0 l/m 12,1 km/h (2 Bft) W 263 0 min 0,000 mm 0,0 UV-I 0 W/m 6,4 C 5,1 C 22,5 km/h (4 Bft) 100,00 %
23.10.2017 21:16 8,8 C 10,6 C 85 % 1021,1 hPa 0,0 l/m 8,9 km/h (2 Bft) W 264 0 min 0,000 mm 0,0 UV-I 0 W/m 6,4 C 7,0 C 14,5 km/h (3 Bft) 100,00 %
23.10.2017 21:18 8,7 C 10,6 C 85 % 1021,0 hPa 0,0 l/m 14,6 km/h (3 Bft) W 264 0 min 0,000 mm 0,0 UV-I 0 W/m 6,3 C 3,7 C 27,4 km/h (4 Bft) 100,00 %
23.10.2017 21:20 8,7 C 10,6 C 85 % 1021,0 hPa 0,0 l/m 13,1 km/h (3 Bft) W 279 0 min 0,000 mm 0,0 UV-I 0 W/m 6,3 C 4,5 C 22,5 km/h (4 Bft) 100,00 %
23.10.2017 21:22 8,7 C 10,6 C 85 % 1021,0 hPa 0,0 l/m 11,5 km/h (2 Bft) W-SW 246 0 min 0,000 mm 0,0 UV-I 0 W/m 6,3 C 5,3 C 16,1 km/h (3 Bft) 98,11 %
23.10.2017 21:24 8,7 C 10,6 C 85 % 1021,0 hPa 0,0 l/m 11,3 km/h (2 Bft) W-NW 286 0 min 0,000 mm 0,0 UV-I 0 W/m 6,3 C 5,4 C 19,3 km/h (3 Bft) 100,00 %
23.10.2017 21:26 8,7 C 10,6 C 85 % 1021,1 hPa 0,0 l/m 16,0 km/h (3 Bft) W-SW 247 0 min 0,000 mm 0,0 UV-I 0 W/m 6,3 C 3,1 C 24,1 km/h (4 Bft) 97,56 %
23.10.2017 21:28 8,7 C 10,6 C 85 % 1021,0 hPa 0,0 l/m 16,8 km/h (3 Bft) W-SW 244 0 min 0,000 mm 0,0 UV-I 0 W/m 6,3 C 2,8 C 25,7 km/h (4 Bft) 100,00 %
23.10.2017 21:30 8,7 C 10,6 C 85 % 1021,1 hPa 0,0 l/m 17,9 km/h (3 Bft) W 270 0 min 0,000 mm 0,0 UV-I 0 W/m 6,3 C 2,4 C 29,0 km/h (5 Bft) 100,00 %
23.10.2017 21:32 8,7 C 10,6 C 85 % 1021,1 hPa 0,0 l/m 15,4 km/h (3 Bft) W-SW 251 0 min 0,000 mm 0,0 UV-I 0 W/m 6,3 C 3,4 C 27,4 km/h (4 Bft) 100,00 %
23.10.2017 21:34 8,7 C 10,6 C 85 % 1021,1 hPa 0,0 l/m 15,4 km/h (3 Bft) W-NW 290 0 min 0,000 mm 0,0 UV-I 0 W/m 6,3 C 3,4 C 20,9 km/h (4 Bft) 100,00 %
23.10.2017 21:36 8,7 C 10,6 C 85 % 1021,2 hPa 0,0 l/m 17,8 km/h (3 Bft) W-SW 257 0 min 0,000 mm 0,0 UV-I 0 W/m 6,3 C 2,4 C 27,4 km/h (4 Bft) 100,00 %
23.10.2017 21:38 8,7 C 10,6 C 85 % 1021,2 hPa 0,0 l/m 12,0 km/h (2 Bft) W-SW 246 0 min 0,000 mm 0,0 UV-I 0 W/m 6,3 C 5,0 C 17,7 km/h (3 Bft) 100,00 %
23.10.2017 21:40 8,7 C 10,6 C 85 % 1021,1 hPa 0,0 l/m 19,4 km/h (3 Bft) W 275 0 min 0,000 mm 0,0 UV-I 0 W/m 6,3 C 1,8 C 32,2 km/h (5 Bft) 100,00 %
23.10.2017 21:42 8,7 C 10,6 C 85 % 1021,1 hPa 0,0 l/m 16,5 km/h (3 Bft) W-SW 246 0 min 0,000 mm 0,0 UV-I 0 W/m 6,3 C 2,9 C 27,4 km/h (4 Bft) 98,00 %
23.10.2017 21:44 8,7 C 10,6 C 85 % 1021,1 hPa 0,0 l/m 15,5 km/h (3 Bft) W-SW 237 0 min 0,000 mm 0,0 UV-I 0 W/m 6,3 C 3,3 C 20,9 km/h (4 Bft) 100,00 %
23.10.2017 21:46 8,7 C 10,6 C 85 % 1021,2 hPa 0,0 l/m 14,9 km/h (3 Bft) W-NW 303 0 min 0,000 mm 0,0 UV-I 0 W/m 6,3 C 3,6 C 24,1 km/h (4 Bft) 100,00 %
23.10.2017 21:48 8,7 C 10,6 C 86 % 1021,2 hPa 0,0 l/m 16,3 km/h (3 Bft) W-SW 244 0 min 0,000 mm 0,0 UV-I 0 W/m 6,5 C 3,0 C 33,8 km/h (5 Bft) 97,87 %
23.10.2017 21:50 8,6 C 10,6 C 86 % 1021,2 hPa 0,0 l/m 18,0 km/h (3 Bft) W-SW 241 0 min 0,000 mm 0,0 UV-I 0 W/m 6,4 C 2,2 C 27,4 km/h (4 Bft) 98,00 %
23.10.2017 21:52 8,6 C 10,6 C 86 % 1021,2 hPa 0,0 l/m 14,8 km/h (3 Bft) W 261 0 min 0,000 mm 0,0 UV-I 0 W/m 6,4 C 3,5 C 22,5 km/h (4 Bft) 97,56 %
23.10.2017 21:54 8,6 C 10,6 C 86 % 1021,2 hPa 0,0 l/m 14,8 km/h (3 Bft) W 267 0 min 0,000 mm 0,0 UV-I 0 W/m 6,4 C 3,5 C 24,1 km/h (4 Bft) 100,00 %
23.10.2017 21:56 8,6 C 10,6 C 86 % 1021,2 hPa 0,0 l/m 16,0 km/h (3 Bft) W 259 0 min 0,000 mm 0,0 UV-I 0 W/m 6,4 C 3,0 C 22,5 km/h (4 Bft) 100,00 %
23.10.2017 21:58 8,6 C 10,6 C 86 % 1021,2 hPa 0,0 l/m 14,8 km/h (3 Bft) W 272 0 min 0,000 mm 0,0 UV-I 0 W/m 6,4 C 3,5 C 25,7 km/h (4 Bft) 98,00 %
23.10.2017 22:00 8,6 C 10,6 C 86 % 1021,2 hPa 0,0 l/m 16,5 km/h (3 Bft) W-SW 248 0 min 0,025 mm 0,0 UV-I 0 W/m 6,4 C 2,8 C 25,7 km/h (4 Bft) 100,00 %
23.10.2017 22:02 8,6 C 10,6 C 86 % 1021,2 hPa 0,0 l/m 16,5 km/h (3 Bft) W-SW 258 0 min 0,000 mm 0,0 UV-I 0 W/m 6,4 C 2,8 C 27,4 km/h (4 Bft) 98,00 %
23.10.2017 22:04 8,6 C 10,6 C 86 % 1021,2 hPa 0,0 l/m 16,1 km/h (3 Bft) W-SW 250 0 min 0,000 mm 0,0 UV-I 0 W/m 6,4 C 3,0 C 25,7 km/h (4 Bft) 94,74 %
23.10.2017 22:06 8,6 C 10,6 C 86 % 1021,3 hPa 0,0 l/m 15,1 km/h (3 Bft) W-NW 284 0 min 0,000 mm 0,0 UV-I 0 W/m 6,4 C 3,4 C 22,5 km/h (4 Bft) 98,31 %
23.10.2017 22:08 8,6 C 10,6 C 86 % 1021,2 hPa 0,0 l/m 19,4 km/h (3 Bft) W-SW 249 0 min 0,000 mm 0,0 UV-I 0 W/m 6,4 C 1,7 C 27,4 km/h (4 Bft) 97,56 %
23.10.2017 22:10 8,5 C 10,6 C 86 % 1021,3 hPa 0,0 l/m 16,7 km/h (3 Bft) W 267 0 min 0,000 mm 0,0 UV-I 0 W/m 6,3 C 2,6 C 24,1 km/h (4 Bft) 98,00 %
23.10.2017 22:12 8,6 C 10,6 C 86 % 1021,3 hPa 0,0 l/m 13,7 km/h (3 Bft) W-SW 252 0 min 0,000 mm 0,0 UV-I 0 W/m 6,4 C 4,0 C 19,3 km/h (3 Bft) 97,37 %
23.10.2017 22:14 8,5 C 10,6 C 86 % 1021,3 hPa 0,0 l/m 13,7 km/h (3 Bft) W-SW 257 0 min 0,000 mm 0,0 UV-I 0 W/m 6,3 C 3,9 C 17,7 km/h (3 Bft) 98,00 %
23.10.2017 22:16 8,6 C 10,6 C 86 % 1021,3 hPa 0,0 l/m 14,7 km/h (3 Bft) W 269 0 min 0,000 mm 0,0 UV-I 0 W/m 6,4 C 3,6 C 19,3 km/h (3 Bft) 93,62 %
23.10.2017 22:18 8,5 C 10,6 C 86 % 1021,4 hPa 0,0 l/m 13,9 km/h (3 Bft) W-SW 251 0 min 0,000 mm 0,0 UV-I 0 W/m 6,3 C 3,8 C 22,5 km/h (4 Bft) 98,21 %
23.10.2017 22:20 8,5 C 10,6 C 86 % 1021,3 hPa 0,0 l/m 13,4 km/h (3 Bft) SW 229 0 min 0,000 mm 0,0 UV-I 0 W/m 6,3 C 4,1 C 19,3 km/h (3 Bft) 97,73 %
23.10.2017 22:22 8,6 C 10,6 C 86 % 1021,3 hPa 0,0 l/m 17,5 km/h (3 Bft) W-SW 240 0 min 0,000 mm 0,0 UV-I 0 W/m 6,4 C 2,4 C 37,0 km/h (5 Bft) 97,37 %
23.10.2017 22:24 8,6 C 10,6 C 86 % 1021,3 hPa 0,0 l/m 22,8 km/h (4 Bft) W 267 0 min 0,000 mm 0,0 UV-I 0 W/m 6,4 C 0,6 C 30,6 km/h (5 Bft) 98,21 %
23.10.2017 22:26 8,6 C 10,6 C 86 % 1021,4 hPa 0,0 l/m 19,4 km/h (3 Bft) W 271 0 min 0,000 mm 0,0 UV-I 0 W/m 6,4 C 1,7 C 27,4 km/h (4 Bft) 92,68 %
23.10.2017 22:28 8,6 C 10,6 C 86 % 1021,4 hPa 0,0 l/m 18,0 km/h (3 Bft) W-NW 284 0 min 0,000 mm 0,0 UV-I 0 W/m 6,4 C 2,2 C 29,0 km/h (5 Bft) 96,00 %
23.10.2017 22:30 8,6 C 10,6 C 86 % 1021,5 hPa 0,0 l/m 18,6 km/h (3 Bft) W-SW 256 0 min 0,000 mm 0,0 UV-I 0 W/m 6,4 C 2,0 C 27,4 km/h (4 Bft) 94,74 %
23.10.2017 22:32 8,6 C 10,6 C 86 % 1021,5 hPa 0,0 l/m 17,9 km/h (3 Bft) W 272 0 min 0,000 mm 0,0 UV-I 0 W/m 6,4 C 2,2 C 25,7 km/h (4 Bft) 96,36 %
23.10.2017 22:34 8,6 C 10,6 C 86 % 1021,5 hPa 0,0 l/m 18,1 km/h (3 Bft) W-SW 250 0 min 0,000 mm 0,0 UV-I 0 W/m 6,4 C 2,2 C 27,4 km/h (4 Bft) 92,00 %
23.10.2017 22:36 8,6 C 10,6 C 86 % 1021,6 hPa 0,0 l/m 19,7 km/h (3 Bft) W-SW 250 0 min 0,000 mm 0,0 UV-I 0 W/m 6,4 C 1,6 C 30,6 km/h (5 Bft) 100,00 %
23.10.2017 22:38 8,6 C 10,6 C 86 % 1021,6 hPa 0,0 l/m 15,9 km/h (3 Bft) W-SW 245 0 min 0,000 mm 0,0 UV-I 0 W/m 6,4 C 3,0 C 24,1 km/h (4 Bft) 91,49 %
23.10.2017 22:40 8,6 C 10,6 C 86 % 1021,6 hPa 0,0 l/m 18,4 km/h (3 Bft) W-SW 252 0 min 0,000 mm 0,0 UV-I 0 W/m 6,4 C 2,1 C 25,7 km/h (4 Bft) 94,55 %
23.10.2017 22:42 8,6 C 10,6 C 86 % 1021,7 hPa 0,0 l/m 17,2 km/h (3 Bft) W 265 0 min 0,000 mm 0,0 UV-I 0 W/m 6,4 C 2,5 C 25,7 km/h (4 Bft) 95,12 %
23.10.2017 22:44 8,6 C 10,6 C 86 % 1021,7 hPa 0,0 l/m 12,3 km/h (3 Bft) W-SW 246 0 min 0,000 mm 0,0 UV-I 0 W/m 6,4 C 4,7 C 17,7 km/h (3 Bft) 96,00 %
23.10.2017 22:46 8,6 C 10,6 C 86 % 1021,7 hPa 0,0 l/m 17,1 km/h (3 Bft) W-SW 241 0 min 0,000 mm 0,0 UV-I 0 W/m 6,4 C 2,6 C 24,1 km/h (4 Bft) 96,00 %
23.10.2017 22:48 8,6 C 10,6 C 86 % 1021,7 hPa 0,0 l/m 18,1 km/h (3 Bft) W 261 0 min 0,000 mm 0,0 UV-I 0 W/m 6,4 C 2,2 C 24,1 km/h (4 Bft) 95,12 %
23.10.2017 22:50 8,6 C 10,6 C 86 % 1021,7 hPa 0,0 l/m 13,9 km/h (3 Bft) W-SW 255 0 min 0,000 mm 0,0 UV-I 0 W/m 6,4 C 3,9 C 19,3 km/h (3 Bft) 94,34 %
23.10.2017 22:52 8,6 C 10,6 C 86 % 1021,7 hPa 0,0 l/m 15,7 km/h (3 Bft) W 267 0 min 0,000 mm 0,0 UV-I 0 W/m 6,4 C 3,1 C 22,5 km/h (4 Bft) 95,45 %
23.10.2017 22:54 8,6 C 10,6 C 86 % 1021,7 hPa 0,0 l/m 15,9 km/h (3 Bft) W-SW 253 0 min 0,000 mm 0,0 UV-I 0 W/m 6,4 C 3,0 C 20,9 km/h (4 Bft) 97,56 %
23.10.2017 22:56 8,6 C 10,6 C 86 % 1021,7 hPa 0,0 l/m 16,6 km/h (3 Bft) W-SW 250 0 min 0,000 mm 0,0 UV-I 0 W/m 6,4 C 2,8 C 25,7 km/h (4 Bft) 95,74 %
23.10.2017 22:58 8,6 C 10,6 C 86 % 1021,7 hPa 0,0 l/m 14,5 km/h (3 Bft) W-SW 246 0 min 0,000 mm 0,0 UV-I 0 W/m 6,4 C 3,7 C 22,5 km/h (4 Bft) 94,34 %
23.10.2017 23:00 8,6 C 10,6 C 86 % 1021,6 hPa 0,0 l/m 17,5 km/h (3 Bft) W-SW 256 0 min 0,000 mm 0,0 UV-I 0 W/m 6,4 C 2,4 C 22,5 km/h (4 Bft) 97,73 %
23.10.2017 23:02 8,6 C 10,6 C 86 % 1021,7 hPa 0,0 l/m 14,8 km/h (3 Bft) W 265 0 min 0,026 mm 0,0 UV-I 0 W/m 6,4 C 3,5 C 19,3 km/h (3 Bft) 97,73 %
23.10.2017 23:04 8,6 C 10,6 C 86 % 1021,7 hPa 0,0 l/m 15,9 km/h (3 Bft) W-SW 246 0 min 0,000 mm 0,0 UV-I 0 W/m 6,4 C 3,0 C 22,5 km/h (4 Bft) 96,00 %
23.10.2017 23:06 8,6 C 10,6 C 86 % 1021,8 hPa 0,0 l/m 16,3 km/h (3 Bft) W-SW 257 0 min 0,000 mm 0,0 UV-I 0 W/m 6,4 C 2,9 C 22,5 km/h (4 Bft) 97,56 %
23.10.2017 23:08 8,6 C 10,6 C 86 % 1021,8 hPa 0,0 l/m 13,5 km/h (3 Bft) SW 234 0 min 0,000 mm 0,0 UV-I 0 W/m 6,4 C 4,1 C 22,5 km/h (4 Bft) 100,00 %
23.10.2017 23:10 8,6 C 10,6 C 87 % 1021,8 hPa 0,0 l/m 14,3 km/h (3 Bft) W-NW 287 0 min 0,000 mm 0,0 UV-I 0 W/m 6,6 C 3,8 C 22,5 km/h (4 Bft) 98,21 %
23.10.2017 23:12 8,6 C 10,6 C 87 % 1021,7 hPa 0,0 l/m 13,3 km/h (3 Bft) W 262 0 min 0,000 mm 0,0 UV-I 0 W/m 6,6 C 4,2 C 20,9 km/h (4 Bft) 100,00 %
23.10.2017 23:14 8,6 C 10,6 C 87 % 1021,8 hPa 0,0 l/m 13,1 km/h (3 Bft) W-SW 255 0 min 0,000 mm 0,0 UV-I 0 W/m 6,6 C 4,3 C 17,7 km/h (3 Bft) 97,22 %
23.10.2017 23:16 8,6 C 10,6 C 87 % 1021,7 hPa 0,0 l/m 16,9 km/h (3 Bft) W-SW 242 0 min 0,000 mm 0,0 UV-I 0 W/m 6,6 C 2,6 C 22,5 km/h (4 Bft) 100,00 %
23.10.2017 23:18 8,5 C 10,6 C 87 % 1021,8 hPa 0,0 l/m 15,6 km/h (3 Bft) W-SW 242 0 min 0,000 mm 0,0 UV-I 0 W/m 6,5 C 3,1 C 20,9 km/h (4 Bft) 100,00 %
23.10.2017 23:20 8,5 C 10,6 C 87 % 1021,8 hPa 0,0 l/m 13,6 km/h (3 Bft) W-SW 241 0 min 0,000 mm 0,0 UV-I 0 W/m 6,5 C 4,0 C 22,5 km/h (4 Bft) 100,00 %
23.10.2017 23:23 8,6 C 10,6 C 87 % 1021,8 hPa 0,0 l/m 13,9 km/h (3 Bft) W-SW 256 0 min 0,000 mm 0,0 UV-I 0 W/m 6,6 C 3,9 C 32,2 km/h (5 Bft) 97,01 %
23.10.2017 23:24 8,6 C 10,6 C 87 % 1021,8 hPa 0,0 l/m 17,1 km/h (3 Bft) W-NW 285 0 min 0,000 mm 0,0 UV-I 0 W/m 6,6 C 2,6 C 22,5 km/h (4 Bft) 95,83 %
23.10.2017 23:26 8,5 C 10,6 C 87 % 1021,9 hPa 0,0 l/m 15,5 km/h (3 Bft) W 263 0 min 0,000 mm 0,0 UV-I 0 W/m 6,5 C 3,1 C 25,7 km/h (4 Bft) 100,00 %
23.10.2017 23:28 8,5 C 10,6 C 87 % 1021,9 hPa 0,0 l/m 17,0 km/h (3 Bft) W-SW 257 0 min 0,000 mm 0,0 UV-I 0 W/m 6,5 C 2,5 C 22,5 km/h (4 Bft) 97,87 %
23.10.2017 23:30 8,6 C 10,6 C 87 % 1021,9 hPa 0,0 l/m 17,2 km/h (3 Bft) W-SW 240 0 min 0,000 mm 0,0 UV-I 0 W/m 6,6 C 2,5 C 29,0 km/h (5 Bft) 98,00 %
23.10.2017 23:32 8,6 C 10,6 C 87 % 1021,9 hPa 0,0 l/m 14,8 km/h (3 Bft) W 272 0 min 0,000 mm 0,0 UV-I 0 W/m 6,6 C 3,5 C 20,9 km/h (4 Bft) 100,00 %
23.10.2017 23:34 8,6 C 10,6 C 87 % 1022,0 hPa 0,0 l/m 16,5 km/h (3 Bft) W-SW 246 0 min 0,000 mm 0,0 UV-I 0 W/m 6,6 C 2,8 C 22,5 km/h (4 Bft) 98,00 %
23.10.2017 23:36 8,6 C 10,6 C 87 % 1022,0 hPa 0,0 l/m 15,9 km/h (3 Bft) W 271 0 min 0,000 mm 0,0 UV-I 0 W/m 6,6 C 3,0 C 25,7 km/h (4 Bft) 100,00 %
23.10.2017 23:38 8,6 C 10,6 C 87 % 1022,0 hPa 0,0 l/m 19,6 km/h (3 Bft) W-SW 244 0 min 0,000 mm 0,0 UV-I 0 W/m 6,6 C 1,6 C 30,6 km/h (5 Bft) 100,00 %
23.10.2017 23:40 8,6 C 10,6 C 87 % 1022,0 hPa 0,0 l/m 15,7 km/h (3 Bft) SW 223 0 min 0,000 mm 0,0 UV-I 0 W/m 6,6 C 3,1 C 22,5 km/h (4 Bft) 100,00 %
23.10.2017 23:42 8,6 C 10,6 C 87 % 1022,1 hPa 0,0 l/m 16,6 km/h (3 Bft) W 274 0 min 0,000 mm 0,0 UV-I 0 W/m 6,6 C 2,8 C 25,7 km/h (4 Bft) 100,00 %
23.10.2017 23:44 8,6 C 10,6 C 87 % 1022,1 hPa 0,0 l/m 16,9 km/h (3 Bft) SW 236 0 min 0,000 mm 0,0 UV-I 0 W/m 6,6 C 2,6 C 29,0 km/h (5 Bft) 100,00 %
23.10.2017 23:46 8,6 C 10,6 C 87 % 1022,1 hPa 0,0 l/m 14,2 km/h (3 Bft) W 259 0 min 0,000 mm 0,0 UV-I 0 W/m 6,6 C 3,8 C 17,7 km/h (3 Bft) 100,00 %
23.10.2017 23:48 8,6 C 10,6 C 87 % 1022,1 hPa 0,0 l/m 16,9 km/h (3 Bft) W-NW 285 0 min 0,000 mm 0,0 UV-I 0 W/m 6,6 C 2,6 C 32,2 km/h (5 Bft) 100,00 %
23.10.2017 23:50 8,6 C 10,6 C 87 % 1022,1 hPa 0,0 l/m 18,1 km/h (3 Bft) W 273 0 min 0,000 mm 0,0 UV-I 0 W/m 6,6 C 2,2 C 29,0 km/h (5 Bft) 100,00 %
23.10.2017 23:52 8,6 C 10,6 C 87 % 1022,1 hPa 0,0 l/m 16,7 km/h (3 Bft) W-SW 254 0 min 0,000 mm 0,0 UV-I 0 W/m 6,6 C 2,7 C 24,1 km/h (4 Bft) 100,00 %
23.10.2017 23:54 8,6 C 10,6 C 87 % 1022,2 hPa 0,0 l/m 16,7 km/h (3 Bft) W-NW 288 0 min 0,000 mm 0,0 UV-I 0 W/m 6,6 C 2,7 C 27,4 km/h (4 Bft) 100,00 %
23.10.2017 23:56 8,6 C 10,6 C 87 % 1022,2 hPa 0,0 l/m 16,1 km/h (3 Bft) W 268 0 min 0,000 mm 0,0 UV-I 0 W/m 6,6 C 3,0 C 27,4 km/h (4 Bft) 100,00 %
23.10.2017 23:58 8,6 C 10,6 C 87 % 1022,2 hPa 0,0 l/m 15,0 km/h (3 Bft) W-NW 297 0 min 0,000 mm 0,0 UV-I 0 W/m 6,6 C 3,4 C 29,0 km/h (5 Bft) 100,00 %
_ Min-Zeit 03:02 07:16 12:30 02:56 - 15:54 - - - - - - 00:02 09:02 15:54 14:48
Minimum _ 7,5 C 10,6 C 79 % 1014,8 hPa - 6,7 km/h (2 Bft) - - - - - - 5,4 C -0,0 C 11,3 km/h (2 Bft) 90,91 %
_ Max-Zeit 12:26 00:00 03:02 23:54 04:20 14:22 - - 12:12 13:02 12:16 12:22 21:10 13:28 12:34 00:04
Maximum _ 9,8 C 11,1 C 90 % 1022,2 hPa 0,2 l/m 22,9 km/h
W (4 Bft)
- - 2 min 0,153 mm 1,6 UV-I 555 W/m 6,9 C 8,9 C 41,8 km/h
W (6 Bft)
100,00 %
Durchschnitt _ 8,3 C 10,8 C 86 % 1017,5 hPa #0,2 l/m 14,4 km/h (3 Bft) W-SW - #16 min. #0,940 mm 0,8 UV-I 81 W/m 6,1 C 3,5 C 22,7 km/h (4 Bft) 98,07 %